<?xml version="1.0" encoding="UTF-8" standalone="no" ?>
<gpx xmlns="http://www.topografix.com/GPX/1/1" xmlns:xsi="http://www.w3.org/2001/XMLSchema-instance" xsi:schemaLocation="http://www.topografix.com/GPX/1/1 http://www.topografix.com/GPX/1/1/gpx.xsd" version="1.1" creator="VisuGPX - https://www.visugpx.com">
  <metadata>
    <name>Sainte Victoire</name>
    <desc><![CDATA[Circuit 3 jours montagne Ste Victoire]]></desc>
  </metadata>
  <trk>
    <name><![CDATA[JOUQUES Vauvenargues 2013-05-10 09:23]]></name>
    <trkseg>
      <trkpt lat="43.68061" lon="5.67725">
        <ele>426.8</ele>
        <time>2013-05-10T07:27:50Z</time>
      </trkpt>
      <trkpt lat="43.6805" lon="5.67708">
        <ele>426.4</ele>
        <time>2013-05-10T07:28:20Z</time>
      </trkpt>
      <trkpt lat="43.67829" lon="5.6734">
        <ele>416.8</ele>
        <time>2013-05-10T07:30:04Z</time>
      </trkpt>
      <trkpt lat="43.67809" lon="5.67384">
        <ele>467.59997558594</ele>
        <time>2013-05-10T07:30:38Z</time>
      </trkpt>
      <trkpt lat="43.67804" lon="5.67426">
        <ele>482.90002441406</ele>
        <time>2013-05-10T07:31:12Z</time>
      </trkpt>
      <trkpt lat="43.67803" lon="5.67448">
        <ele>469.09997558594</ele>
        <time>2013-05-10T07:32:22Z</time>
      </trkpt>
      <trkpt lat="43.67775" lon="5.67458">
        <ele>463.90002441406</ele>
        <time>2013-05-10T07:32:57Z</time>
      </trkpt>
      <trkpt lat="43.67743" lon="5.67432">
        <ele>463.59997558594</ele>
        <time>2013-05-10T07:33:32Z</time>
      </trkpt>
      <trkpt lat="43.67719" lon="5.67415">
        <ele>467.5</ele>
        <time>2013-05-10T07:35:12Z</time>
      </trkpt>
      <trkpt lat="43.67694" lon="5.67438">
        <ele>451.40002441406</ele>
        <time>2013-05-10T07:35:46Z</time>
      </trkpt>
      <trkpt lat="43.67704" lon="5.67499">
        <ele>457.20001220703</ele>
        <time>2013-05-10T07:36:32Z</time>
      </trkpt>
      <trkpt lat="43.67694" lon="5.67568">
        <ele>473.09997558594</ele>
        <time>2013-05-10T07:37:17Z</time>
      </trkpt>
      <trkpt lat="43.67704" lon="5.67647">
        <ele>461.59997558594</ele>
        <time>2013-05-10T07:38:02Z</time>
      </trkpt>
      <trkpt lat="43.67718" lon="5.67705">
        <ele>465.29998779297</ele>
        <time>2013-05-10T07:38:41Z</time>
      </trkpt>
      <trkpt lat="43.67726" lon="5.67732">
        <ele>445</ele>
        <time>2013-05-10T07:41:22Z</time>
      </trkpt>
      <trkpt lat="43.67728" lon="5.6775">
        <ele>447.29998779297</ele>
        <time>2013-05-10T07:42:04Z</time>
      </trkpt>
      <trkpt lat="43.67687" lon="5.67776">
        <ele>451.90002441406</ele>
        <time>2013-05-10T07:42:41Z</time>
      </trkpt>
      <trkpt lat="43.67663" lon="5.67771">
        <ele>446.59997558594</ele>
        <time>2013-05-10T07:43:07Z</time>
      </trkpt>
      <trkpt lat="43.67637" lon="5.6776">
        <ele>434.29998779297</ele>
        <time>2013-05-10T07:43:35Z</time>
      </trkpt>
      <trkpt lat="43.67613" lon="5.67743">
        <ele>438.29998779297</ele>
        <time>2013-05-10T07:44:00Z</time>
      </trkpt>
      <trkpt lat="43.67593" lon="5.67729">
        <ele>441.40002441406</ele>
        <time>2013-05-10T07:44:24Z</time>
      </trkpt>
      <trkpt lat="43.67576" lon="5.67742">
        <ele>462.29998779297</ele>
        <time>2013-05-10T07:44:58Z</time>
      </trkpt>
      <trkpt lat="43.67566" lon="5.67797">
        <ele>468.40002441406</ele>
        <time>2013-05-10T07:45:33Z</time>
      </trkpt>
      <trkpt lat="43.67559" lon="5.67851">
        <ele>475.09997558594</ele>
        <time>2013-05-10T07:46:07Z</time>
      </trkpt>
      <trkpt lat="43.6755" lon="5.67906">
        <ele>472</ele>
        <time>2013-05-10T07:46:41Z</time>
      </trkpt>
      <trkpt lat="43.67524" lon="5.67925">
        <ele>477.79998779297</ele>
        <time>2013-05-10T07:47:10Z</time>
      </trkpt>
      <trkpt lat="43.6749" lon="5.67896">
        <ele>480.70001220703</ele>
        <time>2013-05-10T07:47:39Z</time>
      </trkpt>
      <trkpt lat="43.67458" lon="5.67872">
        <ele>479.5</ele>
        <time>2013-05-10T07:48:07Z</time>
      </trkpt>
      <trkpt lat="43.67423" lon="5.67856">
        <ele>476.40002441406</ele>
        <time>2013-05-10T07:48:36Z</time>
      </trkpt>
      <trkpt lat="43.6738" lon="5.67852">
        <ele>480</ele>
        <time>2013-05-10T07:49:06Z</time>
      </trkpt>
      <trkpt lat="43.67353" lon="5.67848">
        <ele>479.5</ele>
        <time>2013-05-10T07:49:35Z</time>
      </trkpt>
      <trkpt lat="43.67314" lon="5.67837">
        <ele>481.40002441406</ele>
        <time>2013-05-10T07:50:04Z</time>
      </trkpt>
      <trkpt lat="43.67277" lon="5.67824">
        <ele>479.70001220703</ele>
        <time>2013-05-10T07:50:33Z</time>
      </trkpt>
      <trkpt lat="43.67259" lon="5.6782">
        <ele>491.90002441406</ele>
        <time>2013-05-10T07:51:04Z</time>
      </trkpt>
      <trkpt lat="43.67222" lon="5.67812">
        <ele>484.90002441406</ele>
        <time>2013-05-10T07:51:33Z</time>
      </trkpt>
      <trkpt lat="43.67185" lon="5.67805">
        <ele>479.70001220703</ele>
        <time>2013-05-10T07:52:01Z</time>
      </trkpt>
      <trkpt lat="43.67144" lon="5.67795">
        <ele>484.40002441406</ele>
        <time>2013-05-10T07:52:30Z</time>
      </trkpt>
      <trkpt lat="43.67099" lon="5.67785">
        <ele>475.79998779297</ele>
        <time>2013-05-10T07:53:04Z</time>
      </trkpt>
      <trkpt lat="43.6706" lon="5.67771">
        <ele>476</ele>
        <time>2013-05-10T07:53:32Z</time>
      </trkpt>
      <trkpt lat="43.67019" lon="5.67762">
        <ele>485.59997558594</ele>
        <time>2013-05-10T07:54:02Z</time>
      </trkpt>
      <trkpt lat="43.66977" lon="5.67781">
        <ele>477</ele>
        <time>2013-05-10T07:54:37Z</time>
      </trkpt>
      <trkpt lat="43.66942" lon="5.67804">
        <ele>475.09997558594</ele>
        <time>2013-05-10T07:55:08Z</time>
      </trkpt>
      <trkpt lat="43.66896" lon="5.67832">
        <ele>477.40002441406</ele>
        <time>2013-05-10T07:55:42Z</time>
      </trkpt>
      <trkpt lat="43.66853" lon="5.67863">
        <ele>475.09997558594</ele>
        <time>2013-05-10T07:56:18Z</time>
      </trkpt>
      <trkpt lat="43.66806" lon="5.67874">
        <ele>472.79998779297</ele>
        <time>2013-05-10T07:56:52Z</time>
      </trkpt>
      <trkpt lat="43.66763" lon="5.67863">
        <ele>479.70001220703</ele>
        <time>2013-05-10T07:57:21Z</time>
      </trkpt>
      <trkpt lat="43.66722" lon="5.67849">
        <ele>476.79998779297</ele>
        <time>2013-05-10T07:57:50Z</time>
      </trkpt>
      <trkpt lat="43.66687" lon="5.67839">
        <ele>473.5</ele>
        <time>2013-05-10T07:58:18Z</time>
      </trkpt>
      <trkpt lat="43.66644" lon="5.67827">
        <ele>472.09997558594</ele>
        <time>2013-05-10T07:58:47Z</time>
      </trkpt>
      <trkpt lat="43.666" lon="5.67814">
        <ele>469.40002441406</ele>
        <time>2013-05-10T07:59:21Z</time>
      </trkpt>
      <trkpt lat="43.66568" lon="5.67794">
        <ele>464</ele>
        <time>2013-05-10T07:59:48Z</time>
      </trkpt>
      <trkpt lat="43.66534" lon="5.67761">
        <ele>463.79998779297</ele>
        <time>2013-05-10T08:00:20Z</time>
      </trkpt>
      <trkpt lat="43.66508" lon="5.67717">
        <ele>464.29998779297</ele>
        <time>2013-05-10T08:00:49Z</time>
      </trkpt>
      <trkpt lat="43.66467" lon="5.6769">
        <ele>464.29998779297</ele>
        <time>2013-05-10T08:01:16Z</time>
      </trkpt>
      <trkpt lat="43.66436" lon="5.67659">
        <ele>455.29998779297</ele>
        <time>2013-05-10T08:01:46Z</time>
      </trkpt>
      <trkpt lat="43.664" lon="5.67621">
        <ele>462.90002441406</ele>
        <time>2013-05-10T08:02:13Z</time>
      </trkpt>
      <trkpt lat="43.66385" lon="5.67566">
        <ele>455.20001220703</ele>
        <time>2013-05-10T08:02:48Z</time>
      </trkpt>
      <trkpt lat="43.66387" lon="5.67494">
        <ele>460.70001220703</ele>
        <time>2013-05-10T08:03:22Z</time>
      </trkpt>
      <trkpt lat="43.66351" lon="5.67451">
        <ele>464.79998779297</ele>
        <time>2013-05-10T08:03:54Z</time>
      </trkpt>
      <trkpt lat="43.6631" lon="5.67425">
        <ele>467.20001220703</ele>
        <time>2013-05-10T08:04:29Z</time>
      </trkpt>
      <trkpt lat="43.66266" lon="5.67448">
        <ele>459.09997558594</ele>
        <time>2013-05-10T08:05:04Z</time>
      </trkpt>
      <trkpt lat="43.66249" lon="5.67388">
        <ele>452.70001220703</ele>
        <time>2013-05-10T08:05:39Z</time>
      </trkpt>
      <trkpt lat="43.66229" lon="5.67342">
        <ele>454.09997558594</ele>
        <time>2013-05-10T08:06:07Z</time>
      </trkpt>
      <trkpt lat="43.6621" lon="5.67309">
        <ele>457</ele>
        <time>2013-05-10T08:06:34Z</time>
      </trkpt>
      <trkpt lat="43.662" lon="5.67265">
        <ele>452.90002441406</ele>
        <time>2013-05-10T08:07:09Z</time>
      </trkpt>
      <trkpt lat="43.66196" lon="5.67213">
        <ele>450</ele>
        <time>2013-05-10T08:07:44Z</time>
      </trkpt>
      <trkpt lat="43.66168" lon="5.67161">
        <ele>448.90002441406</ele>
        <time>2013-05-10T08:08:18Z</time>
      </trkpt>
      <trkpt lat="43.66138" lon="5.6712">
        <ele>453.70001220703</ele>
        <time>2013-05-10T08:08:45Z</time>
      </trkpt>
      <trkpt lat="43.6611" lon="5.6702">
        <ele>448.20001220703</ele>
        <time>2013-05-10T08:09:19Z</time>
      </trkpt>
      <trkpt lat="43.66109" lon="5.66953">
        <ele>454.79998779297</ele>
        <time>2013-05-10T08:09:53Z</time>
      </trkpt>
      <trkpt lat="43.66093" lon="5.66903">
        <ele>450.70001220703</ele>
        <time>2013-05-10T08:10:28Z</time>
      </trkpt>
      <trkpt lat="43.66038" lon="5.66843">
        <ele>445.40002441406</ele>
        <time>2013-05-10T08:11:02Z</time>
      </trkpt>
      <trkpt lat="43.66009" lon="5.66763">
        <ele>440.79998779297</ele>
        <time>2013-05-10T08:11:36Z</time>
      </trkpt>
      <trkpt lat="43.65987" lon="5.66706">
        <ele>444.59997558594</ele>
        <time>2013-05-10T08:12:11Z</time>
      </trkpt>
      <trkpt lat="43.65938" lon="5.66687">
        <ele>442.79998779297</ele>
        <time>2013-05-10T08:12:46Z</time>
      </trkpt>
      <trkpt lat="43.65893" lon="5.66671">
        <ele>442.79998779297</ele>
        <time>2013-05-10T08:13:21Z</time>
      </trkpt>
      <trkpt lat="43.65867" lon="5.66655">
        <ele>436.5</ele>
        <time>2013-05-10T08:13:56Z</time>
      </trkpt>
      <trkpt lat="43.65827" lon="5.66653">
        <ele>443</ele>
        <time>2013-05-10T08:14:31Z</time>
      </trkpt>
      <trkpt lat="43.65808" lon="5.66629">
        <ele>437.90002441406</ele>
        <time>2013-05-10T08:15:06Z</time>
      </trkpt>
      <trkpt lat="43.65773" lon="5.66596">
        <ele>436.59997558594</ele>
        <time>2013-05-10T08:15:41Z</time>
      </trkpt>
      <trkpt lat="43.65731" lon="5.66545">
        <ele>446</ele>
        <time>2013-05-10T08:16:15Z</time>
      </trkpt>
      <trkpt lat="43.65696" lon="5.66508">
        <ele>429.29998779297</ele>
        <time>2013-05-10T08:16:50Z</time>
      </trkpt>
      <trkpt lat="43.65661" lon="5.66457">
        <ele>437.09997558594</ele>
        <time>2013-05-10T08:17:24Z</time>
      </trkpt>
      <trkpt lat="43.65623" lon="5.6641">
        <ele>442.40002441406</ele>
        <time>2013-05-10T08:17:59Z</time>
      </trkpt>
      <trkpt lat="43.65595" lon="5.66361">
        <ele>433.29998779297</ele>
        <time>2013-05-10T08:18:34Z</time>
      </trkpt>
      <trkpt lat="43.65559" lon="5.6632">
        <ele>432.90002441406</ele>
        <time>2013-05-10T08:19:08Z</time>
      </trkpt>
      <trkpt lat="43.65517" lon="5.663">
        <ele>434.70001220703</ele>
        <time>2013-05-10T08:19:43Z</time>
      </trkpt>
      <trkpt lat="43.65469" lon="5.66277">
        <ele>428.29998779297</ele>
        <time>2013-05-10T08:20:18Z</time>
      </trkpt>
      <trkpt lat="43.65434" lon="5.66275">
        <ele>421.09997558594</ele>
        <time>2013-05-10T08:20:53Z</time>
      </trkpt>
      <trkpt lat="43.6539" lon="5.66281">
        <ele>422.5</ele>
        <time>2013-05-10T08:21:28Z</time>
      </trkpt>
      <trkpt lat="43.65339" lon="5.66287">
        <ele>420.29998779297</ele>
        <time>2013-05-10T08:22:01Z</time>
      </trkpt>
      <trkpt lat="43.65303" lon="5.66273">
        <ele>420.20001220703</ele>
        <time>2013-05-10T08:22:29Z</time>
      </trkpt>
      <trkpt lat="43.65266" lon="5.66239">
        <ele>419.5</ele>
        <time>2013-05-10T08:23:04Z</time>
      </trkpt>
      <trkpt lat="43.65254" lon="5.66206">
        <ele>413.79998779297</ele>
        <time>2013-05-10T08:23:38Z</time>
      </trkpt>
      <trkpt lat="43.6523" lon="5.66147">
        <ele>414.90002441406</ele>
        <time>2013-05-10T08:24:12Z</time>
      </trkpt>
      <trkpt lat="43.65202" lon="5.66089">
        <ele>413.40002441406</ele>
        <time>2013-05-10T08:24:46Z</time>
      </trkpt>
      <trkpt lat="43.65177" lon="5.66043">
        <ele>409</ele>
        <time>2013-05-10T08:25:21Z</time>
      </trkpt>
      <trkpt lat="43.65159" lon="5.65987">
        <ele>402.5</ele>
        <time>2013-05-10T08:25:57Z</time>
      </trkpt>
      <trkpt lat="43.65143" lon="5.65927">
        <ele>403.90002441406</ele>
        <time>2013-05-10T08:26:32Z</time>
      </trkpt>
      <trkpt lat="43.65164" lon="5.65892">
        <ele>407.90002441406</ele>
        <time>2013-05-10T08:27:07Z</time>
      </trkpt>
      <trkpt lat="43.65145" lon="5.65893">
        <ele>396.70001220703</ele>
        <time>2013-05-10T08:28:15Z</time>
      </trkpt>
      <trkpt lat="43.65155" lon="5.65876">
        <ele>419</ele>
        <time>2013-05-10T08:29:25Z</time>
      </trkpt>
      <trkpt lat="43.65141" lon="5.65913">
        <ele>402.90002441406</ele>
        <time>2013-05-10T08:29:59Z</time>
      </trkpt>
      <trkpt lat="43.65136" lon="5.65929">
        <ele>398.09997558594</ele>
        <time>2013-05-10T08:30:33Z</time>
      </trkpt>
      <trkpt lat="43.65118" lon="5.65873">
        <ele>399.20001220703</ele>
        <time>2013-05-10T08:31:07Z</time>
      </trkpt>
      <trkpt lat="43.65089" lon="5.65821">
        <ele>396.70001220703</ele>
        <time>2013-05-10T08:31:42Z</time>
      </trkpt>
      <trkpt lat="43.65072" lon="5.65751">
        <ele>397.20001220703</ele>
        <time>2013-05-10T08:32:16Z</time>
      </trkpt>
      <trkpt lat="43.6505" lon="5.65693">
        <ele>398.5</ele>
        <time>2013-05-10T08:32:51Z</time>
      </trkpt>
      <trkpt lat="43.65041" lon="5.65627">
        <ele>395.20001220703</ele>
        <time>2013-05-10T08:33:26Z</time>
      </trkpt>
      <trkpt lat="43.64991" lon="5.65519">
        <ele>388.59997558594</ele>
        <time>2013-05-10T08:34:01Z</time>
      </trkpt>
      <trkpt lat="43.6498" lon="5.65432">
        <ele>401.70001220703</ele>
        <time>2013-05-10T08:34:36Z</time>
      </trkpt>
      <trkpt lat="43.64994" lon="5.65372">
        <ele>399.20001220703</ele>
        <time>2013-05-10T08:35:11Z</time>
      </trkpt>
      <trkpt lat="43.65002" lon="5.6533">
        <ele>384.40002441406</ele>
        <time>2013-05-10T08:35:46Z</time>
      </trkpt>
      <trkpt lat="43.64971" lon="5.65176">
        <ele>386.40002441406</ele>
        <time>2013-05-10T08:36:21Z</time>
      </trkpt>
      <trkpt lat="43.65019" lon="5.65049">
        <ele>391.20001220703</ele>
        <time>2013-05-10T08:36:56Z</time>
      </trkpt>
      <trkpt lat="43.6506" lon="5.65027">
        <ele>374.59997558594</ele>
        <time>2013-05-10T08:37:30Z</time>
      </trkpt>
      <trkpt lat="43.65072" lon="5.64975">
        <ele>394.90002441406</ele>
        <time>2013-05-10T08:38:04Z</time>
      </trkpt>
      <trkpt lat="43.65073" lon="5.64922">
        <ele>405.20001220703</ele>
        <time>2013-05-10T08:38:33Z</time>
      </trkpt>
      <trkpt lat="43.65043" lon="5.64878">
        <ele>381.09997558594</ele>
        <time>2013-05-10T08:39:08Z</time>
      </trkpt>
      <trkpt lat="43.65007" lon="5.64839">
        <ele>385.09997558594</ele>
        <time>2013-05-10T08:39:42Z</time>
      </trkpt>
      <trkpt lat="43.64976" lon="5.64825">
        <ele>384.09997558594</ele>
        <time>2013-05-10T08:40:17Z</time>
      </trkpt>
      <trkpt lat="43.64954" lon="5.64819">
        <ele>377.29998779297</ele>
        <time>2013-05-10T08:40:51Z</time>
      </trkpt>
      <trkpt lat="43.64922" lon="5.64777">
        <ele>384.40002441406</ele>
        <time>2013-05-10T08:41:25Z</time>
      </trkpt>
      <trkpt lat="43.64918" lon="5.64721">
        <ele>370.70001220703</ele>
        <time>2013-05-10T08:41:59Z</time>
      </trkpt>
      <trkpt lat="43.64929" lon="5.64644">
        <ele>378</ele>
        <time>2013-05-10T08:42:33Z</time>
      </trkpt>
      <trkpt lat="43.64971" lon="5.64619">
        <ele>378.20001220703</ele>
        <time>2013-05-10T08:43:07Z</time>
      </trkpt>
      <trkpt lat="43.65041" lon="5.64647">
        <ele>374.70001220703</ele>
        <time>2013-05-10T08:43:46Z</time>
      </trkpt>
      <trkpt lat="43.65123" lon="5.64675">
        <ele>376.79998779297</ele>
        <time>2013-05-10T08:44:21Z</time>
      </trkpt>
      <trkpt lat="43.65166" lon="5.64652">
        <ele>364.09997558594</ele>
        <time>2013-05-10T08:44:57Z</time>
      </trkpt>
      <trkpt lat="43.65201" lon="5.64626">
        <ele>368.5</ele>
        <time>2013-05-10T08:45:24Z</time>
      </trkpt>
      <trkpt lat="43.65229" lon="5.64611">
        <ele>359.20001220703</ele>
        <time>2013-05-10T08:45:47Z</time>
      </trkpt>
      <trkpt lat="43.65269" lon="5.64608">
        <ele>363.70001220703</ele>
        <time>2013-05-10T08:46:21Z</time>
      </trkpt>
      <trkpt lat="43.65276" lon="5.64584">
        <ele>366.09997558594</ele>
        <time>2013-05-10T08:46:44Z</time>
      </trkpt>
      <trkpt lat="43.65269" lon="5.64561">
        <ele>403.09997558594</ele>
        <time>2013-05-10T08:48:52Z</time>
      </trkpt>
      <trkpt lat="43.65259" lon="5.64565">
        <ele>404.09997558594</ele>
        <time>2013-05-10T08:49:27Z</time>
      </trkpt>
      <trkpt lat="43.65277" lon="5.6457">
        <ele>389.20001220703</ele>
        <time>2013-05-10T08:50:01Z</time>
      </trkpt>
      <trkpt lat="43.65296" lon="5.64588">
        <ele>367.90002441406</ele>
        <time>2013-05-10T08:50:35Z</time>
      </trkpt>
      <trkpt lat="43.65323" lon="5.64583">
        <ele>374.20001220703</ele>
        <time>2013-05-10T08:51:00Z</time>
      </trkpt>
      <trkpt lat="43.65316" lon="5.64556">
        <ele>382.59997558594</ele>
        <time>2013-05-10T08:52:35Z</time>
      </trkpt>
      <trkpt lat="43.65269" lon="5.64532">
        <ele>390.20001220703</ele>
        <time>2013-05-10T08:53:10Z</time>
      </trkpt>
      <trkpt lat="43.65222" lon="5.64503">
        <ele>382.5</ele>
        <time>2013-05-10T08:53:49Z</time>
      </trkpt>
      <trkpt lat="43.65121" lon="5.64481">
        <ele>390.40002441406</ele>
        <time>2013-05-10T08:54:24Z</time>
      </trkpt>
      <trkpt lat="43.65047" lon="5.64411">
        <ele>388.90002441406</ele>
        <time>2013-05-10T08:54:59Z</time>
      </trkpt>
      <trkpt lat="43.65014" lon="5.64402">
        <ele>384.20001220703</ele>
        <time>2013-05-10T08:55:34Z</time>
      </trkpt>
      <trkpt lat="43.64988" lon="5.64402">
        <ele>389.59997558594</ele>
        <time>2013-05-10T08:56:08Z</time>
      </trkpt>
      <trkpt lat="43.64943" lon="5.64393">
        <ele>401.40002441406</ele>
        <time>2013-05-10T08:56:42Z</time>
      </trkpt>
      <trkpt lat="43.64901" lon="5.6439">
        <ele>397.09997558594</ele>
        <time>2013-05-10T08:57:17Z</time>
      </trkpt>
      <trkpt lat="43.64859" lon="5.64398">
        <ele>405.09997558594</ele>
        <time>2013-05-10T08:57:52Z</time>
      </trkpt>
      <trkpt lat="43.64825" lon="5.6439">
        <ele>413.29998779297</ele>
        <time>2013-05-10T08:58:27Z</time>
      </trkpt>
      <trkpt lat="43.64789" lon="5.6442">
        <ele>410.29998779297</ele>
        <time>2013-05-10T08:59:02Z</time>
      </trkpt>
      <trkpt lat="43.64761" lon="5.64402">
        <ele>397.20001220703</ele>
        <time>2013-05-10T08:59:37Z</time>
      </trkpt>
      <trkpt lat="43.64792" lon="5.64355">
        <ele>377.40002441406</ele>
        <time>2013-05-10T09:00:12Z</time>
      </trkpt>
      <trkpt lat="43.64806" lon="5.64292">
        <ele>388.59997558594</ele>
        <time>2013-05-10T09:00:46Z</time>
      </trkpt>
      <trkpt lat="43.64831" lon="5.64263">
        <ele>398.20001220703</ele>
        <time>2013-05-10T09:01:09Z</time>
      </trkpt>
      <trkpt lat="43.64856" lon="5.64235">
        <ele>383.79998779297</ele>
        <time>2013-05-10T09:01:32Z</time>
      </trkpt>
      <trkpt lat="43.64873" lon="5.64184">
        <ele>398.20001220703</ele>
        <time>2013-05-10T09:01:57Z</time>
      </trkpt>
      <trkpt lat="43.6489" lon="5.64147">
        <ele>379.40002441406</ele>
        <time>2013-05-10T09:02:32Z</time>
      </trkpt>
      <trkpt lat="43.64895" lon="5.64115">
        <ele>384.09997558594</ele>
        <time>2013-05-10T09:03:07Z</time>
      </trkpt>
      <trkpt lat="43.64919" lon="5.64055">
        <ele>387.20001220703</ele>
        <time>2013-05-10T09:03:34Z</time>
      </trkpt>
      <trkpt lat="43.64926" lon="5.64015">
        <ele>375.29998779297</ele>
        <time>2013-05-10T09:03:56Z</time>
      </trkpt>
      <trkpt lat="43.64913" lon="5.6396">
        <ele>373.5</ele>
        <time>2013-05-10T09:04:27Z</time>
      </trkpt>
      <trkpt lat="43.64924" lon="5.63935">
        <ele>360.09997558594</ele>
        <time>2013-05-10T09:04:48Z</time>
      </trkpt>
      <trkpt lat="43.64936" lon="5.63869">
        <ele>379.40002441406</ele>
        <time>2013-05-10T09:05:13Z</time>
      </trkpt>
      <trkpt lat="43.64948" lon="5.63832">
        <ele>342</ele>
        <time>2013-05-10T09:05:33Z</time>
      </trkpt>
      <trkpt lat="43.64921" lon="5.63775">
        <ele>372.09997558594</ele>
        <time>2013-05-10T09:06:08Z</time>
      </trkpt>
      <trkpt lat="43.64901" lon="5.63743">
        <ele>366.09997558594</ele>
        <time>2013-05-10T09:06:32Z</time>
      </trkpt>
      <trkpt lat="43.64909" lon="5.63693">
        <ele>376.59997558594</ele>
        <time>2013-05-10T09:07:01Z</time>
      </trkpt>
      <trkpt lat="43.64936" lon="5.63654">
        <ele>364</ele>
        <time>2013-05-10T09:07:28Z</time>
      </trkpt>
      <trkpt lat="43.64945" lon="5.63616">
        <ele>361.09997558594</ele>
        <time>2013-05-10T09:07:51Z</time>
      </trkpt>
      <trkpt lat="43.64915" lon="5.63575">
        <ele>355</ele>
        <time>2013-05-10T09:08:26Z</time>
      </trkpt>
      <trkpt lat="43.64877" lon="5.63542">
        <ele>359.70001220703</ele>
        <time>2013-05-10T09:09:01Z</time>
      </trkpt>
      <trkpt lat="43.64845" lon="5.63516">
        <ele>353.70001220703</ele>
        <time>2013-05-10T09:09:33Z</time>
      </trkpt>
      <trkpt lat="43.64813" lon="5.63486">
        <ele>353.5</ele>
        <time>2013-05-10T09:10:04Z</time>
      </trkpt>
      <trkpt lat="43.64797" lon="5.63471">
        <ele>349</ele>
        <time>2013-05-10T09:10:39Z</time>
      </trkpt>
      <trkpt lat="43.64787" lon="5.63467">
        <ele>348.40002441406</ele>
        <time>2013-05-10T09:11:08Z</time>
      </trkpt>
      <trkpt lat="43.6479" lon="5.63454">
        <ele>358.09997558594</ele>
        <time>2013-05-10T09:11:28Z</time>
      </trkpt>
      <trkpt lat="43.64796" lon="5.63416">
        <ele>356.40002441406</ele>
        <time>2013-05-10T09:12:26Z</time>
      </trkpt>
      <trkpt lat="43.64803" lon="5.63396">
        <ele>349.09997558594</ele>
        <time>2013-05-10T09:12:50Z</time>
      </trkpt>
      <trkpt lat="43.64769" lon="5.63385">
        <ele>352.79998779297</ele>
        <time>2013-05-10T09:13:25Z</time>
      </trkpt>
      <trkpt lat="43.64732" lon="5.63428">
        <ele>355.40002441406</ele>
        <time>2013-05-10T09:14:00Z</time>
      </trkpt>
      <trkpt lat="43.64694" lon="5.6346">
        <ele>362.59997558594</ele>
        <time>2013-05-10T09:14:35Z</time>
      </trkpt>
      <trkpt lat="43.64654" lon="5.63487">
        <ele>368.40002441406</ele>
        <time>2013-05-10T09:15:10Z</time>
      </trkpt>
      <trkpt lat="43.64613" lon="5.63513">
        <ele>365.59997558594</ele>
        <time>2013-05-10T09:15:45Z</time>
      </trkpt>
      <trkpt lat="43.64566" lon="5.63518">
        <ele>366.90002441406</ele>
        <time>2013-05-10T09:16:20Z</time>
      </trkpt>
      <trkpt lat="43.64514" lon="5.63506">
        <ele>368.20001220703</ele>
        <time>2013-05-10T09:16:48Z</time>
      </trkpt>
      <trkpt lat="43.64399" lon="5.63477">
        <ele>368</ele>
        <time>2013-05-10T09:17:23Z</time>
      </trkpt>
      <trkpt lat="43.64343" lon="5.63458">
        <ele>375.5</ele>
        <time>2013-05-10T09:17:54Z</time>
      </trkpt>
      <trkpt lat="43.64296" lon="5.63437">
        <ele>380</ele>
        <time>2013-05-10T09:18:29Z</time>
      </trkpt>
      <trkpt lat="43.64255" lon="5.63422">
        <ele>380.20001220703</ele>
        <time>2013-05-10T09:19:01Z</time>
      </trkpt>
      <trkpt lat="43.64208" lon="5.63408">
        <ele>384.79998779297</ele>
        <time>2013-05-10T09:19:36Z</time>
      </trkpt>
      <trkpt lat="43.64197" lon="5.63401">
        <ele>389.59997558594</ele>
        <time>2013-05-10T09:20:02Z</time>
      </trkpt>
      <trkpt lat="43.64181" lon="5.63419">
        <ele>377.79998779297</ele>
        <time>2013-05-10T09:22:37Z</time>
      </trkpt>
      <trkpt lat="43.6417" lon="5.63426">
        <ele>386.20001220703</ele>
        <time>2013-05-10T09:23:12Z</time>
      </trkpt>
      <trkpt lat="43.64177" lon="5.63414">
        <ele>391</ele>
        <time>2013-05-10T09:24:22Z</time>
      </trkpt>
      <trkpt lat="43.64165" lon="5.63404">
        <ele>395.29998779297</ele>
        <time>2013-05-10T09:25:51Z</time>
      </trkpt>
      <trkpt lat="43.64171" lon="5.63418">
        <ele>381.20001220703</ele>
        <time>2013-05-10T09:26:17Z</time>
      </trkpt>
      <trkpt lat="43.64181" lon="5.63422">
        <ele>379.5</ele>
        <time>2013-05-10T09:27:11Z</time>
      </trkpt>
      <trkpt lat="43.64184" lon="5.6341">
        <ele>388.09997558594</ele>
        <time>2013-05-10T09:30:19Z</time>
      </trkpt>
      <trkpt lat="43.64177" lon="5.6342">
        <ele>381.5</ele>
        <time>2013-05-10T09:30:42Z</time>
      </trkpt>
      <trkpt lat="43.64164" lon="5.63448">
        <ele>378</ele>
        <time>2013-05-10T09:32:52Z</time>
      </trkpt>
      <trkpt lat="43.6415" lon="5.63472">
        <ele>383.29998779297</ele>
        <time>2013-05-10T09:33:23Z</time>
      </trkpt>
      <trkpt lat="43.64163" lon="5.63456">
        <ele>381.09997558594</ele>
        <time>2013-05-10T09:33:57Z</time>
      </trkpt>
      <trkpt lat="43.64169" lon="5.63432">
        <ele>383.09997558594</ele>
        <time>2013-05-10T09:34:31Z</time>
      </trkpt>
      <trkpt lat="43.64178" lon="5.63421">
        <ele>389</ele>
        <time>2013-05-10T09:34:52Z</time>
      </trkpt>
      <trkpt lat="43.64187" lon="5.63396">
        <ele>386.59997558594</ele>
        <time>2013-05-10T09:36:51Z</time>
      </trkpt>
      <trkpt lat="43.64169" lon="5.63343">
        <ele>381.09997558594</ele>
        <time>2013-05-10T09:37:25Z</time>
      </trkpt>
      <trkpt lat="43.64147" lon="5.63303">
        <ele>378.70001220703</ele>
        <time>2013-05-10T09:37:56Z</time>
      </trkpt>
      <trkpt lat="43.64118" lon="5.63257">
        <ele>379.79998779297</ele>
        <time>2013-05-10T09:38:31Z</time>
      </trkpt>
      <trkpt lat="43.64099" lon="5.63205">
        <ele>372.59997558594</ele>
        <time>2013-05-10T09:39:06Z</time>
      </trkpt>
      <trkpt lat="43.64074" lon="5.63178">
        <ele>367</ele>
        <time>2013-05-10T09:39:31Z</time>
      </trkpt>
      <trkpt lat="43.64051" lon="5.63126">
        <ele>371.40002441406</ele>
        <time>2013-05-10T09:40:06Z</time>
      </trkpt>
      <trkpt lat="43.64041" lon="5.6311">
        <ele>379.29998779297</ele>
        <time>2013-05-10T09:40:30Z</time>
      </trkpt>
      <trkpt lat="43.64025" lon="5.63074">
        <ele>365.20001220703</ele>
        <time>2013-05-10T09:42:00Z</time>
      </trkpt>
      <trkpt lat="43.63989" lon="5.6307">
        <ele>360</ele>
        <time>2013-05-10T09:42:34Z</time>
      </trkpt>
      <trkpt lat="43.63956" lon="5.63056">
        <ele>351.79998779297</ele>
        <time>2013-05-10T09:43:09Z</time>
      </trkpt>
      <trkpt lat="43.63918" lon="5.63059">
        <ele>347.59997558594</ele>
        <time>2013-05-10T09:43:45Z</time>
      </trkpt>
      <trkpt lat="43.6388" lon="5.63068">
        <ele>341.09997558594</ele>
        <time>2013-05-10T09:44:18Z</time>
      </trkpt>
      <trkpt lat="43.63846" lon="5.6307">
        <ele>334.5</ele>
        <time>2013-05-10T09:44:50Z</time>
      </trkpt>
      <trkpt lat="43.63819" lon="5.63063">
        <ele>334.29998779297</ele>
        <time>2013-05-10T09:45:18Z</time>
      </trkpt>
      <trkpt lat="43.63807" lon="5.63063">
        <ele>328.79998779297</ele>
        <time>2013-05-10T09:45:38Z</time>
      </trkpt>
      <trkpt lat="43.63778" lon="5.63053">
        <ele>322.5</ele>
        <time>2013-05-10T09:46:07Z</time>
      </trkpt>
      <trkpt lat="43.63741" lon="5.63041">
        <ele>318.79998779297</ele>
        <time>2013-05-10T09:46:36Z</time>
      </trkpt>
      <trkpt lat="43.63717" lon="5.63034">
        <ele>310.09997558594</ele>
        <time>2013-05-10T09:46:57Z</time>
      </trkpt>
      <trkpt lat="43.63694" lon="5.63044">
        <ele>323.20001220703</ele>
        <time>2013-05-10T09:47:18Z</time>
      </trkpt>
      <trkpt lat="43.63675" lon="5.63062">
        <ele>319.59997558594</ele>
        <time>2013-05-10T09:47:38Z</time>
      </trkpt>
      <trkpt lat="43.63686" lon="5.63064">
        <ele>325.20001220703</ele>
        <time>2013-05-10T09:48:23Z</time>
      </trkpt>
      <trkpt lat="43.63687" lon="5.63087">
        <ele>315.09997558594</ele>
        <time>2013-05-10T09:49:16Z</time>
      </trkpt>
      <trkpt lat="43.63705" lon="5.63118">
        <ele>308.70001220703</ele>
        <time>2013-05-10T09:49:42Z</time>
      </trkpt>
      <trkpt lat="43.63725" lon="5.63157">
        <ele>319.70001220703</ele>
        <time>2013-05-10T09:50:06Z</time>
      </trkpt>
      <trkpt lat="43.63733" lon="5.63198">
        <ele>305.5</ele>
        <time>2013-05-10T09:50:28Z</time>
      </trkpt>
      <trkpt lat="43.63737" lon="5.63217">
        <ele>304.29998779297</ele>
        <time>2013-05-10T09:50:54Z</time>
      </trkpt>
      <trkpt lat="43.63751" lon="5.6326">
        <ele>312.70001220703</ele>
        <time>2013-05-10T09:51:14Z</time>
      </trkpt>
      <trkpt lat="43.63747" lon="5.6323">
        <ele>307.79998779297</ele>
        <time>2013-05-10T09:51:42Z</time>
      </trkpt>
      <trkpt lat="43.63746" lon="5.63205">
        <ele>307.70001220703</ele>
        <time>2013-05-10T09:52:09Z</time>
      </trkpt>
      <trkpt lat="43.63741" lon="5.63243">
        <ele>316.90002441406</ele>
        <time>2013-05-10T09:53:14Z</time>
      </trkpt>
      <trkpt lat="43.63755" lon="5.63256">
        <ele>304.20001220703</ele>
        <time>2013-05-10T09:53:33Z</time>
      </trkpt>
      <trkpt lat="43.63758" lon="5.63303">
        <ele>305.29998779297</ele>
        <time>2013-05-10T09:53:59Z</time>
      </trkpt>
      <trkpt lat="43.63752" lon="5.63329">
        <ele>313.5</ele>
        <time>2013-05-10T09:54:22Z</time>
      </trkpt>
      <trkpt lat="43.63731" lon="5.63336">
        <ele>308.09997558594</ele>
        <time>2013-05-10T09:55:32Z</time>
      </trkpt>
      <trkpt lat="43.63719" lon="5.6336">
        <ele>306.70001220703</ele>
        <time>2013-05-10T09:56:21Z</time>
      </trkpt>
      <trkpt lat="43.63699" lon="5.63413">
        <ele>310.40002441406</ele>
        <time>2013-05-10T09:56:49Z</time>
      </trkpt>
      <trkpt lat="43.63697" lon="5.6346">
        <ele>295.90002441406</ele>
        <time>2013-05-10T09:57:14Z</time>
      </trkpt>
      <trkpt lat="43.63686" lon="5.63498">
        <ele>307.59997558594</ele>
        <time>2013-05-10T09:57:41Z</time>
      </trkpt>
      <trkpt lat="43.63674" lon="5.63531">
        <ele>313</ele>
        <time>2013-05-10T09:58:05Z</time>
      </trkpt>
      <trkpt lat="43.63679" lon="5.63547">
        <ele>346.70001220703</ele>
        <time>2013-05-10T09:58:25Z</time>
      </trkpt>
      <trkpt lat="43.63676" lon="5.63532">
        <ele>313</ele>
        <time>2013-05-10T09:58:45Z</time>
      </trkpt>
      <trkpt lat="43.63665" lon="5.63517">
        <ele>333</ele>
        <time>2013-05-10T09:59:57Z</time>
      </trkpt>
      <trkpt lat="43.63635" lon="5.63531">
        <ele>323.29998779297</ele>
        <time>2013-05-10T10:00:18Z</time>
      </trkpt>
      <trkpt lat="43.63626" lon="5.6356">
        <ele>308.09997558594</ele>
        <time>2013-05-10T10:00:38Z</time>
      </trkpt>
      <trkpt lat="43.63611" lon="5.63599">
        <ele>307.09997558594</ele>
        <time>2013-05-10T10:00:59Z</time>
      </trkpt>
      <trkpt lat="43.63599" lon="5.63639">
        <ele>302.70001220703</ele>
        <time>2013-05-10T10:01:22Z</time>
      </trkpt>
      <trkpt lat="43.63602" lon="5.63668">
        <ele>301.79998779297</ele>
        <time>2013-05-10T10:01:42Z</time>
      </trkpt>
      <trkpt lat="43.63602" lon="5.63718">
        <ele>300.20001220703</ele>
        <time>2013-05-10T10:02:02Z</time>
      </trkpt>
      <trkpt lat="43.63599" lon="5.63769">
        <ele>308.29998779297</ele>
        <time>2013-05-10T10:02:24Z</time>
      </trkpt>
      <trkpt lat="43.63614" lon="5.6378">
        <ele>319.20001220703</ele>
        <time>2013-05-10T10:02:44Z</time>
      </trkpt>
      <trkpt lat="43.63601" lon="5.63769">
        <ele>339.40002441406</ele>
        <time>2013-05-10T10:03:05Z</time>
      </trkpt>
      <trkpt lat="43.63606" lon="5.63757">
        <ele>334.09997558594</ele>
        <time>2013-05-10T10:03:26Z</time>
      </trkpt>
      <trkpt lat="43.63593" lon="5.63749">
        <ele>327.59997558594</ele>
        <time>2013-05-10T10:03:49Z</time>
      </trkpt>
      <trkpt lat="43.63595" lon="5.63773">
        <ele>315.79998779297</ele>
        <time>2013-05-10T10:04:10Z</time>
      </trkpt>
      <trkpt lat="43.63581" lon="5.63778">
        <ele>321</ele>
        <time>2013-05-10T10:04:51Z</time>
      </trkpt>
      <trkpt lat="43.63591" lon="5.63787">
        <ele>316.70001220703</ele>
        <time>2013-05-10T10:05:49Z</time>
      </trkpt>
      <trkpt lat="43.63596" lon="5.63765">
        <ele>300</ele>
        <time>2013-05-10T10:07:08Z</time>
      </trkpt>
      <trkpt lat="43.63612" lon="5.63766">
        <ele>333.20001220703</ele>
        <time>2013-05-10T10:07:50Z</time>
      </trkpt>
      <trkpt lat="43.63595" lon="5.63775">
        <ele>315</ele>
        <time>2013-05-10T10:09:17Z</time>
      </trkpt>
      <trkpt lat="43.63587" lon="5.63876">
        <ele>316.70001220703</ele>
        <time>2013-05-10T11:34:30Z</time>
      </trkpt>
      <trkpt lat="43.63589" lon="5.63917">
        <ele>315.90002441406</ele>
        <time>2013-05-10T11:34:58Z</time>
      </trkpt>
      <trkpt lat="43.63586" lon="5.63965">
        <ele>319.40002441406</ele>
        <time>2013-05-10T11:35:26Z</time>
      </trkpt>
      <trkpt lat="43.63573" lon="5.64002">
        <ele>320.90002441406</ele>
        <time>2013-05-10T11:35:56Z</time>
      </trkpt>
      <trkpt lat="43.63546" lon="5.63994">
        <ele>316.5</ele>
        <time>2013-05-10T11:36:25Z</time>
      </trkpt>
      <trkpt lat="43.63507" lon="5.63982">
        <ele>313.79998779297</ele>
        <time>2013-05-10T11:36:51Z</time>
      </trkpt>
      <trkpt lat="43.63465" lon="5.63943">
        <ele>356.09997558594</ele>
        <time>2013-05-10T11:37:25Z</time>
      </trkpt>
      <trkpt lat="43.63455" lon="5.63889">
        <ele>364.29998779297</ele>
        <time>2013-05-10T11:37:59Z</time>
      </trkpt>
      <trkpt lat="43.63431" lon="5.63851">
        <ele>384.09997558594</ele>
        <time>2013-05-10T11:38:33Z</time>
      </trkpt>
      <trkpt lat="43.63411" lon="5.63891">
        <ele>362.70001220703</ele>
        <time>2013-05-10T11:39:06Z</time>
      </trkpt>
      <trkpt lat="43.63397" lon="5.63929">
        <ele>344.70001220703</ele>
        <time>2013-05-10T11:39:39Z</time>
      </trkpt>
      <trkpt lat="43.63379" lon="5.63979">
        <ele>354.29998779297</ele>
        <time>2013-05-10T11:40:14Z</time>
      </trkpt>
      <trkpt lat="43.63357" lon="5.63989">
        <ele>340.29998779297</ele>
        <time>2013-05-10T11:40:37Z</time>
      </trkpt>
      <trkpt lat="43.63317" lon="5.64023">
        <ele>335.59997558594</ele>
        <time>2013-05-10T11:41:09Z</time>
      </trkpt>
      <trkpt lat="43.63288" lon="5.64046">
        <ele>338.90002441406</ele>
        <time>2013-05-10T11:41:41Z</time>
      </trkpt>
      <trkpt lat="43.63249" lon="5.64064">
        <ele>333.79998779297</ele>
        <time>2013-05-10T11:42:14Z</time>
      </trkpt>
      <trkpt lat="43.63193" lon="5.64135">
        <ele>333.29998779297</ele>
        <time>2013-05-10T11:42:44Z</time>
      </trkpt>
      <trkpt lat="43.63167" lon="5.6417">
        <ele>343.20001220703</ele>
        <time>2013-05-10T11:43:12Z</time>
      </trkpt>
      <trkpt lat="43.63145" lon="5.64196">
        <ele>357.59997558594</ele>
        <time>2013-05-10T11:43:47Z</time>
      </trkpt>
      <trkpt lat="43.63107" lon="5.64208">
        <ele>342.29998779297</ele>
        <time>2013-05-10T11:44:18Z</time>
      </trkpt>
      <trkpt lat="43.63071" lon="5.64204">
        <ele>362.29998779297</ele>
        <time>2013-05-10T11:44:45Z</time>
      </trkpt>
      <trkpt lat="43.63018" lon="5.64128">
        <ele>352.79998779297</ele>
        <time>2013-05-10T11:45:19Z</time>
      </trkpt>
      <trkpt lat="43.63001" lon="5.6412">
        <ele>359.20001220703</ele>
        <time>2013-05-10T11:45:53Z</time>
      </trkpt>
      <trkpt lat="43.63018" lon="5.64083">
        <ele>364.90002441406</ele>
        <time>2013-05-10T11:46:20Z</time>
      </trkpt>
      <trkpt lat="43.63017" lon="5.64044">
        <ele>372.79998779297</ele>
        <time>2013-05-10T11:46:52Z</time>
      </trkpt>
      <trkpt lat="43.62989" lon="5.64008">
        <ele>374.59997558594</ele>
        <time>2013-05-10T11:47:26Z</time>
      </trkpt>
      <trkpt lat="43.63008" lon="5.64008">
        <ele>342.70001220703</ele>
        <time>2013-05-10T11:48:14Z</time>
      </trkpt>
      <trkpt lat="43.62981" lon="5.63955">
        <ele>373.20001220703</ele>
        <time>2013-05-10T11:48:40Z</time>
      </trkpt>
      <trkpt lat="43.62954" lon="5.63968">
        <ele>357.20001220703</ele>
        <time>2013-05-10T11:49:11Z</time>
      </trkpt>
      <trkpt lat="43.62981" lon="5.6396">
        <ele>352.70001220703</ele>
        <time>2013-05-10T11:49:41Z</time>
      </trkpt>
      <trkpt lat="43.6296" lon="5.63923">
        <ele>366.09997558594</ele>
        <time>2013-05-10T11:50:15Z</time>
      </trkpt>
      <trkpt lat="43.62951" lon="5.63926">
        <ele>361.29998779297</ele>
        <time>2013-05-10T11:50:50Z</time>
      </trkpt>
      <trkpt lat="43.62923" lon="5.63918">
        <ele>357.90002441406</ele>
        <time>2013-05-10T11:51:21Z</time>
      </trkpt>
      <trkpt lat="43.6289" lon="5.63936">
        <ele>350</ele>
        <time>2013-05-10T11:51:48Z</time>
      </trkpt>
      <trkpt lat="43.62846" lon="5.63929">
        <ele>349.79998779297</ele>
        <time>2013-05-10T11:52:22Z</time>
      </trkpt>
      <trkpt lat="43.62806" lon="5.63941">
        <ele>339</ele>
        <time>2013-05-10T11:52:55Z</time>
      </trkpt>
      <trkpt lat="43.62781" lon="5.63959">
        <ele>329.20001220703</ele>
        <time>2013-05-10T11:53:18Z</time>
      </trkpt>
      <trkpt lat="43.62739" lon="5.63996">
        <ele>342.09997558594</ele>
        <time>2013-05-10T11:53:44Z</time>
      </trkpt>
      <trkpt lat="43.62647" lon="5.64072">
        <ele>340.09997558594</ele>
        <time>2013-05-10T11:54:12Z</time>
      </trkpt>
      <trkpt lat="43.62619" lon="5.6411">
        <ele>338.29998779297</ele>
        <time>2013-05-10T11:54:40Z</time>
      </trkpt>
      <trkpt lat="43.62581" lon="5.64143">
        <ele>344.79998779297</ele>
        <time>2013-05-10T11:55:12Z</time>
      </trkpt>
      <trkpt lat="43.62549" lon="5.64156">
        <ele>335.09997558594</ele>
        <time>2013-05-10T11:55:45Z</time>
      </trkpt>
      <trkpt lat="43.62514" lon="5.64168">
        <ele>336.09997558594</ele>
        <time>2013-05-10T11:56:17Z</time>
      </trkpt>
      <trkpt lat="43.62521" lon="5.64152">
        <ele>337</ele>
        <time>2013-05-10T11:57:16Z</time>
      </trkpt>
      <trkpt lat="43.62514" lon="5.64164">
        <ele>338.20001220703</ele>
        <time>2013-05-10T11:57:48Z</time>
      </trkpt>
      <trkpt lat="43.62487" lon="5.64151">
        <ele>345.40002441406</ele>
        <time>2013-05-10T11:58:43Z</time>
      </trkpt>
      <trkpt lat="43.62429" lon="5.64153">
        <ele>340.20001220703</ele>
        <time>2013-05-10T11:59:06Z</time>
      </trkpt>
      <trkpt lat="43.62405" lon="5.64158">
        <ele>350.09997558594</ele>
        <time>2013-05-10T11:59:30Z</time>
      </trkpt>
      <trkpt lat="43.62373" lon="5.64177">
        <ele>361.5</ele>
        <time>2013-05-10T12:00:05Z</time>
      </trkpt>
      <trkpt lat="43.62332" lon="5.64191">
        <ele>369.29998779297</ele>
        <time>2013-05-10T12:00:39Z</time>
      </trkpt>
      <trkpt lat="43.62288" lon="5.64206">
        <ele>371.29998779297</ele>
        <time>2013-05-10T12:01:14Z</time>
      </trkpt>
      <trkpt lat="43.62252" lon="5.64211">
        <ele>362.90002441406</ele>
        <time>2013-05-10T12:01:48Z</time>
      </trkpt>
      <trkpt lat="43.6221" lon="5.6424">
        <ele>376.59997558594</ele>
        <time>2013-05-10T12:02:23Z</time>
      </trkpt>
      <trkpt lat="43.62171" lon="5.6424">
        <ele>368.59997558594</ele>
        <time>2013-05-10T12:02:57Z</time>
      </trkpt>
      <trkpt lat="43.62132" lon="5.64224">
        <ele>370.59997558594</ele>
        <time>2013-05-10T12:03:31Z</time>
      </trkpt>
      <trkpt lat="43.62075" lon="5.64197">
        <ele>380.09997558594</ele>
        <time>2013-05-10T12:04:05Z</time>
      </trkpt>
      <trkpt lat="43.62021" lon="5.64198">
        <ele>377.29998779297</ele>
        <time>2013-05-10T12:04:39Z</time>
      </trkpt>
      <trkpt lat="43.61982" lon="5.6424">
        <ele>370.09997558594</ele>
        <time>2013-05-10T12:05:12Z</time>
      </trkpt>
      <trkpt lat="43.61932" lon="5.64276">
        <ele>373.90002441406</ele>
        <time>2013-05-10T12:05:47Z</time>
      </trkpt>
      <trkpt lat="43.61883" lon="5.64315">
        <ele>381</ele>
        <time>2013-05-10T12:06:21Z</time>
      </trkpt>
      <trkpt lat="43.61838" lon="5.64348">
        <ele>384</ele>
        <time>2013-05-10T12:06:56Z</time>
      </trkpt>
      <trkpt lat="43.618" lon="5.64372">
        <ele>386</ele>
        <time>2013-05-10T12:07:30Z</time>
      </trkpt>
      <trkpt lat="43.61758" lon="5.64391">
        <ele>386.20001220703</ele>
        <time>2013-05-10T12:08:04Z</time>
      </trkpt>
      <trkpt lat="43.6172" lon="5.64406">
        <ele>381.40002441406</ele>
        <time>2013-05-10T12:08:38Z</time>
      </trkpt>
      <trkpt lat="43.61668" lon="5.64448">
        <ele>392.59997558594</ele>
        <time>2013-05-10T12:09:12Z</time>
      </trkpt>
      <trkpt lat="43.61639" lon="5.64502">
        <ele>390.40002441406</ele>
        <time>2013-05-10T12:09:47Z</time>
      </trkpt>
      <trkpt lat="43.61595" lon="5.64517">
        <ele>393.20001220703</ele>
        <time>2013-05-10T12:10:21Z</time>
      </trkpt>
      <trkpt lat="43.61549" lon="5.64478">
        <ele>391.29998779297</ele>
        <time>2013-05-10T12:10:55Z</time>
      </trkpt>
      <trkpt lat="43.61495" lon="5.64455">
        <ele>404</ele>
        <time>2013-05-10T12:11:29Z</time>
      </trkpt>
      <trkpt lat="43.61451" lon="5.64469">
        <ele>400.09997558594</ele>
        <time>2013-05-10T12:12:03Z</time>
      </trkpt>
      <trkpt lat="43.61401" lon="5.64463">
        <ele>408.20001220703</ele>
        <time>2013-05-10T12:12:37Z</time>
      </trkpt>
      <trkpt lat="43.61357" lon="5.64472">
        <ele>404.5</ele>
        <time>2013-05-10T12:13:11Z</time>
      </trkpt>
      <trkpt lat="43.61313" lon="5.64483">
        <ele>413.70001220703</ele>
        <time>2013-05-10T12:13:45Z</time>
      </trkpt>
      <trkpt lat="43.61264" lon="5.64492">
        <ele>420.5</ele>
        <time>2013-05-10T12:14:19Z</time>
      </trkpt>
      <trkpt lat="43.61132" lon="5.64732">
        <ele>403.40002441406</ele>
        <time>2013-05-10T12:18:37Z</time>
      </trkpt>
      <trkpt lat="43.61136" lon="5.64777">
        <ele>402.59997558594</ele>
        <time>2013-05-10T12:19:00Z</time>
      </trkpt>
      <trkpt lat="43.61136" lon="5.64828">
        <ele>402</ele>
        <time>2013-05-10T12:19:23Z</time>
      </trkpt>
      <trkpt lat="43.61144" lon="5.64875">
        <ele>396.29998779297</ele>
        <time>2013-05-10T12:19:46Z</time>
      </trkpt>
      <trkpt lat="43.61137" lon="5.64906">
        <ele>400.79998779297</ele>
        <time>2013-05-10T12:20:08Z</time>
      </trkpt>
      <trkpt lat="43.61121" lon="5.64898">
        <ele>410.90002441406</ele>
        <time>2013-05-10T12:20:34Z</time>
      </trkpt>
      <trkpt lat="43.61075" lon="5.64893">
        <ele>418.90002441406</ele>
        <time>2013-05-10T12:21:03Z</time>
      </trkpt>
      <trkpt lat="43.61046" lon="5.6485">
        <ele>426.29998779297</ele>
        <time>2013-05-10T12:21:34Z</time>
      </trkpt>
      <trkpt lat="43.61002" lon="5.64845">
        <ele>430.59997558594</ele>
        <time>2013-05-10T12:22:04Z</time>
      </trkpt>
      <trkpt lat="43.60972" lon="5.64886">
        <ele>415.5</ele>
        <time>2013-05-10T12:22:27Z</time>
      </trkpt>
      <trkpt lat="43.60945" lon="5.64915">
        <ele>435.90002441406</ele>
        <time>2013-05-10T12:22:50Z</time>
      </trkpt>
      <trkpt lat="43.60914" lon="5.64946">
        <ele>434.29998779297</ele>
        <time>2013-05-10T12:23:14Z</time>
      </trkpt>
      <trkpt lat="43.60895" lon="5.64976">
        <ele>437.29998779297</ele>
        <time>2013-05-10T12:23:37Z</time>
      </trkpt>
      <trkpt lat="43.60863" lon="5.65008">
        <ele>432.70001220703</ele>
        <time>2013-05-10T12:24:03Z</time>
      </trkpt>
      <trkpt lat="43.60825" lon="5.65035">
        <ele>434.59997558594</ele>
        <time>2013-05-10T12:24:36Z</time>
      </trkpt>
      <trkpt lat="43.60788" lon="5.65049">
        <ele>418.90002441406</ele>
        <time>2013-05-10T12:25:07Z</time>
      </trkpt>
      <trkpt lat="43.60746" lon="5.65061">
        <ele>428.40002441406</ele>
        <time>2013-05-10T12:25:35Z</time>
      </trkpt>
      <trkpt lat="43.60704" lon="5.65065">
        <ele>443.29998779297</ele>
        <time>2013-05-10T12:26:01Z</time>
      </trkpt>
      <trkpt lat="43.60659" lon="5.65072">
        <ele>432.5</ele>
        <time>2013-05-10T12:26:33Z</time>
      </trkpt>
      <trkpt lat="43.60619" lon="5.65082">
        <ele>426.20001220703</ele>
        <time>2013-05-10T12:26:58Z</time>
      </trkpt>
      <trkpt lat="43.60595" lon="5.65076">
        <ele>423.70001220703</ele>
        <time>2013-05-10T12:27:24Z</time>
      </trkpt>
      <trkpt lat="43.60556" lon="5.65059">
        <ele>435.09997558594</ele>
        <time>2013-05-10T12:27:46Z</time>
      </trkpt>
      <trkpt lat="43.60527" lon="5.65044">
        <ele>422.79998779297</ele>
        <time>2013-05-10T12:28:11Z</time>
      </trkpt>
      <trkpt lat="43.60493" lon="5.65007">
        <ele>412.79998779297</ele>
        <time>2013-05-10T12:28:40Z</time>
      </trkpt>
      <trkpt lat="43.6047" lon="5.64973">
        <ele>404.90002441406</ele>
        <time>2013-05-10T12:29:02Z</time>
      </trkpt>
      <trkpt lat="43.60442" lon="5.64935">
        <ele>426.59997558594</ele>
        <time>2013-05-10T12:29:30Z</time>
      </trkpt>
      <trkpt lat="43.60429" lon="5.64894">
        <ele>425.59997558594</ele>
        <time>2013-05-10T12:29:53Z</time>
      </trkpt>
      <trkpt lat="43.60395" lon="5.64904">
        <ele>421.59997558594</ele>
        <time>2013-05-10T12:30:17Z</time>
      </trkpt>
      <trkpt lat="43.60377" lon="5.64884">
        <ele>429.79998779297</ele>
        <time>2013-05-10T12:30:41Z</time>
      </trkpt>
      <trkpt lat="43.60354" lon="5.64841">
        <ele>414.5</ele>
        <time>2013-05-10T12:31:09Z</time>
      </trkpt>
      <trkpt lat="43.60298" lon="5.64831">
        <ele>425.59997558594</ele>
        <time>2013-05-10T12:31:32Z</time>
      </trkpt>
      <trkpt lat="43.60222" lon="5.6483">
        <ele>421.90002441406</ele>
        <time>2013-05-10T12:31:56Z</time>
      </trkpt>
      <trkpt lat="43.60178" lon="5.64844">
        <ele>425.40002441406</ele>
        <time>2013-05-10T12:32:28Z</time>
      </trkpt>
      <trkpt lat="43.60141" lon="5.64872">
        <ele>431.09997558594</ele>
        <time>2013-05-10T12:32:56Z</time>
      </trkpt>
      <trkpt lat="43.60092" lon="5.64879">
        <ele>425.90002441406</ele>
        <time>2013-05-10T12:33:21Z</time>
      </trkpt>
      <trkpt lat="43.60063" lon="5.64895">
        <ele>425.09997558594</ele>
        <time>2013-05-10T12:33:48Z</time>
      </trkpt>
      <trkpt lat="43.60031" lon="5.64896">
        <ele>430.09997558594</ele>
        <time>2013-05-10T12:34:10Z</time>
      </trkpt>
      <trkpt lat="43.59987" lon="5.64891">
        <ele>442.40002441406</ele>
        <time>2013-05-10T12:34:34Z</time>
      </trkpt>
      <trkpt lat="43.59951" lon="5.64903">
        <ele>430</ele>
        <time>2013-05-10T12:35:05Z</time>
      </trkpt>
      <trkpt lat="43.59902" lon="5.64911">
        <ele>423.79998779297</ele>
        <time>2013-05-10T12:35:34Z</time>
      </trkpt>
      <trkpt lat="43.59854" lon="5.64913">
        <ele>433.40002441406</ele>
        <time>2013-05-10T12:36:05Z</time>
      </trkpt>
      <trkpt lat="43.59799" lon="5.64939">
        <ele>437.40002441406</ele>
        <time>2013-05-10T12:36:28Z</time>
      </trkpt>
      <trkpt lat="43.59689" lon="5.65014">
        <ele>424.5</ele>
        <time>2013-05-10T12:36:51Z</time>
      </trkpt>
      <trkpt lat="43.59638" lon="5.65068">
        <ele>428.29998779297</ele>
        <time>2013-05-10T12:37:15Z</time>
      </trkpt>
      <trkpt lat="43.59603" lon="5.65089">
        <ele>435</ele>
        <time>2013-05-10T12:37:40Z</time>
      </trkpt>
      <trkpt lat="43.59565" lon="5.65096">
        <ele>420.20001220703</ele>
        <time>2013-05-10T12:38:08Z</time>
      </trkpt>
      <trkpt lat="43.5952" lon="5.65135">
        <ele>411.09997558594</ele>
        <time>2013-05-10T12:38:32Z</time>
      </trkpt>
      <trkpt lat="43.59497" lon="5.65176">
        <ele>437.40002441406</ele>
        <time>2013-05-10T12:39:07Z</time>
      </trkpt>
      <trkpt lat="43.5945" lon="5.65212">
        <ele>433.59997558594</ele>
        <time>2013-05-10T12:39:41Z</time>
      </trkpt>
      <trkpt lat="43.59412" lon="5.65238">
        <ele>441.40002441406</ele>
        <time>2013-05-10T12:40:10Z</time>
      </trkpt>
      <trkpt lat="43.59372" lon="5.65271">
        <ele>425</ele>
        <time>2013-05-10T12:40:38Z</time>
      </trkpt>
      <trkpt lat="43.59343" lon="5.65294">
        <ele>433.09997558594</ele>
        <time>2013-05-10T12:41:02Z</time>
      </trkpt>
      <trkpt lat="43.59294" lon="5.65328">
        <ele>422.09997558594</ele>
        <time>2013-05-10T12:41:37Z</time>
      </trkpt>
      <trkpt lat="43.59254" lon="5.6536">
        <ele>435.90002441406</ele>
        <time>2013-05-10T12:42:10Z</time>
      </trkpt>
      <trkpt lat="43.59221" lon="5.65392">
        <ele>433.40002441406</ele>
        <time>2013-05-10T12:42:35Z</time>
      </trkpt>
      <trkpt lat="43.5917" lon="5.65416">
        <ele>432.20001220703</ele>
        <time>2013-05-10T12:43:08Z</time>
      </trkpt>
      <trkpt lat="43.5913" lon="5.65431">
        <ele>441</ele>
        <time>2013-05-10T12:43:38Z</time>
      </trkpt>
      <trkpt lat="43.59093" lon="5.65441">
        <ele>428.09997558594</ele>
        <time>2013-05-10T12:44:03Z</time>
      </trkpt>
      <trkpt lat="43.59041" lon="5.65452">
        <ele>432</ele>
        <time>2013-05-10T12:44:34Z</time>
      </trkpt>
      <trkpt lat="43.58968" lon="5.65439">
        <ele>445.70001220703</ele>
        <time>2013-05-10T12:45:00Z</time>
      </trkpt>
      <trkpt lat="43.58886" lon="5.65498">
        <ele>432.79998779297</ele>
        <time>2013-05-10T12:45:25Z</time>
      </trkpt>
      <trkpt lat="43.58863" lon="5.65601">
        <ele>417.5</ele>
        <time>2013-05-10T12:45:48Z</time>
      </trkpt>
      <trkpt lat="43.58798" lon="5.65677">
        <ele>422.40002441406</ele>
        <time>2013-05-10T12:46:12Z</time>
      </trkpt>
      <trkpt lat="43.5877" lon="5.65716">
        <ele>412.70001220703</ele>
        <time>2013-05-10T12:46:36Z</time>
      </trkpt>
      <trkpt lat="43.58761" lon="5.65741">
        <ele>409.5</ele>
        <time>2013-05-10T12:46:58Z</time>
      </trkpt>
      <trkpt lat="43.58733" lon="5.65792">
        <ele>407.59997558594</ele>
        <time>2013-05-10T12:47:22Z</time>
      </trkpt>
      <trkpt lat="43.58664" lon="5.6582">
        <ele>428.90002441406</ele>
        <time>2013-05-10T12:47:45Z</time>
      </trkpt>
      <trkpt lat="43.58632" lon="5.65767">
        <ele>439.40002441406</ele>
        <time>2013-05-10T12:48:20Z</time>
      </trkpt>
      <trkpt lat="43.58641" lon="5.65714">
        <ele>454.79998779297</ele>
        <time>2013-05-10T12:48:46Z</time>
      </trkpt>
      <trkpt lat="43.5866" lon="5.65674">
        <ele>452.70001220703</ele>
        <time>2013-05-10T12:49:09Z</time>
      </trkpt>
      <trkpt lat="43.58662" lon="5.65618">
        <ele>452.59997558594</ele>
        <time>2013-05-10T12:49:39Z</time>
      </trkpt>
      <trkpt lat="43.58646" lon="5.65563">
        <ele>459.29998779297</ele>
        <time>2013-05-10T12:50:09Z</time>
      </trkpt>
      <trkpt lat="43.58626" lon="5.65502">
        <ele>447.90002441406</ele>
        <time>2013-05-10T12:50:39Z</time>
      </trkpt>
      <trkpt lat="43.5862" lon="5.65448">
        <ele>453.29998779297</ele>
        <time>2013-05-10T12:51:08Z</time>
      </trkpt>
      <trkpt lat="43.58613" lon="5.65404">
        <ele>435.29998779297</ele>
        <time>2013-05-10T12:51:31Z</time>
      </trkpt>
      <trkpt lat="43.58592" lon="5.65359">
        <ele>440.20001220703</ele>
        <time>2013-05-10T12:51:55Z</time>
      </trkpt>
      <trkpt lat="43.58574" lon="5.65332">
        <ele>459.40002441406</ele>
        <time>2013-05-10T12:52:23Z</time>
      </trkpt>
      <trkpt lat="43.58547" lon="5.65209">
        <ele>481.59997558594</ele>
        <time>2013-05-10T12:52:48Z</time>
      </trkpt>
      <trkpt lat="43.58513" lon="5.65144">
        <ele>440.59997558594</ele>
        <time>2013-05-10T12:53:13Z</time>
      </trkpt>
      <trkpt lat="43.58506" lon="5.64944">
        <ele>449.29998779297</ele>
        <time>2013-05-10T12:53:39Z</time>
      </trkpt>
      <trkpt lat="43.58472" lon="5.64948">
        <ele>467.20001220703</ele>
        <time>2013-05-10T12:54:05Z</time>
      </trkpt>
      <trkpt lat="43.58431" lon="5.64954">
        <ele>478.29998779297</ele>
        <time>2013-05-10T12:54:34Z</time>
      </trkpt>
      <trkpt lat="43.58396" lon="5.64959">
        <ele>496.90002441406</ele>
        <time>2013-05-10T12:55:04Z</time>
      </trkpt>
      <trkpt lat="43.58347" lon="5.64988">
        <ele>505.40002441406</ele>
        <time>2013-05-10T12:55:33Z</time>
      </trkpt>
      <trkpt lat="43.58322" lon="5.65026">
        <ele>500.09997558594</ele>
        <time>2013-05-10T12:55:58Z</time>
      </trkpt>
      <trkpt lat="43.58319" lon="5.65085">
        <ele>507.20001220703</ele>
        <time>2013-05-10T12:56:30Z</time>
      </trkpt>
      <trkpt lat="43.58287" lon="5.65111">
        <ele>509</ele>
        <time>2013-05-10T12:56:59Z</time>
      </trkpt>
      <trkpt lat="43.58253" lon="5.65119">
        <ele>524.09997558594</ele>
        <time>2013-05-10T12:57:28Z</time>
      </trkpt>
      <trkpt lat="43.58215" lon="5.65142">
        <ele>522.59997558594</ele>
        <time>2013-05-10T12:57:57Z</time>
      </trkpt>
      <trkpt lat="43.58177" lon="5.65171">
        <ele>531.69995117188</ele>
        <time>2013-05-10T12:58:31Z</time>
      </trkpt>
      <trkpt lat="43.58149" lon="5.65214">
        <ele>540.30004882812</ele>
        <time>2013-05-10T12:59:02Z</time>
      </trkpt>
      <trkpt lat="43.58124" lon="5.6525">
        <ele>547.30004882812</ele>
        <time>2013-05-10T12:59:30Z</time>
      </trkpt>
      <trkpt lat="43.58109" lon="5.6529">
        <ele>558.19995117188</ele>
        <time>2013-05-10T12:59:57Z</time>
      </trkpt>
      <trkpt lat="43.58078" lon="5.65315">
        <ele>557.40002441406</ele>
        <time>2013-05-10T13:00:31Z</time>
      </trkpt>
      <trkpt lat="43.58043" lon="5.65329">
        <ele>573.30004882812</ele>
        <time>2013-05-10T13:00:58Z</time>
      </trkpt>
      <trkpt lat="43.58034" lon="5.65374">
        <ele>555.19995117188</ele>
        <time>2013-05-10T13:01:25Z</time>
      </trkpt>
      <trkpt lat="43.58017" lon="5.65426">
        <ele>571.30004882812</ele>
        <time>2013-05-10T13:01:54Z</time>
      </trkpt>
      <trkpt lat="43.58007" lon="5.65422">
        <ele>570.19995117188</ele>
        <time>2013-05-10T13:02:25Z</time>
      </trkpt>
      <trkpt lat="43.57964" lon="5.65407">
        <ele>580.40002441406</ele>
        <time>2013-05-10T13:02:56Z</time>
      </trkpt>
      <trkpt lat="43.57953" lon="5.65423">
        <ele>591.90002441406</ele>
        <time>2013-05-10T13:03:31Z</time>
      </trkpt>
      <trkpt lat="43.57963" lon="5.65409">
        <ele>601.90002441406</ele>
        <time>2013-05-10T13:04:06Z</time>
      </trkpt>
      <trkpt lat="43.57953" lon="5.65413">
        <ele>596.30004882812</ele>
        <time>2013-05-10T13:04:40Z</time>
      </trkpt>
      <trkpt lat="43.57942" lon="5.654">
        <ele>567.19995117188</ele>
        <time>2013-05-10T13:06:57Z</time>
      </trkpt>
      <trkpt lat="43.57948" lon="5.65411">
        <ele>585.40002441406</ele>
        <time>2013-05-10T13:07:31Z</time>
      </trkpt>
      <trkpt lat="43.57947" lon="5.65424">
        <ele>585.59997558594</ele>
        <time>2013-05-10T13:10:53Z</time>
      </trkpt>
      <trkpt lat="43.57958" lon="5.65408">
        <ele>591.09997558594</ele>
        <time>2013-05-10T13:11:20Z</time>
      </trkpt>
      <trkpt lat="43.57941" lon="5.65427">
        <ele>586.59997558594</ele>
        <time>2013-05-10T13:11:45Z</time>
      </trkpt>
      <trkpt lat="43.57935" lon="5.65446">
        <ele>593.69995117188</ele>
        <time>2013-05-10T13:12:10Z</time>
      </trkpt>
      <trkpt lat="43.57925" lon="5.65462">
        <ele>592.5</ele>
        <time>2013-05-10T13:12:39Z</time>
      </trkpt>
      <trkpt lat="43.57919" lon="5.65479">
        <ele>601.5</ele>
        <time>2013-05-10T13:13:27Z</time>
      </trkpt>
      <trkpt lat="43.57895" lon="5.65499">
        <ele>595.5</ele>
        <time>2013-05-10T13:14:02Z</time>
      </trkpt>
      <trkpt lat="43.57871" lon="5.6552">
        <ele>605.69995117188</ele>
        <time>2013-05-10T13:14:29Z</time>
      </trkpt>
      <trkpt lat="43.57857" lon="5.65545">
        <ele>618.30004882812</ele>
        <time>2013-05-10T13:15:03Z</time>
      </trkpt>
      <trkpt lat="43.57842" lon="5.65551">
        <ele>619.30004882812</ele>
        <time>2013-05-10T13:15:26Z</time>
      </trkpt>
      <trkpt lat="43.57827" lon="5.65561">
        <ele>620.5</ele>
        <time>2013-05-10T13:16:00Z</time>
      </trkpt>
      <trkpt lat="43.578" lon="5.65582">
        <ele>627</ele>
        <time>2013-05-10T13:17:38Z</time>
      </trkpt>
      <trkpt lat="43.57774" lon="5.65563">
        <ele>638.59997558594</ele>
        <time>2013-05-10T13:18:48Z</time>
      </trkpt>
      <trkpt lat="43.57775" lon="5.6555">
        <ele>625.40002441406</ele>
        <time>2013-05-10T13:19:45Z</time>
      </trkpt>
      <trkpt lat="43.57763" lon="5.65566">
        <ele>636.80004882812</ele>
        <time>2013-05-10T13:20:34Z</time>
      </trkpt>
      <trkpt lat="43.57755" lon="5.65574">
        <ele>634.69995117188</ele>
        <time>2013-05-10T13:20:58Z</time>
      </trkpt>
      <trkpt lat="43.57738" lon="5.65568">
        <ele>631.80004882812</ele>
        <time>2013-05-10T13:21:21Z</time>
      </trkpt>
      <trkpt lat="43.57733" lon="5.65582">
        <ele>644.90002441406</ele>
        <time>2013-05-10T13:21:44Z</time>
      </trkpt>
      <trkpt lat="43.57714" lon="5.65577">
        <ele>638.09997558594</ele>
        <time>2013-05-10T13:22:07Z</time>
      </trkpt>
      <trkpt lat="43.57696" lon="5.65578">
        <ele>628.69995117188</ele>
        <time>2013-05-10T13:22:30Z</time>
      </trkpt>
      <trkpt lat="43.57668" lon="5.65577">
        <ele>618.09997558594</ele>
        <time>2013-05-10T13:22:54Z</time>
      </trkpt>
      <trkpt lat="43.57646" lon="5.65583">
        <ele>611.90002441406</ele>
        <time>2013-05-10T13:23:18Z</time>
      </trkpt>
      <trkpt lat="43.57622" lon="5.65584">
        <ele>618.59997558594</ele>
        <time>2013-05-10T13:23:41Z</time>
      </trkpt>
      <trkpt lat="43.57598" lon="5.65587">
        <ele>614.5</ele>
        <time>2013-05-10T13:24:04Z</time>
      </trkpt>
      <trkpt lat="43.57576" lon="5.65588">
        <ele>606.30004882812</ele>
        <time>2013-05-10T13:24:26Z</time>
      </trkpt>
      <trkpt lat="43.57566" lon="5.65594">
        <ele>595.30004882812</ele>
        <time>2013-05-10T13:24:58Z</time>
      </trkpt>
      <trkpt lat="43.57548" lon="5.65595">
        <ele>609.80004882812</ele>
        <time>2013-05-10T13:26:49Z</time>
      </trkpt>
      <trkpt lat="43.57526" lon="5.65599">
        <ele>600</ele>
        <time>2013-05-10T13:27:11Z</time>
      </trkpt>
      <trkpt lat="43.57517" lon="5.65597">
        <ele>598.90002441406</ele>
        <time>2013-05-10T13:28:04Z</time>
      </trkpt>
      <trkpt lat="43.57506" lon="5.65591">
        <ele>594.40002441406</ele>
        <time>2013-05-10T13:28:27Z</time>
      </trkpt>
      <trkpt lat="43.57494" lon="5.65588">
        <ele>602</ele>
        <time>2013-05-10T13:28:54Z</time>
      </trkpt>
      <trkpt lat="43.57478" lon="5.65584">
        <ele>597.5</ele>
        <time>2013-05-10T13:29:17Z</time>
      </trkpt>
      <trkpt lat="43.57462" lon="5.65587">
        <ele>597.59997558594</ele>
        <time>2013-05-10T13:29:40Z</time>
      </trkpt>
      <trkpt lat="43.57447" lon="5.65592">
        <ele>592.69995117188</ele>
        <time>2013-05-10T13:30:03Z</time>
      </trkpt>
      <trkpt lat="43.57429" lon="5.65591">
        <ele>579.09997558594</ele>
        <time>2013-05-10T13:30:48Z</time>
      </trkpt>
      <trkpt lat="43.574" lon="5.65582">
        <ele>576.40002441406</ele>
        <time>2013-05-10T13:31:14Z</time>
      </trkpt>
      <trkpt lat="43.5741" lon="5.65562">
        <ele>549.19995117188</ele>
        <time>2013-05-10T13:32:08Z</time>
      </trkpt>
      <trkpt lat="43.57403" lon="5.65581">
        <ele>558.30004882812</ele>
        <time>2013-05-10T13:32:34Z</time>
      </trkpt>
      <trkpt lat="43.57393" lon="5.65593">
        <ele>574</ele>
        <time>2013-05-10T13:33:25Z</time>
      </trkpt>
      <trkpt lat="43.57397" lon="5.65604">
        <ele>574</ele>
        <time>2013-05-10T13:34:20Z</time>
      </trkpt>
      <trkpt lat="43.57395" lon="5.65656">
        <ele>574.5</ele>
        <time>2013-05-10T13:34:47Z</time>
      </trkpt>
      <trkpt lat="43.57393" lon="5.65702">
        <ele>586.30004882812</ele>
        <time>2013-05-10T13:35:10Z</time>
      </trkpt>
      <trkpt lat="43.5738" lon="5.65726">
        <ele>580.40002441406</ele>
        <time>2013-05-10T13:35:34Z</time>
      </trkpt>
      <trkpt lat="43.57365" lon="5.65754">
        <ele>576.80004882812</ele>
        <time>2013-05-10T13:35:59Z</time>
      </trkpt>
      <trkpt lat="43.57361" lon="5.6579">
        <ele>572.5</ele>
        <time>2013-05-10T13:36:22Z</time>
      </trkpt>
      <trkpt lat="43.57339" lon="5.65778">
        <ele>583.59997558594</ele>
        <time>2013-05-10T13:36:49Z</time>
      </trkpt>
      <trkpt lat="43.57336" lon="5.65822">
        <ele>588.09997558594</ele>
        <time>2013-05-10T13:37:15Z</time>
      </trkpt>
      <trkpt lat="43.57319" lon="5.65847">
        <ele>584.30004882812</ele>
        <time>2013-05-10T13:37:41Z</time>
      </trkpt>
      <trkpt lat="43.57292" lon="5.65908">
        <ele>580.19995117188</ele>
        <time>2013-05-10T13:38:06Z</time>
      </trkpt>
      <trkpt lat="43.57247" lon="5.65956">
        <ele>591.5</ele>
        <time>2013-05-10T13:38:31Z</time>
      </trkpt>
      <trkpt lat="43.57226" lon="5.65982">
        <ele>576.80004882812</ele>
        <time>2013-05-10T13:39:05Z</time>
      </trkpt>
      <trkpt lat="43.57213" lon="5.66038">
        <ele>566.40002441406</ele>
        <time>2013-05-10T13:39:40Z</time>
      </trkpt>
      <trkpt lat="43.57211" lon="5.66103">
        <ele>572.5</ele>
        <time>2013-05-10T13:40:12Z</time>
      </trkpt>
      <trkpt lat="43.57204" lon="5.66166">
        <ele>575.59997558594</ele>
        <time>2013-05-10T13:40:47Z</time>
      </trkpt>
      <trkpt lat="43.57196" lon="5.66221">
        <ele>564.09997558594</ele>
        <time>2013-05-10T13:41:20Z</time>
      </trkpt>
      <trkpt lat="43.57176" lon="5.66225">
        <ele>571</ele>
        <time>2013-05-10T13:41:44Z</time>
      </trkpt>
      <trkpt lat="43.57181" lon="5.66177">
        <ele>580.90002441406</ele>
        <time>2013-05-10T13:42:08Z</time>
      </trkpt>
      <trkpt lat="43.57168" lon="5.66123">
        <ele>584.69995117188</ele>
        <time>2013-05-10T13:42:34Z</time>
      </trkpt>
      <trkpt lat="43.57163" lon="5.66079">
        <ele>581.40002441406</ele>
        <time>2013-05-10T13:42:58Z</time>
      </trkpt>
      <trkpt lat="43.57124" lon="5.66041">
        <ele>584.09997558594</ele>
        <time>2013-05-10T13:43:31Z</time>
      </trkpt>
      <trkpt lat="43.5709" lon="5.66038">
        <ele>582.80004882812</ele>
        <time>2013-05-10T13:43:57Z</time>
      </trkpt>
      <trkpt lat="43.57078" lon="5.66059">
        <ele>573.5</ele>
        <time>2013-05-10T13:44:21Z</time>
      </trkpt>
      <trkpt lat="43.57087" lon="5.66063">
        <ele>577.80004882812</ele>
        <time>2013-05-10T13:45:12Z</time>
      </trkpt>
      <trkpt lat="43.57071" lon="5.66049">
        <ele>565.30004882812</ele>
        <time>2013-05-10T13:45:46Z</time>
      </trkpt>
      <trkpt lat="43.57051" lon="5.66054">
        <ele>583.69995117188</ele>
        <time>2013-05-10T13:46:09Z</time>
      </trkpt>
      <trkpt lat="43.57039" lon="5.66091">
        <ele>574.5</ele>
        <time>2013-05-10T13:46:33Z</time>
      </trkpt>
      <trkpt lat="43.57021" lon="5.66128">
        <ele>569</ele>
        <time>2013-05-10T13:47:05Z</time>
      </trkpt>
      <trkpt lat="43.56985" lon="5.66188">
        <ele>572.80004882812</ele>
        <time>2013-05-10T13:47:28Z</time>
      </trkpt>
      <trkpt lat="43.56935" lon="5.66297">
        <ele>576.59997558594</ele>
        <time>2013-05-10T13:47:51Z</time>
      </trkpt>
      <trkpt lat="43.56836" lon="5.66394">
        <ele>586.19995117188</ele>
        <time>2013-05-10T13:48:16Z</time>
      </trkpt>
      <trkpt lat="43.5682" lon="5.66428">
        <ele>578.5</ele>
        <time>2013-05-10T13:48:38Z</time>
      </trkpt>
      <trkpt lat="43.56794" lon="5.66478">
        <ele>586.30004882812</ele>
        <time>2013-05-10T13:49:08Z</time>
      </trkpt>
      <trkpt lat="43.56772" lon="5.66507">
        <ele>602</ele>
        <time>2013-05-10T13:49:30Z</time>
      </trkpt>
      <trkpt lat="43.56735" lon="5.6653">
        <ele>606.40002441406</ele>
        <time>2013-05-10T13:49:52Z</time>
      </trkpt>
      <trkpt lat="43.56697" lon="5.66551">
        <ele>619</ele>
        <time>2013-05-10T13:50:16Z</time>
      </trkpt>
      <trkpt lat="43.56662" lon="5.66566">
        <ele>606.90002441406</ele>
        <time>2013-05-10T13:50:50Z</time>
      </trkpt>
      <trkpt lat="43.56636" lon="5.66614">
        <ele>600</ele>
        <time>2013-05-10T13:51:24Z</time>
      </trkpt>
      <trkpt lat="43.56583" lon="5.6664">
        <ele>617</ele>
        <time>2013-05-10T13:51:56Z</time>
      </trkpt>
      <trkpt lat="43.56556" lon="5.66667">
        <ele>605.90002441406</ele>
        <time>2013-05-10T13:52:18Z</time>
      </trkpt>
      <trkpt lat="43.56541" lon="5.66714">
        <ele>611.09997558594</ele>
        <time>2013-05-10T13:52:40Z</time>
      </trkpt>
      <trkpt lat="43.56521" lon="5.66748">
        <ele>625.69995117188</ele>
        <time>2013-05-10T13:53:05Z</time>
      </trkpt>
      <trkpt lat="43.56502" lon="5.66777">
        <ele>626.90002441406</ele>
        <time>2013-05-10T13:53:27Z</time>
      </trkpt>
      <trkpt lat="43.56494" lon="5.66819">
        <ele>628.59997558594</ele>
        <time>2013-05-10T13:53:56Z</time>
      </trkpt>
      <trkpt lat="43.56481" lon="5.66833">
        <ele>632.80004882812</ele>
        <time>2013-05-10T13:55:34Z</time>
      </trkpt>
      <trkpt lat="43.5647" lon="5.66863">
        <ele>641.90002441406</ele>
        <time>2013-05-10T13:56:23Z</time>
      </trkpt>
      <trkpt lat="43.56466" lon="5.66899">
        <ele>642.09997558594</ele>
        <time>2013-05-10T13:56:49Z</time>
      </trkpt>
      <trkpt lat="43.56464" lon="5.66927">
        <ele>652.30004882812</ele>
        <time>2013-05-10T13:57:12Z</time>
      </trkpt>
      <trkpt lat="43.56447" lon="5.66952">
        <ele>665</ele>
        <time>2013-05-10T13:57:39Z</time>
      </trkpt>
      <trkpt lat="43.5644" lon="5.6699">
        <ele>660.09997558594</ele>
        <time>2013-05-10T13:58:01Z</time>
      </trkpt>
      <trkpt lat="43.56428" lon="5.67024">
        <ele>662.19995117188</ele>
        <time>2013-05-10T13:58:23Z</time>
      </trkpt>
      <trkpt lat="43.56419" lon="5.67031">
        <ele>673.5</ele>
        <time>2013-05-10T13:58:46Z</time>
      </trkpt>
      <trkpt lat="43.56421" lon="5.67018">
        <ele>663.19995117188</ele>
        <time>2013-05-10T13:59:54Z</time>
      </trkpt>
      <trkpt lat="43.56417" lon="5.67034">
        <ele>673.09997558594</ele>
        <time>2013-05-10T14:00:39Z</time>
      </trkpt>
      <trkpt lat="43.56406" lon="5.67025">
        <ele>673</ele>
        <time>2013-05-10T14:01:25Z</time>
      </trkpt>
      <trkpt lat="43.56387" lon="5.67043">
        <ele>671.19995117188</ele>
        <time>2013-05-10T14:03:42Z</time>
      </trkpt>
      <trkpt lat="43.56357" lon="5.67053">
        <ele>671.30004882812</ele>
        <time>2013-05-10T14:04:05Z</time>
      </trkpt>
      <trkpt lat="43.56318" lon="5.67029">
        <ele>648</ele>
        <time>2013-05-10T14:04:39Z</time>
      </trkpt>
      <trkpt lat="43.56277" lon="5.67">
        <ele>676.5</ele>
        <time>2013-05-10T14:05:13Z</time>
      </trkpt>
      <trkpt lat="43.56248" lon="5.66953">
        <ele>682.30004882812</ele>
        <time>2013-05-10T14:05:46Z</time>
      </trkpt>
      <trkpt lat="43.56222" lon="5.66931">
        <ele>662.30004882812</ele>
        <time>2013-05-10T14:06:14Z</time>
      </trkpt>
      <trkpt lat="43.56189" lon="5.66983">
        <ele>659</ele>
        <time>2013-05-10T14:06:47Z</time>
      </trkpt>
      <trkpt lat="43.56164" lon="5.67015">
        <ele>655.69995117188</ele>
        <time>2013-05-10T14:07:14Z</time>
      </trkpt>
      <trkpt lat="43.56147" lon="5.67052">
        <ele>649.09997558594</ele>
        <time>2013-05-10T14:07:38Z</time>
      </trkpt>
      <trkpt lat="43.56123" lon="5.67085">
        <ele>655.19995117188</ele>
        <time>2013-05-10T14:08:01Z</time>
      </trkpt>
      <trkpt lat="43.56106" lon="5.6712">
        <ele>647.30004882812</ele>
        <time>2013-05-10T14:08:24Z</time>
      </trkpt>
      <trkpt lat="43.56102" lon="5.67163">
        <ele>652.40002441406</ele>
        <time>2013-05-10T14:08:49Z</time>
      </trkpt>
      <trkpt lat="43.56093" lon="5.67187">
        <ele>643</ele>
        <time>2013-05-10T14:09:14Z</time>
      </trkpt>
      <trkpt lat="43.56067" lon="5.67219">
        <ele>664.30004882812</ele>
        <time>2013-05-10T14:09:40Z</time>
      </trkpt>
      <trkpt lat="43.56049" lon="5.67231">
        <ele>655.40002441406</ele>
        <time>2013-05-10T14:10:03Z</time>
      </trkpt>
      <trkpt lat="43.56019" lon="5.67242">
        <ele>649.69995117188</ele>
        <time>2013-05-10T14:10:33Z</time>
      </trkpt>
      <trkpt lat="43.56006" lon="5.67268">
        <ele>648.5</ele>
        <time>2013-05-10T14:10:56Z</time>
      </trkpt>
      <trkpt lat="43.55976" lon="5.67293">
        <ele>641.19995117188</ele>
        <time>2013-05-10T14:11:19Z</time>
      </trkpt>
      <trkpt lat="43.55941" lon="5.67332">
        <ele>639.19995117188</ele>
        <time>2013-05-10T14:11:53Z</time>
      </trkpt>
      <trkpt lat="43.559" lon="5.67354">
        <ele>639.19995117188</ele>
        <time>2013-05-10T14:12:18Z</time>
      </trkpt>
      <trkpt lat="43.55884" lon="5.67404">
        <ele>654.80004882812</ele>
        <time>2013-05-10T14:12:40Z</time>
      </trkpt>
      <trkpt lat="43.55863" lon="5.67439">
        <ele>655.30004882812</ele>
        <time>2013-05-10T14:13:03Z</time>
      </trkpt>
      <trkpt lat="43.55831" lon="5.67457">
        <ele>656.19995117188</ele>
        <time>2013-05-10T14:13:26Z</time>
      </trkpt>
      <trkpt lat="43.55789" lon="5.67474">
        <ele>658.90002441406</ele>
        <time>2013-05-10T14:13:50Z</time>
      </trkpt>
      <trkpt lat="43.55759" lon="5.67495">
        <ele>651.90002441406</ele>
        <time>2013-05-10T14:14:13Z</time>
      </trkpt>
      <trkpt lat="43.55731" lon="5.67515">
        <ele>637.59997558594</ele>
        <time>2013-05-10T14:14:36Z</time>
      </trkpt>
      <trkpt lat="43.55696" lon="5.67543">
        <ele>650.19995117188</ele>
        <time>2013-05-10T14:14:59Z</time>
      </trkpt>
      <trkpt lat="43.55666" lon="5.67557">
        <ele>652.5</ele>
        <time>2013-05-10T14:15:21Z</time>
      </trkpt>
      <trkpt lat="43.55629" lon="5.67565">
        <ele>653.30004882812</ele>
        <time>2013-05-10T14:15:43Z</time>
      </trkpt>
      <trkpt lat="43.55596" lon="5.67582">
        <ele>643.59997558594</ele>
        <time>2013-05-10T14:16:08Z</time>
      </trkpt>
      <trkpt lat="43.5556" lon="5.67607">
        <ele>657.90002441406</ele>
        <time>2013-05-10T14:16:31Z</time>
      </trkpt>
      <trkpt lat="43.55532" lon="5.6763">
        <ele>654.5</ele>
        <time>2013-05-10T14:16:54Z</time>
      </trkpt>
      <trkpt lat="43.55508" lon="5.67641">
        <ele>646</ele>
        <time>2013-05-10T14:17:15Z</time>
      </trkpt>
      <trkpt lat="43.55479" lon="5.67661">
        <ele>645.69995117188</ele>
        <time>2013-05-10T14:17:37Z</time>
      </trkpt>
      <trkpt lat="43.55449" lon="5.67646">
        <ele>666.40002441406</ele>
        <time>2013-05-10T14:18:01Z</time>
      </trkpt>
      <trkpt lat="43.55471" lon="5.67613">
        <ele>640.09997558594</ele>
        <time>2013-05-10T14:18:34Z</time>
      </trkpt>
      <trkpt lat="43.55476" lon="5.67579">
        <ele>650.59997558594</ele>
        <time>2013-05-10T14:19:00Z</time>
      </trkpt>
      <trkpt lat="43.55461" lon="5.67508">
        <ele>663.09997558594</ele>
        <time>2013-05-10T14:19:34Z</time>
      </trkpt>
      <trkpt lat="43.55446" lon="5.6746">
        <ele>661.09997558594</ele>
        <time>2013-05-10T14:20:09Z</time>
      </trkpt>
      <trkpt lat="43.55443" lon="5.67409">
        <ele>656.19995117188</ele>
        <time>2013-05-10T14:20:43Z</time>
      </trkpt>
      <trkpt lat="43.55448" lon="5.6734">
        <ele>677.09997558594</ele>
        <time>2013-05-10T14:21:17Z</time>
      </trkpt>
      <trkpt lat="43.55441" lon="5.67288">
        <ele>675</ele>
        <time>2013-05-10T14:21:44Z</time>
      </trkpt>
      <trkpt lat="43.55424" lon="5.67231">
        <ele>688.90002441406</ele>
        <time>2013-05-10T14:22:14Z</time>
      </trkpt>
      <trkpt lat="43.5541" lon="5.67191">
        <ele>692.80004882812</ele>
        <time>2013-05-10T14:22:40Z</time>
      </trkpt>
      <trkpt lat="43.55392" lon="5.67157">
        <ele>684.80004882812</ele>
        <time>2013-05-10T14:23:12Z</time>
      </trkpt>
      <trkpt lat="43.55346" lon="5.67133">
        <ele>691.19995117188</ele>
        <time>2013-05-10T14:23:45Z</time>
      </trkpt>
      <trkpt lat="43.55305" lon="5.67102">
        <ele>695.59997558594</ele>
        <time>2013-05-10T14:24:19Z</time>
      </trkpt>
      <trkpt lat="43.5527" lon="5.67087">
        <ele>707.59997558594</ele>
        <time>2013-05-10T14:24:53Z</time>
      </trkpt>
      <trkpt lat="43.55238" lon="5.67052">
        <ele>719.69995117188</ele>
        <time>2013-05-10T14:25:27Z</time>
      </trkpt>
      <trkpt lat="43.55219" lon="5.66997">
        <ele>702.80004882812</ele>
        <time>2013-05-10T14:26:01Z</time>
      </trkpt>
      <trkpt lat="43.55189" lon="5.66943">
        <ele>709.5</ele>
        <time>2013-05-10T14:26:36Z</time>
      </trkpt>
      <trkpt lat="43.55172" lon="5.66878">
        <ele>726.30004882812</ele>
        <time>2013-05-10T14:27:10Z</time>
      </trkpt>
      <trkpt lat="43.55145" lon="5.66844">
        <ele>721.59997558594</ele>
        <time>2013-05-10T14:27:44Z</time>
      </trkpt>
      <trkpt lat="43.55146" lon="5.66816">
        <ele>722.30004882812</ele>
        <time>2013-05-10T14:28:07Z</time>
      </trkpt>
      <trkpt lat="43.55142" lon="5.66805">
        <ele>727</ele>
        <time>2013-05-10T14:28:29Z</time>
      </trkpt>
      <trkpt lat="43.55135" lon="5.66777">
        <ele>730.5</ele>
        <time>2013-05-10T14:28:53Z</time>
      </trkpt>
      <trkpt lat="43.55119" lon="5.66752">
        <ele>730.59997558594</ele>
        <time>2013-05-10T14:29:22Z</time>
      </trkpt>
      <trkpt lat="43.55098" lon="5.66735">
        <ele>727.40002441406</ele>
        <time>2013-05-10T14:32:53Z</time>
      </trkpt>
      <trkpt lat="43.55078" lon="5.66727">
        <ele>728.5</ele>
        <time>2013-05-10T14:33:16Z</time>
      </trkpt>
      <trkpt lat="43.55061" lon="5.66712">
        <ele>726.30004882812</ele>
        <time>2013-05-10T14:33:39Z</time>
      </trkpt>
      <trkpt lat="43.55051" lon="5.66706">
        <ele>732.09997558594</ele>
        <time>2013-05-10T14:34:25Z</time>
      </trkpt>
      <trkpt lat="43.55044" lon="5.6669">
        <ele>728.80004882812</ele>
        <time>2013-05-10T14:36:22Z</time>
      </trkpt>
      <trkpt lat="43.55035" lon="5.66684">
        <ele>729.69995117188</ele>
        <time>2013-05-10T14:36:45Z</time>
      </trkpt>
      <trkpt lat="43.55027" lon="5.66669">
        <ele>729.30004882812</ele>
        <time>2013-05-10T14:37:08Z</time>
      </trkpt>
      <trkpt lat="43.55019" lon="5.66654">
        <ele>726.80004882812</ele>
        <time>2013-05-10T14:37:55Z</time>
      </trkpt>
      <trkpt lat="43.5501" lon="5.66637">
        <ele>724.69995117188</ele>
        <time>2013-05-10T14:38:18Z</time>
      </trkpt>
      <trkpt lat="43.55001" lon="5.66632">
        <ele>711.5</ele>
        <time>2013-05-10T14:39:27Z</time>
      </trkpt>
      <trkpt lat="43.54985" lon="5.66602">
        <ele>717.09997558594</ele>
        <time>2013-05-10T14:39:50Z</time>
      </trkpt>
      <trkpt lat="43.54967" lon="5.66582">
        <ele>716.40002441406</ele>
        <time>2013-05-10T14:40:11Z</time>
      </trkpt>
      <trkpt lat="43.54963" lon="5.66564">
        <ele>718</ele>
        <time>2013-05-10T14:40:33Z</time>
      </trkpt>
      <trkpt lat="43.5495" lon="5.66552">
        <ele>717.80004882812</ele>
        <time>2013-05-10T14:40:55Z</time>
      </trkpt>
      <trkpt lat="43.54933" lon="5.66539">
        <ele>709.80004882812</ele>
        <time>2013-05-10T14:41:19Z</time>
      </trkpt>
      <trkpt lat="43.54905" lon="5.66519">
        <ele>712.5</ele>
        <time>2013-05-10T14:41:43Z</time>
      </trkpt>
      <trkpt lat="43.5488" lon="5.66501">
        <ele>707.09997558594</ele>
        <time>2013-05-10T14:42:06Z</time>
      </trkpt>
      <trkpt lat="43.54856" lon="5.66497">
        <ele>704.40002441406</ele>
        <time>2013-05-10T14:42:30Z</time>
      </trkpt>
      <trkpt lat="43.54833" lon="5.66487">
        <ele>705</ele>
        <time>2013-05-10T14:42:55Z</time>
      </trkpt>
      <trkpt lat="43.54843" lon="5.66458">
        <ele>700.80004882812</ele>
        <time>2013-05-10T14:43:18Z</time>
      </trkpt>
      <trkpt lat="43.54862" lon="5.66445">
        <ele>698.80004882812</ele>
        <time>2013-05-10T14:43:41Z</time>
      </trkpt>
      <trkpt lat="43.54901" lon="5.66441">
        <ele>702</ele>
        <time>2013-05-10T14:44:15Z</time>
      </trkpt>
      <trkpt lat="43.54896" lon="5.66414">
        <ele>706</ele>
        <time>2013-05-10T14:44:43Z</time>
      </trkpt>
      <trkpt lat="43.5487" lon="5.66414">
        <ele>697.69995117188</ele>
        <time>2013-05-10T14:45:07Z</time>
      </trkpt>
      <trkpt lat="43.54837" lon="5.66406">
        <ele>699.90002441406</ele>
        <time>2013-05-10T14:45:34Z</time>
      </trkpt>
      <trkpt lat="43.54826" lon="5.664">
        <ele>698.5</ele>
        <time>2013-05-10T14:46:04Z</time>
      </trkpt>
      <trkpt lat="43.54809" lon="5.66378">
        <ele>696.80004882812</ele>
        <time>2013-05-10T14:46:31Z</time>
      </trkpt>
      <trkpt lat="43.54791" lon="5.66347">
        <ele>683.30004882812</ele>
        <time>2013-05-10T14:47:01Z</time>
      </trkpt>
      <trkpt lat="43.54783" lon="5.66332">
        <ele>683.69995117188</ele>
        <time>2013-05-10T14:47:53Z</time>
      </trkpt>
      <trkpt lat="43.54775" lon="5.66313">
        <ele>677.69995117188</ele>
        <time>2013-05-10T14:49:00Z</time>
      </trkpt>
      <trkpt lat="43.54766" lon="5.66262">
        <ele>675.5</ele>
        <time>2013-05-10T14:49:35Z</time>
      </trkpt>
      <trkpt lat="43.54788" lon="5.66238">
        <ele>669.19995117188</ele>
        <time>2013-05-10T14:50:01Z</time>
      </trkpt>
      <trkpt lat="43.54792" lon="5.66183">
        <ele>670.80004882812</ele>
        <time>2013-05-10T14:50:35Z</time>
      </trkpt>
      <trkpt lat="43.54813" lon="5.6606">
        <ele>661.40002441406</ele>
        <time>2013-05-10T14:51:10Z</time>
      </trkpt>
      <trkpt lat="43.54883" lon="5.65798">
        <ele>675.59997558594</ele>
        <time>2013-05-10T14:51:45Z</time>
      </trkpt>
      <trkpt lat="43.54903" lon="5.6575">
        <ele>668.59997558594</ele>
        <time>2013-05-10T14:52:19Z</time>
      </trkpt>
      <trkpt lat="43.54929" lon="5.65722">
        <ele>678.5</ele>
        <time>2013-05-10T14:52:45Z</time>
      </trkpt>
      <trkpt lat="43.54933" lon="5.65677">
        <ele>677.40002441406</ele>
        <time>2013-05-10T14:53:09Z</time>
      </trkpt>
      <trkpt lat="43.54953" lon="5.6562">
        <ele>677</ele>
        <time>2013-05-10T14:53:44Z</time>
      </trkpt>
      <trkpt lat="43.5496" lon="5.65563">
        <ele>683.09997558594</ele>
        <time>2013-05-10T14:54:18Z</time>
      </trkpt>
      <trkpt lat="43.54942" lon="5.65501">
        <ele>686.40002441406</ele>
        <time>2013-05-10T14:54:52Z</time>
      </trkpt>
      <trkpt lat="43.54935" lon="5.65433">
        <ele>686.09997558594</ele>
        <time>2013-05-10T14:55:27Z</time>
      </trkpt>
      <trkpt lat="43.54919" lon="5.65386">
        <ele>682.59997558594</ele>
        <time>2013-05-10T14:55:57Z</time>
      </trkpt>
      <trkpt lat="43.54887" lon="5.6536">
        <ele>694.5</ele>
        <time>2013-05-10T14:56:21Z</time>
      </trkpt>
      <trkpt lat="43.54859" lon="5.65341">
        <ele>693</ele>
        <time>2013-05-10T14:56:44Z</time>
      </trkpt>
      <trkpt lat="43.54835" lon="5.65293">
        <ele>687.69995117188</ele>
        <time>2013-05-10T14:57:14Z</time>
      </trkpt>
      <trkpt lat="43.54815" lon="5.65246">
        <ele>678.59997558594</ele>
        <time>2013-05-10T14:57:44Z</time>
      </trkpt>
      <trkpt lat="43.5482" lon="5.65183">
        <ele>674.59997558594</ele>
        <time>2013-05-10T14:58:18Z</time>
      </trkpt>
      <trkpt lat="43.5481" lon="5.65146">
        <ele>677.80004882812</ele>
        <time>2013-05-10T14:58:42Z</time>
      </trkpt>
      <trkpt lat="43.54798" lon="5.65118">
        <ele>672.30004882812</ele>
        <time>2013-05-10T14:59:07Z</time>
      </trkpt>
      <trkpt lat="43.54791" lon="5.65084">
        <ele>673.40002441406</ele>
        <time>2013-05-10T14:59:29Z</time>
      </trkpt>
      <trkpt lat="43.54805" lon="5.65022">
        <ele>666.19995117188</ele>
        <time>2013-05-10T15:00:01Z</time>
      </trkpt>
      <trkpt lat="43.54803" lon="5.64974">
        <ele>666.90002441406</ele>
        <time>2013-05-10T15:00:23Z</time>
      </trkpt>
      <trkpt lat="43.54816" lon="5.64931">
        <ele>658.19995117188</ele>
        <time>2013-05-10T15:00:52Z</time>
      </trkpt>
      <trkpt lat="43.54819" lon="5.64875">
        <ele>653.69995117188</ele>
        <time>2013-05-10T15:01:22Z</time>
      </trkpt>
      <trkpt lat="43.54784" lon="5.6483">
        <ele>655.19995117188</ele>
        <time>2013-05-10T15:01:56Z</time>
      </trkpt>
      <trkpt lat="43.54744" lon="5.64801">
        <ele>650.30004882812</ele>
        <time>2013-05-10T15:02:24Z</time>
      </trkpt>
      <trkpt lat="43.54719" lon="5.64756">
        <ele>647.90002441406</ele>
        <time>2013-05-10T15:02:54Z</time>
      </trkpt>
      <trkpt lat="43.54735" lon="5.64713">
        <ele>645.80004882812</ele>
        <time>2013-05-10T15:03:29Z</time>
      </trkpt>
      <trkpt lat="43.54774" lon="5.64658">
        <ele>646.90002441406</ele>
        <time>2013-05-10T15:04:03Z</time>
      </trkpt>
      <trkpt lat="43.54783" lon="5.64607">
        <ele>642.90002441406</ele>
        <time>2013-05-10T15:04:32Z</time>
      </trkpt>
      <trkpt lat="43.54767" lon="5.64583">
        <ele>637.59997558594</ele>
        <time>2013-05-10T15:04:54Z</time>
      </trkpt>
      <trkpt lat="43.54741" lon="5.64517">
        <ele>645</ele>
        <time>2013-05-10T15:05:28Z</time>
      </trkpt>
      <trkpt lat="43.54739" lon="5.64456">
        <ele>647.90002441406</ele>
        <time>2013-05-10T15:06:02Z</time>
      </trkpt>
      <trkpt lat="43.54747" lon="5.64391">
        <ele>644.69995117188</ele>
        <time>2013-05-10T15:06:36Z</time>
      </trkpt>
      <trkpt lat="43.54798" lon="5.64343">
        <ele>664.69995117188</ele>
        <time>2013-05-10T15:07:10Z</time>
      </trkpt>
      <trkpt lat="43.54817" lon="5.64323">
        <ele>630.09997558594</ele>
        <time>2013-05-10T15:07:35Z</time>
      </trkpt>
      <trkpt lat="43.54795" lon="5.64271">
        <ele>625.30004882812</ele>
        <time>2013-05-10T15:08:09Z</time>
      </trkpt>
      <trkpt lat="43.54748" lon="5.64244">
        <ele>627.80004882812</ele>
        <time>2013-05-10T15:08:34Z</time>
      </trkpt>
      <trkpt lat="43.54749" lon="5.64193">
        <ele>639.69995117188</ele>
        <time>2013-05-10T15:09:01Z</time>
      </trkpt>
      <trkpt lat="43.54754" lon="5.64131">
        <ele>630.69995117188</ele>
        <time>2013-05-10T15:09:36Z</time>
      </trkpt>
      <trkpt lat="43.5478" lon="5.64058">
        <ele>636.69995117188</ele>
        <time>2013-05-10T15:10:11Z</time>
      </trkpt>
      <trkpt lat="43.54815" lon="5.64017">
        <ele>629</ele>
        <time>2013-05-10T15:10:45Z</time>
      </trkpt>
      <trkpt lat="43.54808" lon="5.63958">
        <ele>638.19995117188</ele>
        <time>2013-05-10T15:11:19Z</time>
      </trkpt>
      <trkpt lat="43.54849" lon="5.63898">
        <ele>635.19995117188</ele>
        <time>2013-05-10T15:11:48Z</time>
      </trkpt>
      <trkpt lat="43.54857" lon="5.63763">
        <ele>631.5</ele>
        <time>2013-05-10T15:12:23Z</time>
      </trkpt>
      <trkpt lat="43.5486" lon="5.63701">
        <ele>631.5</ele>
        <time>2013-05-10T15:12:55Z</time>
      </trkpt>
      <trkpt lat="43.54855" lon="5.63635">
        <ele>631.5</ele>
        <time>2013-05-10T15:13:30Z</time>
      </trkpt>
      <trkpt lat="43.54852" lon="5.63568">
        <ele>631.80004882812</ele>
        <time>2013-05-10T15:14:05Z</time>
      </trkpt>
      <trkpt lat="43.54849" lon="5.63506">
        <ele>625.5</ele>
        <time>2013-05-10T15:14:39Z</time>
      </trkpt>
      <trkpt lat="43.54869" lon="5.63462">
        <ele>613</ele>
        <time>2013-05-10T15:15:03Z</time>
      </trkpt>
      <trkpt lat="43.54873" lon="5.63395">
        <ele>620.69995117188</ele>
        <time>2013-05-10T15:15:37Z</time>
      </trkpt>
      <trkpt lat="43.54864" lon="5.63327">
        <ele>618.80004882812</ele>
        <time>2013-05-10T15:16:11Z</time>
      </trkpt>
      <trkpt lat="43.54859" lon="5.63257">
        <ele>611.90002441406</ele>
        <time>2013-05-10T15:16:44Z</time>
      </trkpt>
      <trkpt lat="43.54864" lon="5.63128">
        <ele>608.40002441406</ele>
        <time>2013-05-10T15:17:08Z</time>
      </trkpt>
      <trkpt lat="43.54849" lon="5.63079">
        <ele>604.30004882812</ele>
        <time>2013-05-10T15:17:32Z</time>
      </trkpt>
      <trkpt lat="43.54863" lon="5.63032">
        <ele>610.40002441406</ele>
        <time>2013-05-10T15:17:56Z</time>
      </trkpt>
      <trkpt lat="43.54878" lon="5.62984">
        <ele>599</ele>
        <time>2013-05-10T15:18:27Z</time>
      </trkpt>
      <trkpt lat="43.54884" lon="5.62938">
        <ele>597.90002441406</ele>
        <time>2013-05-10T15:18:53Z</time>
      </trkpt>
      <trkpt lat="43.54883" lon="5.62873">
        <ele>592.40002441406</ele>
        <time>2013-05-10T15:19:26Z</time>
      </trkpt>
      <trkpt lat="43.54871" lon="5.62818">
        <ele>593.69995117188</ele>
        <time>2013-05-10T15:19:52Z</time>
      </trkpt>
      <trkpt lat="43.54859" lon="5.62743">
        <ele>596.09997558594</ele>
        <time>2013-05-10T15:20:26Z</time>
      </trkpt>
      <trkpt lat="43.54848" lon="5.62681">
        <ele>592</ele>
        <time>2013-05-10T15:20:55Z</time>
      </trkpt>
      <trkpt lat="43.54845" lon="5.62624">
        <ele>584.69995117188</ele>
        <time>2013-05-10T15:21:28Z</time>
      </trkpt>
      <trkpt lat="43.54846" lon="5.62499">
        <ele>583.19995117188</ele>
        <time>2013-05-10T15:21:53Z</time>
      </trkpt>
      <trkpt lat="43.54867" lon="5.6253">
        <ele>581.30004882812</ele>
        <time>2013-05-10T15:22:27Z</time>
      </trkpt>
      <trkpt lat="43.54897" lon="5.62537">
        <ele>582.5</ele>
        <time>2013-05-10T15:23:01Z</time>
      </trkpt>
      <trkpt lat="43.54924" lon="5.62504">
        <ele>573.19995117188</ele>
        <time>2013-05-10T15:23:35Z</time>
      </trkpt>
      <trkpt lat="43.54954" lon="5.62468">
        <ele>576.40002441406</ele>
        <time>2013-05-10T15:24:09Z</time>
      </trkpt>
      <trkpt lat="43.54987" lon="5.62447">
        <ele>564.30004882812</ele>
        <time>2013-05-10T15:24:43Z</time>
      </trkpt>
      <trkpt lat="43.55031" lon="5.62441">
        <ele>570.30004882812</ele>
        <time>2013-05-10T15:25:17Z</time>
      </trkpt>
      <trkpt lat="43.55075" lon="5.62466">
        <ele>558.59997558594</ele>
        <time>2013-05-10T15:25:52Z</time>
      </trkpt>
      <trkpt lat="43.55124" lon="5.62445">
        <ele>545.90002441406</ele>
        <time>2013-05-10T15:26:26Z</time>
      </trkpt>
      <trkpt lat="43.55156" lon="5.62436">
        <ele>528.90002441406</ele>
        <time>2013-05-10T15:27:00Z</time>
      </trkpt>
      <trkpt lat="43.55195" lon="5.62398">
        <ele>519.29998779297</ele>
        <time>2013-05-10T15:27:34Z</time>
      </trkpt>
      <trkpt lat="43.55212" lon="5.62388">
        <ele>536.69995117188</ele>
        <time>2013-05-10T15:29:16Z</time>
      </trkpt>
      <trkpt lat="43.5522" lon="5.62347">
        <ele>532.59997558594</ele>
        <time>2013-05-10T15:29:39Z</time>
      </trkpt>
      <trkpt lat="43.55223" lon="5.62288">
        <ele>524.90002441406</ele>
        <time>2013-05-10T15:30:14Z</time>
      </trkpt>
      <trkpt lat="43.55242" lon="5.62231">
        <ele>513.20001220703</ele>
        <time>2013-05-10T15:30:48Z</time>
      </trkpt>
      <trkpt lat="43.55257" lon="5.62175">
        <ele>511.59997558594</ele>
        <time>2013-05-10T15:31:21Z</time>
      </trkpt>
      <trkpt lat="43.55277" lon="5.62138">
        <ele>507.29998779297</ele>
        <time>2013-05-10T15:31:44Z</time>
      </trkpt>
      <trkpt lat="43.5528" lon="5.62099">
        <ele>496.90002441406</ele>
        <time>2013-05-10T15:32:09Z</time>
      </trkpt>
      <trkpt lat="43.55297" lon="5.62061">
        <ele>489.59997558594</ele>
        <time>2013-05-10T15:32:38Z</time>
      </trkpt>
      <trkpt lat="43.55337" lon="5.62055">
        <ele>484.59997558594</ele>
        <time>2013-05-10T15:33:10Z</time>
      </trkpt>
      <trkpt lat="43.5536" lon="5.62004">
        <ele>486.40002441406</ele>
        <time>2013-05-10T15:33:44Z</time>
      </trkpt>
      <trkpt lat="43.55393" lon="5.61949">
        <ele>492.90002441406</ele>
        <time>2013-05-10T15:34:19Z</time>
      </trkpt>
      <trkpt lat="43.55397" lon="5.61919">
        <ele>479.90002441406</ele>
        <time>2013-05-10T15:34:53Z</time>
      </trkpt>
      <trkpt lat="43.55405" lon="5.61895">
        <ele>474.09997558594</ele>
        <time>2013-05-10T15:35:19Z</time>
      </trkpt>
      <trkpt lat="43.5544" lon="5.61895">
        <ele>476.29998779297</ele>
        <time>2013-05-10T15:35:52Z</time>
      </trkpt>
      <trkpt lat="43.55458" lon="5.61906">
        <ele>474.70001220703</ele>
        <time>2013-05-10T15:36:27Z</time>
      </trkpt>
    </trkseg>
  </trk>
  <trk>
    <name><![CDATA[Rians JOUQUES 2013-05-09 10:48]]></name>
    <trkseg>
      <trkpt lat="43.63387" lon="5.79115">
        <ele>385.09997558594</ele>
        <time>2013-05-09T08:50:55Z</time>
      </trkpt>
      <trkpt lat="43.63379" lon="5.79129">
        <ele>368.09997558594</ele>
        <time>2013-05-09T08:51:29Z</time>
      </trkpt>
      <trkpt lat="43.63371" lon="5.79111">
        <ele>391.40002441406</ele>
        <time>2013-05-09T08:51:52Z</time>
      </trkpt>
      <trkpt lat="43.63371" lon="5.79066">
        <ele>383.09997558594</ele>
        <time>2013-05-09T08:53:01Z</time>
      </trkpt>
      <trkpt lat="43.6336" lon="5.79074">
        <ele>381.59997558594</ele>
        <time>2013-05-09T08:53:24Z</time>
      </trkpt>
      <trkpt lat="43.63372" lon="5.79075">
        <ele>379.20001220703</ele>
        <time>2013-05-09T08:53:51Z</time>
      </trkpt>
      <trkpt lat="43.63411" lon="5.79064">
        <ele>395</ele>
        <time>2013-05-09T08:54:21Z</time>
      </trkpt>
      <trkpt lat="43.63443" lon="5.79054">
        <ele>393.40002441406</ele>
        <time>2013-05-09T08:54:44Z</time>
      </trkpt>
      <trkpt lat="43.63478" lon="5.79069">
        <ele>408</ele>
        <time>2013-05-09T08:55:06Z</time>
      </trkpt>
      <trkpt lat="43.63512" lon="5.79044">
        <ele>387.20001220703</ele>
        <time>2013-05-09T08:55:32Z</time>
      </trkpt>
      <trkpt lat="43.63544" lon="5.79031">
        <ele>383.20001220703</ele>
        <time>2013-05-09T08:55:55Z</time>
      </trkpt>
      <trkpt lat="43.63572" lon="5.79039">
        <ele>392.5</ele>
        <time>2013-05-09T08:56:24Z</time>
      </trkpt>
      <trkpt lat="43.63588" lon="5.79051">
        <ele>379.90002441406</ele>
        <time>2013-05-09T08:56:50Z</time>
      </trkpt>
      <trkpt lat="43.63601" lon="5.7906">
        <ele>377.90002441406</ele>
        <time>2013-05-09T08:57:13Z</time>
      </trkpt>
      <trkpt lat="43.6361" lon="5.79075">
        <ele>359.29998779297</ele>
        <time>2013-05-09T08:58:58Z</time>
      </trkpt>
      <trkpt lat="43.63608" lon="5.79062">
        <ele>361.20001220703</ele>
        <time>2013-05-09T08:59:21Z</time>
      </trkpt>
      <trkpt lat="43.63605" lon="5.79085">
        <ele>370.90002441406</ele>
        <time>2013-05-09T08:59:53Z</time>
      </trkpt>
      <trkpt lat="43.63626" lon="5.79088">
        <ele>354.09997558594</ele>
        <time>2013-05-09T09:00:21Z</time>
      </trkpt>
      <trkpt lat="43.63664" lon="5.79077">
        <ele>351.70001220703</ele>
        <time>2013-05-09T09:00:47Z</time>
      </trkpt>
      <trkpt lat="43.63698" lon="5.79067">
        <ele>353.09997558594</ele>
        <time>2013-05-09T09:01:10Z</time>
      </trkpt>
      <trkpt lat="43.63732" lon="5.79058">
        <ele>349.29998779297</ele>
        <time>2013-05-09T09:01:34Z</time>
      </trkpt>
      <trkpt lat="43.63772" lon="5.79045">
        <ele>347.70001220703</ele>
        <time>2013-05-09T09:01:58Z</time>
      </trkpt>
      <trkpt lat="43.63822" lon="5.79035">
        <ele>350.09997558594</ele>
        <time>2013-05-09T09:02:27Z</time>
      </trkpt>
      <trkpt lat="43.63864" lon="5.79024">
        <ele>352.70001220703</ele>
        <time>2013-05-09T09:02:51Z</time>
      </trkpt>
      <trkpt lat="43.63895" lon="5.79019">
        <ele>351.40002441406</ele>
        <time>2013-05-09T09:03:14Z</time>
      </trkpt>
      <trkpt lat="43.63932" lon="5.79007">
        <ele>353</ele>
        <time>2013-05-09T09:03:39Z</time>
      </trkpt>
      <trkpt lat="43.63978" lon="5.78998">
        <ele>354</ele>
        <time>2013-05-09T09:04:06Z</time>
      </trkpt>
      <trkpt lat="43.64012" lon="5.78986">
        <ele>353.79998779297</ele>
        <time>2013-05-09T09:04:29Z</time>
      </trkpt>
      <trkpt lat="43.6405" lon="5.78975">
        <ele>353.29998779297</ele>
        <time>2013-05-09T09:04:53Z</time>
      </trkpt>
      <trkpt lat="43.6409" lon="5.78963">
        <ele>350.09997558594</ele>
        <time>2013-05-09T09:05:21Z</time>
      </trkpt>
      <trkpt lat="43.64138" lon="5.78954">
        <ele>357</ele>
        <time>2013-05-09T09:05:46Z</time>
      </trkpt>
      <trkpt lat="43.6419" lon="5.78937">
        <ele>352.5</ele>
        <time>2013-05-09T09:06:20Z</time>
      </trkpt>
      <trkpt lat="43.64222" lon="5.78916">
        <ele>351</ele>
        <time>2013-05-09T09:06:48Z</time>
      </trkpt>
      <trkpt lat="43.64242" lon="5.78912">
        <ele>353.09997558594</ele>
        <time>2013-05-09T09:07:19Z</time>
      </trkpt>
      <trkpt lat="43.6428" lon="5.78876">
        <ele>361.79998779297</ele>
        <time>2013-05-09T09:07:53Z</time>
      </trkpt>
      <trkpt lat="43.64305" lon="5.78823">
        <ele>372</ele>
        <time>2013-05-09T09:08:28Z</time>
      </trkpt>
      <trkpt lat="43.64316" lon="5.78757">
        <ele>370</ele>
        <time>2013-05-09T09:09:03Z</time>
      </trkpt>
      <trkpt lat="43.64347" lon="5.78712">
        <ele>371.29998779297</ele>
        <time>2013-05-09T09:09:37Z</time>
      </trkpt>
      <trkpt lat="43.64396" lon="5.78694">
        <ele>375.90002441406</ele>
        <time>2013-05-09T09:10:12Z</time>
      </trkpt>
      <trkpt lat="43.64435" lon="5.78654">
        <ele>372</ele>
        <time>2013-05-09T09:10:43Z</time>
      </trkpt>
      <trkpt lat="43.64473" lon="5.78638">
        <ele>374.5</ele>
        <time>2013-05-09T09:11:16Z</time>
      </trkpt>
      <trkpt lat="43.64504" lon="5.78618">
        <ele>385.20001220703</ele>
        <time>2013-05-09T09:11:52Z</time>
      </trkpt>
      <trkpt lat="43.64518" lon="5.78636">
        <ele>380.09997558594</ele>
        <time>2013-05-09T09:12:21Z</time>
      </trkpt>
      <trkpt lat="43.64565" lon="5.78641">
        <ele>381.20001220703</ele>
        <time>2013-05-09T09:12:54Z</time>
      </trkpt>
      <trkpt lat="43.64612" lon="5.78646">
        <ele>384.90002441406</ele>
        <time>2013-05-09T09:13:28Z</time>
      </trkpt>
      <trkpt lat="43.64658" lon="5.78661">
        <ele>382.40002441406</ele>
        <time>2013-05-09T09:14:02Z</time>
      </trkpt>
      <trkpt lat="43.64711" lon="5.78685">
        <ele>389.29998779297</ele>
        <time>2013-05-09T09:14:36Z</time>
      </trkpt>
      <trkpt lat="43.64752" lon="5.78702">
        <ele>385.90002441406</ele>
        <time>2013-05-09T09:15:11Z</time>
      </trkpt>
      <trkpt lat="43.64776" lon="5.78746">
        <ele>402.70001220703</ele>
        <time>2013-05-09T09:15:45Z</time>
      </trkpt>
      <trkpt lat="43.64811" lon="5.78758">
        <ele>393.20001220703</ele>
        <time>2013-05-09T09:16:08Z</time>
      </trkpt>
      <trkpt lat="43.64832" lon="5.78773">
        <ele>398.20001220703</ele>
        <time>2013-05-09T09:16:40Z</time>
      </trkpt>
      <trkpt lat="43.6482" lon="5.78815">
        <ele>402.70001220703</ele>
        <time>2013-05-09T09:17:09Z</time>
      </trkpt>
      <trkpt lat="43.64842" lon="5.78832">
        <ele>404</ele>
        <time>2013-05-09T09:17:34Z</time>
      </trkpt>
      <trkpt lat="43.64872" lon="5.78811">
        <ele>409.59997558594</ele>
        <time>2013-05-09T09:18:05Z</time>
      </trkpt>
      <trkpt lat="43.64913" lon="5.78819">
        <ele>401.90002441406</ele>
        <time>2013-05-09T09:18:31Z</time>
      </trkpt>
      <trkpt lat="43.64951" lon="5.7882">
        <ele>400.79998779297</ele>
        <time>2013-05-09T09:19:00Z</time>
      </trkpt>
      <trkpt lat="43.6498" lon="5.78791">
        <ele>412</ele>
        <time>2013-05-09T09:19:35Z</time>
      </trkpt>
      <trkpt lat="43.64998" lon="5.78766">
        <ele>390</ele>
        <time>2013-05-09T09:19:59Z</time>
      </trkpt>
      <trkpt lat="43.65016" lon="5.78702">
        <ele>392.79998779297</ele>
        <time>2013-05-09T09:20:33Z</time>
      </trkpt>
      <trkpt lat="43.65014" lon="5.78629">
        <ele>407.59997558594</ele>
        <time>2013-05-09T09:21:08Z</time>
      </trkpt>
      <trkpt lat="43.64996" lon="5.78574">
        <ele>417.59997558594</ele>
        <time>2013-05-09T09:21:41Z</time>
      </trkpt>
      <trkpt lat="43.64969" lon="5.78499">
        <ele>426.20001220703</ele>
        <time>2013-05-09T09:22:13Z</time>
      </trkpt>
      <trkpt lat="43.64958" lon="5.78465">
        <ele>409.70001220703</ele>
        <time>2013-05-09T09:22:41Z</time>
      </trkpt>
      <trkpt lat="43.64969" lon="5.78414">
        <ele>405.29998779297</ele>
        <time>2013-05-09T09:23:07Z</time>
      </trkpt>
      <trkpt lat="43.64976" lon="5.78364">
        <ele>408</ele>
        <time>2013-05-09T09:23:33Z</time>
      </trkpt>
      <trkpt lat="43.64986" lon="5.78317">
        <ele>401.29998779297</ele>
        <time>2013-05-09T09:23:56Z</time>
      </trkpt>
      <trkpt lat="43.64999" lon="5.7828">
        <ele>403.5</ele>
        <time>2013-05-09T09:24:19Z</time>
      </trkpt>
      <trkpt lat="43.6498" lon="5.78213">
        <ele>421.5</ele>
        <time>2013-05-09T09:24:50Z</time>
      </trkpt>
      <trkpt lat="43.64964" lon="5.78156">
        <ele>414.90002441406</ele>
        <time>2013-05-09T09:25:20Z</time>
      </trkpt>
      <trkpt lat="43.6496" lon="5.78106">
        <ele>403.09997558594</ele>
        <time>2013-05-09T09:25:45Z</time>
      </trkpt>
      <trkpt lat="43.64926" lon="5.78068">
        <ele>431.79998779297</ele>
        <time>2013-05-09T09:26:15Z</time>
      </trkpt>
      <trkpt lat="43.64962" lon="5.78043">
        <ele>400.20001220703</ele>
        <time>2013-05-09T09:26:39Z</time>
      </trkpt>
      <trkpt lat="43.64992" lon="5.78006">
        <ele>426.29998779297</ele>
        <time>2013-05-09T09:27:10Z</time>
      </trkpt>
      <trkpt lat="43.6504" lon="5.77974">
        <ele>398.59997558594</ele>
        <time>2013-05-09T09:27:42Z</time>
      </trkpt>
      <trkpt lat="43.65064" lon="5.77931">
        <ele>410.59997558594</ele>
        <time>2013-05-09T09:28:12Z</time>
      </trkpt>
      <trkpt lat="43.65071" lon="5.77884">
        <ele>400.40002441406</ele>
        <time>2013-05-09T09:28:38Z</time>
      </trkpt>
      <trkpt lat="43.65098" lon="5.77822">
        <ele>394.40002441406</ele>
        <time>2013-05-09T09:29:10Z</time>
      </trkpt>
      <trkpt lat="43.65127" lon="5.7779">
        <ele>402.59997558594</ele>
        <time>2013-05-09T09:29:36Z</time>
      </trkpt>
      <trkpt lat="43.65167" lon="5.77758">
        <ele>391.5</ele>
        <time>2013-05-09T09:30:00Z</time>
      </trkpt>
      <trkpt lat="43.6519" lon="5.77743">
        <ele>411.20001220703</ele>
        <time>2013-05-09T09:30:25Z</time>
      </trkpt>
      <trkpt lat="43.65221" lon="5.77728">
        <ele>392.40002441406</ele>
        <time>2013-05-09T09:30:48Z</time>
      </trkpt>
      <trkpt lat="43.65262" lon="5.77717">
        <ele>395.29998779297</ele>
        <time>2013-05-09T09:31:12Z</time>
      </trkpt>
      <trkpt lat="43.65294" lon="5.77697">
        <ele>388.09997558594</ele>
        <time>2013-05-09T09:31:37Z</time>
      </trkpt>
      <trkpt lat="43.65323" lon="5.77657">
        <ele>387.29998779297</ele>
        <time>2013-05-09T09:32:11Z</time>
      </trkpt>
      <trkpt lat="43.65366" lon="5.77616">
        <ele>422.59997558594</ele>
        <time>2013-05-09T09:32:45Z</time>
      </trkpt>
      <trkpt lat="43.65396" lon="5.77624">
        <ele>434.29998779297</ele>
        <time>2013-05-09T09:33:10Z</time>
      </trkpt>
      <trkpt lat="43.65434" lon="5.77647">
        <ele>432.40002441406</ele>
        <time>2013-05-09T09:33:38Z</time>
      </trkpt>
      <trkpt lat="43.6547" lon="5.77659">
        <ele>433.90002441406</ele>
        <time>2013-05-09T09:34:03Z</time>
      </trkpt>
      <trkpt lat="43.65498" lon="5.77677">
        <ele>432.29998779297</ele>
        <time>2013-05-09T09:34:26Z</time>
      </trkpt>
      <trkpt lat="43.65548" lon="5.77645">
        <ele>389.40002441406</ele>
        <time>2013-05-09T09:34:59Z</time>
      </trkpt>
      <trkpt lat="43.65634" lon="5.77597">
        <ele>382.5</ele>
        <time>2013-05-09T09:35:33Z</time>
      </trkpt>
      <trkpt lat="43.65717" lon="5.77548">
        <ele>390</ele>
        <time>2013-05-09T09:35:58Z</time>
      </trkpt>
      <trkpt lat="43.6577" lon="5.7755">
        <ele>393.70001220703</ele>
        <time>2013-05-09T09:36:28Z</time>
      </trkpt>
      <trkpt lat="43.65782" lon="5.77559">
        <ele>393.20001220703</ele>
        <time>2013-05-09T09:36:50Z</time>
      </trkpt>
      <trkpt lat="43.65794" lon="5.77546">
        <ele>376.70001220703</ele>
        <time>2013-05-09T09:37:14Z</time>
      </trkpt>
      <trkpt lat="43.65779" lon="5.77562">
        <ele>399.70001220703</ele>
        <time>2013-05-09T09:37:37Z</time>
      </trkpt>
      <trkpt lat="43.65774" lon="5.77573">
        <ele>385.20001220703</ele>
        <time>2013-05-09T09:38:29Z</time>
      </trkpt>
      <trkpt lat="43.65783" lon="5.77562">
        <ele>388.70001220703</ele>
        <time>2013-05-09T09:38:59Z</time>
      </trkpt>
      <trkpt lat="43.65796" lon="5.77571">
        <ele>386.29998779297</ele>
        <time>2013-05-09T09:40:22Z</time>
      </trkpt>
      <trkpt lat="43.65825" lon="5.77546">
        <ele>382.20001220703</ele>
        <time>2013-05-09T09:40:57Z</time>
      </trkpt>
      <trkpt lat="43.65854" lon="5.77517">
        <ele>390.59997558594</ele>
        <time>2013-05-09T09:41:19Z</time>
      </trkpt>
      <trkpt lat="43.65875" lon="5.77471">
        <ele>393.90002441406</ele>
        <time>2013-05-09T09:41:50Z</time>
      </trkpt>
      <trkpt lat="43.65887" lon="5.77412">
        <ele>386.59997558594</ele>
        <time>2013-05-09T09:42:24Z</time>
      </trkpt>
      <trkpt lat="43.65892" lon="5.77332">
        <ele>385.5</ele>
        <time>2013-05-09T09:42:59Z</time>
      </trkpt>
      <trkpt lat="43.65913" lon="5.77274">
        <ele>386.09997558594</ele>
        <time>2013-05-09T09:43:31Z</time>
      </trkpt>
      <trkpt lat="43.65923" lon="5.77223">
        <ele>386.5</ele>
        <time>2013-05-09T09:43:59Z</time>
      </trkpt>
      <trkpt lat="43.65923" lon="5.77151">
        <ele>378.5</ele>
        <time>2013-05-09T09:44:34Z</time>
      </trkpt>
      <trkpt lat="43.65936" lon="5.77108">
        <ele>373.40002441406</ele>
        <time>2013-05-09T09:44:55Z</time>
      </trkpt>
      <trkpt lat="43.65957" lon="5.77059">
        <ele>394.09997558594</ele>
        <time>2013-05-09T09:45:18Z</time>
      </trkpt>
      <trkpt lat="43.65985" lon="5.77026">
        <ele>384.09997558594</ele>
        <time>2013-05-09T09:45:41Z</time>
      </trkpt>
      <trkpt lat="43.66006" lon="5.76966">
        <ele>377.90002441406</ele>
        <time>2013-05-09T09:46:16Z</time>
      </trkpt>
      <trkpt lat="43.66029" lon="5.76906">
        <ele>383.59997558594</ele>
        <time>2013-05-09T09:46:44Z</time>
      </trkpt>
      <trkpt lat="43.66029" lon="5.76865">
        <ele>373.90002441406</ele>
        <time>2013-05-09T09:47:06Z</time>
      </trkpt>
      <trkpt lat="43.66012" lon="5.7681">
        <ele>393.29998779297</ele>
        <time>2013-05-09T09:47:32Z</time>
      </trkpt>
      <trkpt lat="43.65977" lon="5.76795">
        <ele>398.59997558594</ele>
        <time>2013-05-09T09:47:56Z</time>
      </trkpt>
      <trkpt lat="43.65969" lon="5.76775">
        <ele>372</ele>
        <time>2013-05-09T09:48:21Z</time>
      </trkpt>
      <trkpt lat="43.65968" lon="5.76713">
        <ele>368.59997558594</ele>
        <time>2013-05-09T09:48:49Z</time>
      </trkpt>
      <trkpt lat="43.65953" lon="5.76627">
        <ele>363.29998779297</ele>
        <time>2013-05-09T09:49:13Z</time>
      </trkpt>
      <trkpt lat="43.65937" lon="5.76595">
        <ele>370.70001220703</ele>
        <time>2013-05-09T09:49:34Z</time>
      </trkpt>
      <trkpt lat="43.65911" lon="5.76551">
        <ele>379.79998779297</ele>
        <time>2013-05-09T09:49:57Z</time>
      </trkpt>
      <trkpt lat="43.65906" lon="5.76511">
        <ele>351.70001220703</ele>
        <time>2013-05-09T09:50:21Z</time>
      </trkpt>
      <trkpt lat="43.65899" lon="5.76463">
        <ele>345.20001220703</ele>
        <time>2013-05-09T09:50:44Z</time>
      </trkpt>
      <trkpt lat="43.65892" lon="5.76326">
        <ele>351.5</ele>
        <time>2013-05-09T09:51:09Z</time>
      </trkpt>
      <trkpt lat="43.65878" lon="5.76293">
        <ele>360.09997558594</ele>
        <time>2013-05-09T09:51:30Z</time>
      </trkpt>
      <trkpt lat="43.65881" lon="5.76241">
        <ele>351.79998779297</ele>
        <time>2013-05-09T09:51:53Z</time>
      </trkpt>
      <trkpt lat="43.65873" lon="5.76209">
        <ele>356</ele>
        <time>2013-05-09T09:52:16Z</time>
      </trkpt>
      <trkpt lat="43.65861" lon="5.76156">
        <ele>383.29998779297</ele>
        <time>2013-05-09T09:52:39Z</time>
      </trkpt>
      <trkpt lat="43.65865" lon="5.76129">
        <ele>365.79998779297</ele>
        <time>2013-05-09T09:53:02Z</time>
      </trkpt>
      <trkpt lat="43.65852" lon="5.76087">
        <ele>368.20001220703</ele>
        <time>2013-05-09T09:53:33Z</time>
      </trkpt>
      <trkpt lat="43.65851" lon="5.7605">
        <ele>364.5</ele>
        <time>2013-05-09T09:54:01Z</time>
      </trkpt>
      <trkpt lat="43.65836" lon="5.75996">
        <ele>344.79998779297</ele>
        <time>2013-05-09T09:54:33Z</time>
      </trkpt>
      <trkpt lat="43.65814" lon="5.75913">
        <ele>367.29998779297</ele>
        <time>2013-05-09T09:55:07Z</time>
      </trkpt>
      <trkpt lat="43.65811" lon="5.75847">
        <ele>366.59997558594</ele>
        <time>2013-05-09T09:55:37Z</time>
      </trkpt>
      <trkpt lat="43.6582" lon="5.75787">
        <ele>368.70001220703</ele>
        <time>2013-05-09T09:56:10Z</time>
      </trkpt>
      <trkpt lat="43.65813" lon="5.75771">
        <ele>394.70001220703</ele>
        <time>2013-05-09T09:56:46Z</time>
      </trkpt>
      <trkpt lat="43.65803" lon="5.75764">
        <ele>368.29998779297</ele>
        <time>2013-05-09T09:57:20Z</time>
      </trkpt>
      <trkpt lat="43.65782" lon="5.7573">
        <ele>368.40002441406</ele>
        <time>2013-05-09T09:57:53Z</time>
      </trkpt>
      <trkpt lat="43.65811" lon="5.75696">
        <ele>354.79998779297</ele>
        <time>2013-05-09T09:58:17Z</time>
      </trkpt>
      <trkpt lat="43.65802" lon="5.75651">
        <ele>368.40002441406</ele>
        <time>2013-05-09T09:58:49Z</time>
      </trkpt>
      <trkpt lat="43.6576" lon="5.75574">
        <ele>362.90002441406</ele>
        <time>2013-05-09T09:59:13Z</time>
      </trkpt>
      <trkpt lat="43.65694" lon="5.75555">
        <ele>363.20001220703</ele>
        <time>2013-05-09T09:59:34Z</time>
      </trkpt>
      <trkpt lat="43.65673" lon="5.75528">
        <ele>371.20001220703</ele>
        <time>2013-05-09T10:00:03Z</time>
      </trkpt>
      <trkpt lat="43.65648" lon="5.75493">
        <ele>379.79998779297</ele>
        <time>2013-05-09T10:00:31Z</time>
      </trkpt>
      <trkpt lat="43.65632" lon="5.75468">
        <ele>368.5</ele>
        <time>2013-05-09T10:00:53Z</time>
      </trkpt>
      <trkpt lat="43.65602" lon="5.75421">
        <ele>378.59997558594</ele>
        <time>2013-05-09T10:01:26Z</time>
      </trkpt>
      <trkpt lat="43.65583" lon="5.75407">
        <ele>386.79998779297</ele>
        <time>2013-05-09T10:01:48Z</time>
      </trkpt>
      <trkpt lat="43.65561" lon="5.75383">
        <ele>408.90002441406</ele>
        <time>2013-05-09T10:02:12Z</time>
      </trkpt>
      <trkpt lat="43.65544" lon="5.75361">
        <ele>394.5</ele>
        <time>2013-05-09T10:02:35Z</time>
      </trkpt>
      <trkpt lat="43.65528" lon="5.75339">
        <ele>391.20001220703</ele>
        <time>2013-05-09T10:02:58Z</time>
      </trkpt>
      <trkpt lat="43.65505" lon="5.75314">
        <ele>394.29998779297</ele>
        <time>2013-05-09T10:03:20Z</time>
      </trkpt>
      <trkpt lat="43.65476" lon="5.75307">
        <ele>370.29998779297</ele>
        <time>2013-05-09T10:03:41Z</time>
      </trkpt>
      <trkpt lat="43.65455" lon="5.75287">
        <ele>398.70001220703</ele>
        <time>2013-05-09T10:04:03Z</time>
      </trkpt>
      <trkpt lat="43.65423" lon="5.75273">
        <ele>397.09997558594</ele>
        <time>2013-05-09T10:04:26Z</time>
      </trkpt>
      <trkpt lat="43.65396" lon="5.75248">
        <ele>391.90002441406</ele>
        <time>2013-05-09T10:04:47Z</time>
      </trkpt>
      <trkpt lat="43.65363" lon="5.75242">
        <ele>413.20001220703</ele>
        <time>2013-05-09T10:05:11Z</time>
      </trkpt>
      <trkpt lat="43.6534" lon="5.75234">
        <ele>426.5</ele>
        <time>2013-05-09T10:05:37Z</time>
      </trkpt>
      <trkpt lat="43.65309" lon="5.75232">
        <ele>420.29998779297</ele>
        <time>2013-05-09T10:06:01Z</time>
      </trkpt>
      <trkpt lat="43.65317" lon="5.75218">
        <ele>410.5</ele>
        <time>2013-05-09T10:06:24Z</time>
      </trkpt>
      <trkpt lat="43.65321" lon="5.75194">
        <ele>417.20001220703</ele>
        <time>2013-05-09T10:06:47Z</time>
      </trkpt>
      <trkpt lat="43.6534" lon="5.75158">
        <ele>418.59997558594</ele>
        <time>2013-05-09T10:07:11Z</time>
      </trkpt>
      <trkpt lat="43.65369" lon="5.75131">
        <ele>436.40002441406</ele>
        <time>2013-05-09T10:07:37Z</time>
      </trkpt>
      <trkpt lat="43.65367" lon="5.75097">
        <ele>424.5</ele>
        <time>2013-05-09T10:08:03Z</time>
      </trkpt>
      <trkpt lat="43.65352" lon="5.7506">
        <ele>420.40002441406</ele>
        <time>2013-05-09T10:08:32Z</time>
      </trkpt>
      <trkpt lat="43.65329" lon="5.75012">
        <ele>426</ele>
        <time>2013-05-09T10:09:05Z</time>
      </trkpt>
      <trkpt lat="43.6529" lon="5.74973">
        <ele>431.29998779297</ele>
        <time>2013-05-09T10:09:33Z</time>
      </trkpt>
      <trkpt lat="43.65247" lon="5.74958">
        <ele>430</ele>
        <time>2013-05-09T10:09:59Z</time>
      </trkpt>
      <trkpt lat="43.65247" lon="5.74907">
        <ele>425.09997558594</ele>
        <time>2013-05-09T10:10:30Z</time>
      </trkpt>
      <trkpt lat="43.65262" lon="5.74862">
        <ele>422.90002441406</ele>
        <time>2013-05-09T10:10:54Z</time>
      </trkpt>
      <trkpt lat="43.65253" lon="5.74817">
        <ele>425.70001220703</ele>
        <time>2013-05-09T10:11:18Z</time>
      </trkpt>
      <trkpt lat="43.65236" lon="5.74775">
        <ele>414.5</ele>
        <time>2013-05-09T10:11:41Z</time>
      </trkpt>
      <trkpt lat="43.65226" lon="5.74728">
        <ele>429.70001220703</ele>
        <time>2013-05-09T10:12:10Z</time>
      </trkpt>
      <trkpt lat="43.65206" lon="5.74693">
        <ele>430.79998779297</ele>
        <time>2013-05-09T10:12:35Z</time>
      </trkpt>
      <trkpt lat="43.65182" lon="5.74649">
        <ele>429.90002441406</ele>
        <time>2013-05-09T10:13:04Z</time>
      </trkpt>
      <trkpt lat="43.6517" lon="5.74602">
        <ele>426.79998779297</ele>
        <time>2013-05-09T10:13:31Z</time>
      </trkpt>
      <trkpt lat="43.65155" lon="5.74528">
        <ele>427.90002441406</ele>
        <time>2013-05-09T10:14:05Z</time>
      </trkpt>
      <trkpt lat="43.65167" lon="5.7447">
        <ele>430.40002441406</ele>
        <time>2013-05-09T10:14:35Z</time>
      </trkpt>
      <trkpt lat="43.6516" lon="5.7441">
        <ele>429.09997558594</ele>
        <time>2013-05-09T10:15:09Z</time>
      </trkpt>
      <trkpt lat="43.65143" lon="5.7436">
        <ele>437.5</ele>
        <time>2013-05-09T10:15:38Z</time>
      </trkpt>
      <trkpt lat="43.65125" lon="5.74323">
        <ele>445.20001220703</ele>
        <time>2013-05-09T10:16:04Z</time>
      </trkpt>
      <trkpt lat="43.65095" lon="5.7428">
        <ele>449</ele>
        <time>2013-05-09T10:16:37Z</time>
      </trkpt>
      <trkpt lat="43.6507" lon="5.74251">
        <ele>447.09997558594</ele>
        <time>2013-05-09T10:17:06Z</time>
      </trkpt>
      <trkpt lat="43.65028" lon="5.74232">
        <ele>431.70001220703</ele>
        <time>2013-05-09T10:17:30Z</time>
      </trkpt>
      <trkpt lat="43.65018" lon="5.74232">
        <ele>427.20001220703</ele>
        <time>2013-05-09T10:18:16Z</time>
      </trkpt>
      <trkpt lat="43.65009" lon="5.7423">
        <ele>426.09997558594</ele>
        <time>2013-05-09T10:19:06Z</time>
      </trkpt>
      <trkpt lat="43.6499" lon="5.74239">
        <ele>440</ele>
        <time>2013-05-09T10:20:29Z</time>
      </trkpt>
      <trkpt lat="43.65008" lon="5.74233">
        <ele>427.20001220703</ele>
        <time>2013-05-09T10:21:04Z</time>
      </trkpt>
      <trkpt lat="43.65" lon="5.74226">
        <ele>411.29998779297</ele>
        <time>2013-05-09T10:21:28Z</time>
      </trkpt>
      <trkpt lat="43.6499" lon="5.7421">
        <ele>428.70001220703</ele>
        <time>2013-05-09T10:21:51Z</time>
      </trkpt>
      <trkpt lat="43.65003" lon="5.74226">
        <ele>427</ele>
        <time>2013-05-09T10:22:22Z</time>
      </trkpt>
      <trkpt lat="43.65027" lon="5.742">
        <ele>395.90002441406</ele>
        <time>2013-05-09T11:54:22Z</time>
      </trkpt>
      <trkpt lat="43.65003" lon="5.74239">
        <ele>463</ele>
        <time>2013-05-09T11:54:46Z</time>
      </trkpt>
      <trkpt lat="43.65013" lon="5.74251">
        <ele>468</ele>
        <time>2013-05-09T11:55:17Z</time>
      </trkpt>
      <trkpt lat="43.65027" lon="5.74249">
        <ele>468.90002441406</ele>
        <time>2013-05-09T11:55:42Z</time>
      </trkpt>
      <trkpt lat="43.6504" lon="5.74233">
        <ele>469.79998779297</ele>
        <time>2013-05-09T11:56:05Z</time>
      </trkpt>
      <trkpt lat="43.65054" lon="5.74187">
        <ele>472</ele>
        <time>2013-05-09T11:56:35Z</time>
      </trkpt>
      <trkpt lat="43.65072" lon="5.74141">
        <ele>465.29998779297</ele>
        <time>2013-05-09T11:57:07Z</time>
      </trkpt>
      <trkpt lat="43.65096" lon="5.74097">
        <ele>458.20001220703</ele>
        <time>2013-05-09T11:57:39Z</time>
      </trkpt>
      <trkpt lat="43.6511" lon="5.74069">
        <ele>447</ele>
        <time>2013-05-09T11:58:02Z</time>
      </trkpt>
      <trkpt lat="43.65138" lon="5.7404">
        <ele>445.79998779297</ele>
        <time>2013-05-09T11:58:26Z</time>
      </trkpt>
      <trkpt lat="43.65173" lon="5.74028">
        <ele>437.90002441406</ele>
        <time>2013-05-09T11:59:00Z</time>
      </trkpt>
      <trkpt lat="43.65201" lon="5.73984">
        <ele>441.5</ele>
        <time>2013-05-09T11:59:35Z</time>
      </trkpt>
      <trkpt lat="43.65214" lon="5.73967">
        <ele>428.59997558594</ele>
        <time>2013-05-09T12:00:02Z</time>
      </trkpt>
      <trkpt lat="43.65233" lon="5.73942">
        <ele>421.09997558594</ele>
        <time>2013-05-09T12:00:31Z</time>
      </trkpt>
      <trkpt lat="43.65247" lon="5.73955">
        <ele>419.29998779297</ele>
        <time>2013-05-09T12:01:05Z</time>
      </trkpt>
      <trkpt lat="43.65263" lon="5.73962">
        <ele>417.70001220703</ele>
        <time>2013-05-09T12:01:40Z</time>
      </trkpt>
      <trkpt lat="43.65291" lon="5.73917">
        <ele>415.09997558594</ele>
        <time>2013-05-09T12:02:09Z</time>
      </trkpt>
      <trkpt lat="43.65318" lon="5.73883">
        <ele>418.29998779297</ele>
        <time>2013-05-09T12:02:35Z</time>
      </trkpt>
      <trkpt lat="43.65351" lon="5.73851">
        <ele>411.79998779297</ele>
        <time>2013-05-09T12:03:09Z</time>
      </trkpt>
      <trkpt lat="43.65404" lon="5.73841">
        <ele>415.40002441406</ele>
        <time>2013-05-09T12:03:43Z</time>
      </trkpt>
      <trkpt lat="43.65443" lon="5.73835">
        <ele>406.40002441406</ele>
        <time>2013-05-09T12:04:11Z</time>
      </trkpt>
      <trkpt lat="43.65485" lon="5.73823">
        <ele>412.09997558594</ele>
        <time>2013-05-09T12:04:35Z</time>
      </trkpt>
      <trkpt lat="43.6553" lon="5.73807">
        <ele>412.29998779297</ele>
        <time>2013-05-09T12:05:02Z</time>
      </trkpt>
      <trkpt lat="43.65532" lon="5.73743">
        <ele>409.40002441406</ele>
        <time>2013-05-09T12:05:36Z</time>
      </trkpt>
      <trkpt lat="43.65568" lon="5.73688">
        <ele>404.09997558594</ele>
        <time>2013-05-09T12:06:11Z</time>
      </trkpt>
      <trkpt lat="43.65555" lon="5.73626">
        <ele>412.59997558594</ele>
        <time>2013-05-09T12:06:46Z</time>
      </trkpt>
      <trkpt lat="43.65538" lon="5.73597">
        <ele>411</ele>
        <time>2013-05-09T12:07:11Z</time>
      </trkpt>
      <trkpt lat="43.65517" lon="5.73579">
        <ele>400.29998779297</ele>
        <time>2013-05-09T12:07:35Z</time>
      </trkpt>
      <trkpt lat="43.6549" lon="5.73547">
        <ele>415.09997558594</ele>
        <time>2013-05-09T12:07:58Z</time>
      </trkpt>
      <trkpt lat="43.65462" lon="5.73501">
        <ele>422.79998779297</ele>
        <time>2013-05-09T12:08:24Z</time>
      </trkpt>
      <trkpt lat="43.65454" lon="5.73444">
        <ele>428.90002441406</ele>
        <time>2013-05-09T12:08:55Z</time>
      </trkpt>
      <trkpt lat="43.65463" lon="5.73396">
        <ele>435.09997558594</ele>
        <time>2013-05-09T12:09:27Z</time>
      </trkpt>
      <trkpt lat="43.65466" lon="5.73328">
        <ele>429</ele>
        <time>2013-05-09T12:10:02Z</time>
      </trkpt>
      <trkpt lat="43.65442" lon="5.73276">
        <ele>428.29998779297</ele>
        <time>2013-05-09T12:10:37Z</time>
      </trkpt>
      <trkpt lat="43.65405" lon="5.73238">
        <ele>426.70001220703</ele>
        <time>2013-05-09T12:11:11Z</time>
      </trkpt>
      <trkpt lat="43.65389" lon="5.73198">
        <ele>439.5</ele>
        <time>2013-05-09T12:11:38Z</time>
      </trkpt>
      <trkpt lat="43.65404" lon="5.73158">
        <ele>439.5</ele>
        <time>2013-05-09T12:12:01Z</time>
      </trkpt>
      <trkpt lat="43.65388" lon="5.73119">
        <ele>444</ele>
        <time>2013-05-09T12:12:24Z</time>
      </trkpt>
      <trkpt lat="43.65364" lon="5.73087">
        <ele>446</ele>
        <time>2013-05-09T12:12:50Z</time>
      </trkpt>
      <trkpt lat="43.65324" lon="5.73053">
        <ele>435.59997558594</ele>
        <time>2013-05-09T12:13:25Z</time>
      </trkpt>
      <trkpt lat="43.65356" lon="5.73051">
        <ele>457.5</ele>
        <time>2013-05-09T12:13:49Z</time>
      </trkpt>
      <trkpt lat="43.65397" lon="5.73065">
        <ele>468.70001220703</ele>
        <time>2013-05-09T12:14:21Z</time>
      </trkpt>
      <trkpt lat="43.65424" lon="5.73054">
        <ele>458</ele>
        <time>2013-05-09T12:14:45Z</time>
      </trkpt>
      <trkpt lat="43.6552" lon="5.73054">
        <ele>458.59997558594</ele>
        <time>2013-05-09T12:15:50Z</time>
      </trkpt>
      <trkpt lat="43.65539" lon="5.73049">
        <ele>459.09997558594</ele>
        <time>2013-05-09T12:16:25Z</time>
      </trkpt>
      <trkpt lat="43.65554" lon="5.73049">
        <ele>454</ele>
        <time>2013-05-09T12:16:59Z</time>
      </trkpt>
      <trkpt lat="43.65587" lon="5.73037">
        <ele>440.29998779297</ele>
        <time>2013-05-09T12:17:45Z</time>
      </trkpt>
      <trkpt lat="43.65605" lon="5.73022">
        <ele>436.29998779297</ele>
        <time>2013-05-09T12:18:10Z</time>
      </trkpt>
      <trkpt lat="43.65622" lon="5.73016">
        <ele>432.5</ele>
        <time>2013-05-09T12:18:41Z</time>
      </trkpt>
      <trkpt lat="43.6565" lon="5.73017">
        <ele>426.59997558594</ele>
        <time>2013-05-09T12:19:11Z</time>
      </trkpt>
      <trkpt lat="43.65677" lon="5.73014">
        <ele>414.70001220703</ele>
        <time>2013-05-09T12:19:34Z</time>
      </trkpt>
      <trkpt lat="43.65727" lon="5.73009">
        <ele>417.09997558594</ele>
        <time>2013-05-09T12:20:08Z</time>
      </trkpt>
      <trkpt lat="43.6577" lon="5.73017">
        <ele>420.20001220703</ele>
        <time>2013-05-09T12:20:41Z</time>
      </trkpt>
      <trkpt lat="43.65797" lon="5.73021">
        <ele>408.5</ele>
        <time>2013-05-09T12:21:05Z</time>
      </trkpt>
      <trkpt lat="43.65828" lon="5.73037">
        <ele>398.40002441406</ele>
        <time>2013-05-09T12:21:31Z</time>
      </trkpt>
      <trkpt lat="43.65854" lon="5.73045">
        <ele>391.5</ele>
        <time>2013-05-09T12:21:53Z</time>
      </trkpt>
      <trkpt lat="43.65883" lon="5.73073">
        <ele>389.09997558594</ele>
        <time>2013-05-09T12:22:19Z</time>
      </trkpt>
      <trkpt lat="43.65905" lon="5.73097">
        <ele>375.20001220703</ele>
        <time>2013-05-09T12:22:44Z</time>
      </trkpt>
      <trkpt lat="43.65919" lon="5.73123">
        <ele>368.09997558594</ele>
        <time>2013-05-09T12:23:06Z</time>
      </trkpt>
      <trkpt lat="43.65946" lon="5.73135">
        <ele>359.5</ele>
        <time>2013-05-09T12:23:28Z</time>
      </trkpt>
      <trkpt lat="43.65973" lon="5.73151">
        <ele>351.5</ele>
        <time>2013-05-09T12:23:51Z</time>
      </trkpt>
      <trkpt lat="43.65994" lon="5.73199">
        <ele>350.90002441406</ele>
        <time>2013-05-09T12:24:14Z</time>
      </trkpt>
      <trkpt lat="43.66015" lon="5.73222">
        <ele>341.79998779297</ele>
        <time>2013-05-09T12:24:36Z</time>
      </trkpt>
      <trkpt lat="43.66039" lon="5.73266">
        <ele>339.20001220703</ele>
        <time>2013-05-09T12:25:03Z</time>
      </trkpt>
      <trkpt lat="43.66055" lon="5.73292">
        <ele>334</ele>
        <time>2013-05-09T12:25:24Z</time>
      </trkpt>
      <trkpt lat="43.66082" lon="5.73319">
        <ele>330.90002441406</ele>
        <time>2013-05-09T12:25:46Z</time>
      </trkpt>
      <trkpt lat="43.66116" lon="5.73318">
        <ele>328.29998779297</ele>
        <time>2013-05-09T12:26:10Z</time>
      </trkpt>
      <trkpt lat="43.66148" lon="5.73326">
        <ele>328.59997558594</ele>
        <time>2013-05-09T12:26:35Z</time>
      </trkpt>
      <trkpt lat="43.66178" lon="5.73329">
        <ele>330.90002441406</ele>
        <time>2013-05-09T12:26:58Z</time>
      </trkpt>
      <trkpt lat="43.66206" lon="5.733">
        <ele>334.79998779297</ele>
        <time>2013-05-09T12:27:20Z</time>
      </trkpt>
      <trkpt lat="43.66226" lon="5.73279">
        <ele>337.20001220703</ele>
        <time>2013-05-09T12:27:41Z</time>
      </trkpt>
      <trkpt lat="43.6624" lon="5.73304">
        <ele>335.79998779297</ele>
        <time>2013-05-09T12:28:03Z</time>
      </trkpt>
      <trkpt lat="43.6626" lon="5.7333">
        <ele>324.20001220703</ele>
        <time>2013-05-09T12:28:26Z</time>
      </trkpt>
      <trkpt lat="43.6627" lon="5.7337">
        <ele>312.5</ele>
        <time>2013-05-09T12:28:47Z</time>
      </trkpt>
      <trkpt lat="43.66299" lon="5.73389">
        <ele>307.79998779297</ele>
        <time>2013-05-09T12:29:09Z</time>
      </trkpt>
      <trkpt lat="43.66335" lon="5.73382">
        <ele>305.20001220703</ele>
        <time>2013-05-09T12:29:29Z</time>
      </trkpt>
      <trkpt lat="43.66387" lon="5.73406">
        <ele>337</ele>
        <time>2013-05-09T12:29:59Z</time>
      </trkpt>
      <trkpt lat="43.66412" lon="5.7343">
        <ele>333.90002441406</ele>
        <time>2013-05-09T12:30:21Z</time>
      </trkpt>
      <trkpt lat="43.66473" lon="5.73452">
        <ele>337.90002441406</ele>
        <time>2013-05-09T12:30:51Z</time>
      </trkpt>
      <trkpt lat="43.66516" lon="5.73504">
        <ele>346</ele>
        <time>2013-05-09T12:31:23Z</time>
      </trkpt>
      <trkpt lat="43.6654" lon="5.7352">
        <ele>335.5</ele>
        <time>2013-05-09T12:31:44Z</time>
      </trkpt>
      <trkpt lat="43.66564" lon="5.73539">
        <ele>326</ele>
        <time>2013-05-09T12:32:06Z</time>
      </trkpt>
      <trkpt lat="43.66587" lon="5.73563">
        <ele>314.20001220703</ele>
        <time>2013-05-09T12:32:28Z</time>
      </trkpt>
      <trkpt lat="43.66622" lon="5.7358">
        <ele>306</ele>
        <time>2013-05-09T12:32:50Z</time>
      </trkpt>
      <trkpt lat="43.6666" lon="5.73586">
        <ele>300.79998779297</ele>
        <time>2013-05-09T12:33:13Z</time>
      </trkpt>
      <trkpt lat="43.66688" lon="5.73605">
        <ele>293.5</ele>
        <time>2013-05-09T12:33:35Z</time>
      </trkpt>
      <trkpt lat="43.66723" lon="5.73606">
        <ele>289.5</ele>
        <time>2013-05-09T12:33:59Z</time>
      </trkpt>
      <trkpt lat="43.66759" lon="5.73609">
        <ele>285.90002441406</ele>
        <time>2013-05-09T12:34:21Z</time>
      </trkpt>
      <trkpt lat="43.66789" lon="5.73621">
        <ele>283.70001220703</ele>
        <time>2013-05-09T12:34:43Z</time>
      </trkpt>
      <trkpt lat="43.66826" lon="5.73637">
        <ele>282.79998779297</ele>
        <time>2013-05-09T12:35:07Z</time>
      </trkpt>
      <trkpt lat="43.66858" lon="5.73628">
        <ele>280.79998779297</ele>
        <time>2013-05-09T12:35:27Z</time>
      </trkpt>
      <trkpt lat="43.66886" lon="5.73607">
        <ele>287.59997558594</ele>
        <time>2013-05-09T12:35:49Z</time>
      </trkpt>
      <trkpt lat="43.66921" lon="5.73598">
        <ele>291.09997558594</ele>
        <time>2013-05-09T12:36:14Z</time>
      </trkpt>
      <trkpt lat="43.66964" lon="5.73581">
        <ele>297.90002441406</ele>
        <time>2013-05-09T12:36:39Z</time>
      </trkpt>
      <trkpt lat="43.67004" lon="5.73558">
        <ele>297.90002441406</ele>
        <time>2013-05-09T12:37:00Z</time>
      </trkpt>
      <trkpt lat="43.67055" lon="5.73534">
        <ele>320.90002441406</ele>
        <time>2013-05-09T12:37:29Z</time>
      </trkpt>
      <trkpt lat="43.67081" lon="5.7352">
        <ele>320.5</ele>
        <time>2013-05-09T12:37:50Z</time>
      </trkpt>
      <trkpt lat="43.67106" lon="5.73496">
        <ele>318.79998779297</ele>
        <time>2013-05-09T12:38:12Z</time>
      </trkpt>
      <trkpt lat="43.67163" lon="5.73465">
        <ele>329.09997558594</ele>
        <time>2013-05-09T12:38:42Z</time>
      </trkpt>
      <trkpt lat="43.67195" lon="5.73439">
        <ele>300.79998779297</ele>
        <time>2013-05-09T12:39:09Z</time>
      </trkpt>
      <trkpt lat="43.67216" lon="5.73408">
        <ele>309.09997558594</ele>
        <time>2013-05-09T12:39:33Z</time>
      </trkpt>
      <trkpt lat="43.67245" lon="5.73375">
        <ele>317.90002441406</ele>
        <time>2013-05-09T12:39:56Z</time>
      </trkpt>
      <trkpt lat="43.67269" lon="5.73339">
        <ele>321.09997558594</ele>
        <time>2013-05-09T12:40:18Z</time>
      </trkpt>
      <trkpt lat="43.673" lon="5.73289">
        <ele>338.29998779297</ele>
        <time>2013-05-09T12:40:45Z</time>
      </trkpt>
      <trkpt lat="43.6731" lon="5.73227">
        <ele>314.90002441406</ele>
        <time>2013-05-09T12:41:11Z</time>
      </trkpt>
      <trkpt lat="43.67321" lon="5.73196">
        <ele>327.09997558594</ele>
        <time>2013-05-09T12:41:33Z</time>
      </trkpt>
      <trkpt lat="43.67347" lon="5.73162">
        <ele>324.40002441406</ele>
        <time>2013-05-09T12:41:54Z</time>
      </trkpt>
      <trkpt lat="43.67385" lon="5.73111">
        <ele>319.59997558594</ele>
        <time>2013-05-09T12:42:21Z</time>
      </trkpt>
      <trkpt lat="43.67404" lon="5.73095">
        <ele>319.79998779297</ele>
        <time>2013-05-09T12:42:43Z</time>
      </trkpt>
      <trkpt lat="43.67463" lon="5.72982">
        <ele>338.79998779297</ele>
        <time>2013-05-09T12:43:09Z</time>
      </trkpt>
      <trkpt lat="43.67345" lon="5.72853">
        <ele>330.40002441406</ele>
        <time>2013-05-09T12:43:40Z</time>
      </trkpt>
      <trkpt lat="43.67338" lon="5.7282">
        <ele>342.09997558594</ele>
        <time>2013-05-09T12:44:07Z</time>
      </trkpt>
      <trkpt lat="43.67328" lon="5.7279">
        <ele>358.79998779297</ele>
        <time>2013-05-09T12:44:32Z</time>
      </trkpt>
      <trkpt lat="43.67304" lon="5.72762">
        <ele>370.70001220703</ele>
        <time>2013-05-09T12:44:57Z</time>
      </trkpt>
      <trkpt lat="43.6729" lon="5.72734">
        <ele>377.20001220703</ele>
        <time>2013-05-09T12:45:18Z</time>
      </trkpt>
      <trkpt lat="43.67255" lon="5.7271">
        <ele>384.70001220703</ele>
        <time>2013-05-09T12:45:40Z</time>
      </trkpt>
      <trkpt lat="43.67228" lon="5.72697">
        <ele>382.20001220703</ele>
        <time>2013-05-09T12:46:01Z</time>
      </trkpt>
      <trkpt lat="43.67193" lon="5.72693">
        <ele>376.59997558594</ele>
        <time>2013-05-09T12:46:30Z</time>
      </trkpt>
      <trkpt lat="43.67151" lon="5.72667">
        <ele>370.90002441406</ele>
        <time>2013-05-09T12:46:56Z</time>
      </trkpt>
      <trkpt lat="43.67143" lon="5.72624">
        <ele>387.70001220703</ele>
        <time>2013-05-09T12:47:21Z</time>
      </trkpt>
      <trkpt lat="43.67132" lon="5.72586">
        <ele>389.70001220703</ele>
        <time>2013-05-09T12:47:44Z</time>
      </trkpt>
      <trkpt lat="43.67127" lon="5.72539">
        <ele>395</ele>
        <time>2013-05-09T12:48:12Z</time>
      </trkpt>
      <trkpt lat="43.6713" lon="5.72486">
        <ele>391.90002441406</ele>
        <time>2013-05-09T12:48:39Z</time>
      </trkpt>
      <trkpt lat="43.67112" lon="5.72448">
        <ele>403.5</ele>
        <time>2013-05-09T12:49:07Z</time>
      </trkpt>
      <trkpt lat="43.67121" lon="5.72408">
        <ele>407.70001220703</ele>
        <time>2013-05-09T12:49:32Z</time>
      </trkpt>
      <trkpt lat="43.67118" lon="5.72357">
        <ele>414.20001220703</ele>
        <time>2013-05-09T12:49:59Z</time>
      </trkpt>
      <trkpt lat="43.67111" lon="5.72308">
        <ele>422.09997558594</ele>
        <time>2013-05-09T12:50:26Z</time>
      </trkpt>
      <trkpt lat="43.67102" lon="5.72259">
        <ele>431.90002441406</ele>
        <time>2013-05-09T12:50:52Z</time>
      </trkpt>
      <trkpt lat="43.67121" lon="5.72217">
        <ele>415.70001220703</ele>
        <time>2013-05-09T12:51:19Z</time>
      </trkpt>
      <trkpt lat="43.67141" lon="5.72166">
        <ele>409.79998779297</ele>
        <time>2013-05-09T12:51:52Z</time>
      </trkpt>
      <trkpt lat="43.67136" lon="5.72143">
        <ele>416</ele>
        <time>2013-05-09T12:52:19Z</time>
      </trkpt>
      <trkpt lat="43.67136" lon="5.72094">
        <ele>417.40002441406</ele>
        <time>2013-05-09T12:52:47Z</time>
      </trkpt>
      <trkpt lat="43.67126" lon="5.72056">
        <ele>423.79998779297</ele>
        <time>2013-05-09T12:53:16Z</time>
      </trkpt>
      <trkpt lat="43.67125" lon="5.7201">
        <ele>431.29998779297</ele>
        <time>2013-05-09T12:53:41Z</time>
      </trkpt>
      <trkpt lat="43.67119" lon="5.7198">
        <ele>445</ele>
        <time>2013-05-09T12:54:07Z</time>
      </trkpt>
      <trkpt lat="43.67108" lon="5.71957">
        <ele>450.70001220703</ele>
        <time>2013-05-09T12:54:33Z</time>
      </trkpt>
      <trkpt lat="43.67079" lon="5.71933">
        <ele>442.5</ele>
        <time>2013-05-09T12:54:58Z</time>
      </trkpt>
      <trkpt lat="43.67044" lon="5.71931">
        <ele>446</ele>
        <time>2013-05-09T12:55:26Z</time>
      </trkpt>
      <trkpt lat="43.67003" lon="5.71916">
        <ele>459.29998779297</ele>
        <time>2013-05-09T12:55:52Z</time>
      </trkpt>
      <trkpt lat="43.6698" lon="5.71899">
        <ele>461.20001220703</ele>
        <time>2013-05-09T12:56:20Z</time>
      </trkpt>
      <trkpt lat="43.66933" lon="5.71817">
        <ele>485</ele>
        <time>2013-05-09T12:56:49Z</time>
      </trkpt>
      <trkpt lat="43.66895" lon="5.71782">
        <ele>492.90002441406</ele>
        <time>2013-05-09T12:57:20Z</time>
      </trkpt>
      <trkpt lat="43.66872" lon="5.71737">
        <ele>489.59997558594</ele>
        <time>2013-05-09T12:57:50Z</time>
      </trkpt>
      <trkpt lat="43.6684" lon="5.71682">
        <ele>483.70001220703</ele>
        <time>2013-05-09T12:58:23Z</time>
      </trkpt>
      <trkpt lat="43.66786" lon="5.71621">
        <ele>445.79998779297</ele>
        <time>2013-05-09T12:58:48Z</time>
      </trkpt>
      <trkpt lat="43.66741" lon="5.71563">
        <ele>441.5</ele>
        <time>2013-05-09T12:59:15Z</time>
      </trkpt>
      <trkpt lat="43.66722" lon="5.71537">
        <ele>466.20001220703</ele>
        <time>2013-05-09T12:59:42Z</time>
      </trkpt>
      <trkpt lat="43.667" lon="5.71492">
        <ele>480.20001220703</ele>
        <time>2013-05-09T13:00:16Z</time>
      </trkpt>
      <trkpt lat="43.6668" lon="5.71444">
        <ele>495.90002441406</ele>
        <time>2013-05-09T13:00:48Z</time>
      </trkpt>
      <trkpt lat="43.66643" lon="5.71419">
        <ele>511.90002441406</ele>
        <time>2013-05-09T13:01:21Z</time>
      </trkpt>
      <trkpt lat="43.66588" lon="5.71406">
        <ele>501.79998779297</ele>
        <time>2013-05-09T13:01:53Z</time>
      </trkpt>
      <trkpt lat="43.66552" lon="5.7139">
        <ele>508.90002441406</ele>
        <time>2013-05-09T13:02:27Z</time>
      </trkpt>
      <trkpt lat="43.66554" lon="5.71348">
        <ele>506.09997558594</ele>
        <time>2013-05-09T13:03:00Z</time>
      </trkpt>
      <trkpt lat="43.66595" lon="5.71319">
        <ele>502.40002441406</ele>
        <time>2013-05-09T13:03:33Z</time>
      </trkpt>
      <trkpt lat="43.66627" lon="5.71301">
        <ele>493</ele>
        <time>2013-05-09T13:04:03Z</time>
      </trkpt>
      <trkpt lat="43.66666" lon="5.71273">
        <ele>497.5</ele>
        <time>2013-05-09T13:04:35Z</time>
      </trkpt>
      <trkpt lat="43.66703" lon="5.71246">
        <ele>503.79998779297</ele>
        <time>2013-05-09T13:05:09Z</time>
      </trkpt>
      <trkpt lat="43.66686" lon="5.71192">
        <ele>515</ele>
        <time>2013-05-09T13:05:42Z</time>
      </trkpt>
      <trkpt lat="43.6662" lon="5.71105">
        <ele>517.40002441406</ele>
        <time>2013-05-09T13:06:15Z</time>
      </trkpt>
      <trkpt lat="43.66557" lon="5.70988">
        <ele>527.40002441406</ele>
        <time>2013-05-09T13:06:52Z</time>
      </trkpt>
      <trkpt lat="43.66522" lon="5.70881">
        <ele>496.59997558594</ele>
        <time>2013-05-09T13:07:25Z</time>
      </trkpt>
      <trkpt lat="43.66493" lon="5.70817">
        <ele>466.29998779297</ele>
        <time>2013-05-09T13:07:58Z</time>
      </trkpt>
      <trkpt lat="43.66467" lon="5.70811">
        <ele>491</ele>
        <time>2013-05-09T13:08:29Z</time>
      </trkpt>
      <trkpt lat="43.66419" lon="5.70792">
        <ele>493.09997558594</ele>
        <time>2013-05-09T13:09:09Z</time>
      </trkpt>
      <trkpt lat="43.66377" lon="5.70771">
        <ele>511.40002441406</ele>
        <time>2013-05-09T13:09:47Z</time>
      </trkpt>
      <trkpt lat="43.66327" lon="5.70736">
        <ele>499.09997558594</ele>
        <time>2013-05-09T13:10:23Z</time>
      </trkpt>
      <trkpt lat="43.66285" lon="5.70762">
        <ele>489.09997558594</ele>
        <time>2013-05-09T13:10:53Z</time>
      </trkpt>
      <trkpt lat="43.66252" lon="5.70776">
        <ele>462.40002441406</ele>
        <time>2013-05-09T13:11:20Z</time>
      </trkpt>
      <trkpt lat="43.66214" lon="5.70813">
        <ele>472.20001220703</ele>
        <time>2013-05-09T13:11:57Z</time>
      </trkpt>
      <trkpt lat="43.66199" lon="5.70739">
        <ele>473.20001220703</ele>
        <time>2013-05-09T13:12:42Z</time>
      </trkpt>
      <trkpt lat="43.66254" lon="5.70548">
        <ele>499.40002441406</ele>
        <time>2013-05-09T13:13:28Z</time>
      </trkpt>
      <trkpt lat="43.66275" lon="5.70489">
        <ele>498.79998779297</ele>
        <time>2013-05-09T13:14:00Z</time>
      </trkpt>
      <trkpt lat="43.66294" lon="5.70396">
        <ele>481.29998779297</ele>
        <time>2013-05-09T13:14:45Z</time>
      </trkpt>
      <trkpt lat="43.66314" lon="5.70308">
        <ele>478.59997558594</ele>
        <time>2013-05-09T13:15:31Z</time>
      </trkpt>
      <trkpt lat="43.66332" lon="5.70241">
        <ele>494.40002441406</ele>
        <time>2013-05-09T13:16:06Z</time>
      </trkpt>
      <trkpt lat="43.66316" lon="5.7018">
        <ele>496.09997558594</ele>
        <time>2013-05-09T13:16:41Z</time>
      </trkpt>
      <trkpt lat="43.66279" lon="5.70136">
        <ele>489.5</ele>
        <time>2013-05-09T13:17:16Z</time>
      </trkpt>
      <trkpt lat="43.6626" lon="5.70083">
        <ele>486.20001220703</ele>
        <time>2013-05-09T13:17:51Z</time>
      </trkpt>
      <trkpt lat="43.66279" lon="5.70017">
        <ele>484.20001220703</ele>
        <time>2013-05-09T13:18:25Z</time>
      </trkpt>
      <trkpt lat="43.66294" lon="5.69952">
        <ele>483.09997558594</ele>
        <time>2013-05-09T13:19:00Z</time>
      </trkpt>
      <trkpt lat="43.66302" lon="5.69896">
        <ele>486.59997558594</ele>
        <time>2013-05-09T13:19:30Z</time>
      </trkpt>
      <trkpt lat="43.66282" lon="5.69843">
        <ele>486.70001220703</ele>
        <time>2013-05-09T13:20:05Z</time>
      </trkpt>
      <trkpt lat="43.66292" lon="5.69777">
        <ele>489.70001220703</ele>
        <time>2013-05-09T13:20:40Z</time>
      </trkpt>
      <trkpt lat="43.66296" lon="5.69707">
        <ele>492.20001220703</ele>
        <time>2013-05-09T13:21:15Z</time>
      </trkpt>
      <trkpt lat="43.66246" lon="5.69675">
        <ele>495.90002441406</ele>
        <time>2013-05-09T13:21:50Z</time>
      </trkpt>
      <trkpt lat="43.66196" lon="5.69647">
        <ele>496.09997558594</ele>
        <time>2013-05-09T13:22:24Z</time>
      </trkpt>
      <trkpt lat="43.66162" lon="5.69612">
        <ele>501.70001220703</ele>
        <time>2013-05-09T13:22:58Z</time>
      </trkpt>
      <trkpt lat="43.66116" lon="5.6963">
        <ele>493.79998779297</ele>
        <time>2013-05-09T13:23:26Z</time>
      </trkpt>
      <trkpt lat="43.66072" lon="5.69635">
        <ele>499.40002441406</ele>
        <time>2013-05-09T13:23:58Z</time>
      </trkpt>
      <trkpt lat="43.66019" lon="5.69615">
        <ele>504.09997558594</ele>
        <time>2013-05-09T13:24:33Z</time>
      </trkpt>
      <trkpt lat="43.65955" lon="5.69551">
        <ele>506.79998779297</ele>
        <time>2013-05-09T13:25:08Z</time>
      </trkpt>
      <trkpt lat="43.65912" lon="5.69491">
        <ele>509.59997558594</ele>
        <time>2013-05-09T13:25:42Z</time>
      </trkpt>
      <trkpt lat="43.65878" lon="5.69489">
        <ele>503.40002441406</ele>
        <time>2013-05-09T13:26:05Z</time>
      </trkpt>
      <trkpt lat="43.65878" lon="5.69539">
        <ele>497.90002441406</ele>
        <time>2013-05-09T13:26:32Z</time>
      </trkpt>
      <trkpt lat="43.65868" lon="5.69597">
        <ele>507.29998779297</ele>
        <time>2013-05-09T13:27:00Z</time>
      </trkpt>
      <trkpt lat="43.65859" lon="5.69643">
        <ele>507.59997558594</ele>
        <time>2013-05-09T13:27:25Z</time>
      </trkpt>
      <trkpt lat="43.65839" lon="5.69686">
        <ele>513.5</ele>
        <time>2013-05-09T13:27:48Z</time>
      </trkpt>
      <trkpt lat="43.65812" lon="5.69746">
        <ele>516.70001220703</ele>
        <time>2013-05-09T13:28:12Z</time>
      </trkpt>
      <trkpt lat="43.65731" lon="5.69866">
        <ele>521.59997558594</ele>
        <time>2013-05-09T13:28:35Z</time>
      </trkpt>
      <trkpt lat="43.65678" lon="5.69935">
        <ele>515.09997558594</ele>
        <time>2013-05-09T13:28:58Z</time>
      </trkpt>
      <trkpt lat="43.65645" lon="5.69952">
        <ele>521.70001220703</ele>
        <time>2013-05-09T13:29:23Z</time>
      </trkpt>
      <trkpt lat="43.65633" lon="5.69957">
        <ele>517.59997558594</ele>
        <time>2013-05-09T13:29:45Z</time>
      </trkpt>
      <trkpt lat="43.6561" lon="5.69985">
        <ele>524.69995117188</ele>
        <time>2013-05-09T13:30:45Z</time>
      </trkpt>
      <trkpt lat="43.65596" lon="5.70018">
        <ele>524.90002441406</ele>
        <time>2013-05-09T13:31:17Z</time>
      </trkpt>
      <trkpt lat="43.65579" lon="5.70055">
        <ele>527</ele>
        <time>2013-05-09T13:32:36Z</time>
      </trkpt>
      <trkpt lat="43.6554" lon="5.70075">
        <ele>528.09997558594</ele>
        <time>2013-05-09T13:33:00Z</time>
      </trkpt>
      <trkpt lat="43.65505" lon="5.7009">
        <ele>530.40002441406</ele>
        <time>2013-05-09T13:33:23Z</time>
      </trkpt>
      <trkpt lat="43.65464" lon="5.7008">
        <ele>539.59997558594</ele>
        <time>2013-05-09T13:33:50Z</time>
      </trkpt>
      <trkpt lat="43.65427" lon="5.70102">
        <ele>539.69995117188</ele>
        <time>2013-05-09T13:34:14Z</time>
      </trkpt>
      <trkpt lat="43.65398" lon="5.70127">
        <ele>540.40002441406</ele>
        <time>2013-05-09T13:34:39Z</time>
      </trkpt>
      <trkpt lat="43.65367" lon="5.70143">
        <ele>545.30004882812</ele>
        <time>2013-05-09T13:35:05Z</time>
      </trkpt>
      <trkpt lat="43.65331" lon="5.70137">
        <ele>543.90002441406</ele>
        <time>2013-05-09T13:35:28Z</time>
      </trkpt>
      <trkpt lat="43.65285" lon="5.70176">
        <ele>549.59997558594</ele>
        <time>2013-05-09T13:35:50Z</time>
      </trkpt>
      <trkpt lat="43.65188" lon="5.70192">
        <ele>558.40002441406</ele>
        <time>2013-05-09T13:36:14Z</time>
      </trkpt>
      <trkpt lat="43.65115" lon="5.70314">
        <ele>560.59997558594</ele>
        <time>2013-05-09T13:36:37Z</time>
      </trkpt>
      <trkpt lat="43.64999" lon="5.70333">
        <ele>573.30004882812</ele>
        <time>2013-05-09T13:37:05Z</time>
      </trkpt>
      <trkpt lat="43.64824" lon="5.70276">
        <ele>584</ele>
        <time>2013-05-09T13:37:40Z</time>
      </trkpt>
      <trkpt lat="43.64759" lon="5.70201">
        <ele>596.69995117188</ele>
        <time>2013-05-09T13:38:12Z</time>
      </trkpt>
      <trkpt lat="43.64722" lon="5.70183">
        <ele>602.90002441406</ele>
        <time>2013-05-09T13:38:40Z</time>
      </trkpt>
      <trkpt lat="43.64698" lon="5.70144">
        <ele>606.59997558594</ele>
        <time>2013-05-09T13:39:09Z</time>
      </trkpt>
      <trkpt lat="43.64657" lon="5.70119">
        <ele>614.59997558594</ele>
        <time>2013-05-09T13:39:40Z</time>
      </trkpt>
      <trkpt lat="43.64632" lon="5.70093">
        <ele>617.09997558594</ele>
        <time>2013-05-09T13:40:04Z</time>
      </trkpt>
      <trkpt lat="43.64598" lon="5.70058">
        <ele>621.59997558594</ele>
        <time>2013-05-09T13:40:33Z</time>
      </trkpt>
      <trkpt lat="43.64559" lon="5.70058">
        <ele>624</ele>
        <time>2013-05-09T13:40:59Z</time>
      </trkpt>
      <trkpt lat="43.6452" lon="5.70076">
        <ele>628.19995117188</ele>
        <time>2013-05-09T13:41:28Z</time>
      </trkpt>
      <trkpt lat="43.64489" lon="5.70091">
        <ele>631.80004882812</ele>
        <time>2013-05-09T13:41:53Z</time>
      </trkpt>
      <trkpt lat="43.64494" lon="5.70065">
        <ele>639.69995117188</ele>
        <time>2013-05-09T13:42:28Z</time>
      </trkpt>
      <trkpt lat="43.64517" lon="5.70023">
        <ele>643.59997558594</ele>
        <time>2013-05-09T13:42:57Z</time>
      </trkpt>
      <trkpt lat="43.64489" lon="5.70038">
        <ele>644.09997558594</ele>
        <time>2013-05-09T13:43:20Z</time>
      </trkpt>
      <trkpt lat="43.64455" lon="5.70054">
        <ele>644.80004882812</ele>
        <time>2013-05-09T13:43:46Z</time>
      </trkpt>
      <trkpt lat="43.64422" lon="5.70075">
        <ele>652.69995117188</ele>
        <time>2013-05-09T13:44:13Z</time>
      </trkpt>
      <trkpt lat="43.64403" lon="5.70118">
        <ele>647.30004882812</ele>
        <time>2013-05-09T13:44:39Z</time>
      </trkpt>
      <trkpt lat="43.6439" lon="5.70112">
        <ele>663</ele>
        <time>2013-05-09T13:45:06Z</time>
      </trkpt>
      <trkpt lat="43.64384" lon="5.70069">
        <ele>664.5</ele>
        <time>2013-05-09T13:45:30Z</time>
      </trkpt>
      <trkpt lat="43.64394" lon="5.70027">
        <ele>670.30004882812</ele>
        <time>2013-05-09T13:46:02Z</time>
      </trkpt>
      <trkpt lat="43.64412" lon="5.69976">
        <ele>679.40002441406</ele>
        <time>2013-05-09T13:46:34Z</time>
      </trkpt>
      <trkpt lat="43.6441" lon="5.69922">
        <ele>686.19995117188</ele>
        <time>2013-05-09T13:47:06Z</time>
      </trkpt>
      <trkpt lat="43.64392" lon="5.69892">
        <ele>683.90002441406</ele>
        <time>2013-05-09T13:47:30Z</time>
      </trkpt>
      <trkpt lat="43.64352" lon="5.69879">
        <ele>691.80004882812</ele>
        <time>2013-05-09T13:48:04Z</time>
      </trkpt>
      <trkpt lat="43.64322" lon="5.69908">
        <ele>703</ele>
        <time>2013-05-09T13:48:35Z</time>
      </trkpt>
      <trkpt lat="43.64289" lon="5.69907">
        <ele>706.59997558594</ele>
        <time>2013-05-09T13:49:04Z</time>
      </trkpt>
      <trkpt lat="43.64262" lon="5.69894">
        <ele>710.09997558594</ele>
        <time>2013-05-09T13:49:29Z</time>
      </trkpt>
      <trkpt lat="43.64254" lon="5.69853">
        <ele>716</ele>
        <time>2013-05-09T13:50:04Z</time>
      </trkpt>
      <trkpt lat="43.64267" lon="5.69802">
        <ele>707.69995117188</ele>
        <time>2013-05-09T13:50:38Z</time>
      </trkpt>
      <trkpt lat="43.64272" lon="5.69786">
        <ele>717.30004882812</ele>
        <time>2013-05-09T13:51:12Z</time>
      </trkpt>
      <trkpt lat="43.6428" lon="5.69779">
        <ele>713.40002441406</ele>
        <time>2013-05-09T13:52:06Z</time>
      </trkpt>
      <trkpt lat="43.64271" lon="5.698">
        <ele>712.30004882812</ele>
        <time>2013-05-09T13:54:24Z</time>
      </trkpt>
      <trkpt lat="43.64258" lon="5.69836">
        <ele>705.40002441406</ele>
        <time>2013-05-09T13:54:58Z</time>
      </trkpt>
      <trkpt lat="43.64258" lon="5.69859">
        <ele>720.40002441406</ele>
        <time>2013-05-09T13:56:40Z</time>
      </trkpt>
      <trkpt lat="43.64257" lon="5.69845">
        <ele>715.19995117188</ele>
        <time>2013-05-09T13:58:17Z</time>
      </trkpt>
      <trkpt lat="43.64242" lon="5.69845">
        <ele>716.69995117188</ele>
        <time>2013-05-09T13:59:35Z</time>
      </trkpt>
      <trkpt lat="43.64257" lon="5.69848">
        <ele>714.69995117188</ele>
        <time>2013-05-09T14:00:07Z</time>
      </trkpt>
      <trkpt lat="43.64252" lon="5.6986">
        <ele>702.30004882812</ele>
        <time>2013-05-09T14:00:41Z</time>
      </trkpt>
      <trkpt lat="43.6426" lon="5.6985">
        <ele>715.59997558594</ele>
        <time>2013-05-09T14:01:16Z</time>
      </trkpt>
      <trkpt lat="43.6426" lon="5.69888">
        <ele>708.5</ele>
        <time>2013-05-09T14:06:21Z</time>
      </trkpt>
      <trkpt lat="43.64288" lon="5.69903">
        <ele>704.59997558594</ele>
        <time>2013-05-09T14:06:55Z</time>
      </trkpt>
      <trkpt lat="43.64326" lon="5.69908">
        <ele>696.80004882812</ele>
        <time>2013-05-09T14:07:29Z</time>
      </trkpt>
      <trkpt lat="43.64361" lon="5.69876">
        <ele>688.40002441406</ele>
        <time>2013-05-09T14:08:04Z</time>
      </trkpt>
      <trkpt lat="43.64393" lon="5.69897">
        <ele>681.80004882812</ele>
        <time>2013-05-09T14:08:38Z</time>
      </trkpt>
      <trkpt lat="43.64413" lon="5.69944">
        <ele>677.90002441406</ele>
        <time>2013-05-09T14:09:12Z</time>
      </trkpt>
      <trkpt lat="43.64402" lon="5.69997">
        <ele>675</ele>
        <time>2013-05-09T14:09:47Z</time>
      </trkpt>
      <trkpt lat="43.64386" lon="5.70048">
        <ele>665.19995117188</ele>
        <time>2013-05-09T14:10:22Z</time>
      </trkpt>
      <trkpt lat="43.64388" lon="5.70102">
        <ele>656.19995117188</ele>
        <time>2013-05-09T14:10:56Z</time>
      </trkpt>
      <trkpt lat="43.64413" lon="5.70119">
        <ele>649.40002441406</ele>
        <time>2013-05-09T14:11:30Z</time>
      </trkpt>
      <trkpt lat="43.64427" lon="5.70076">
        <ele>652.5</ele>
        <time>2013-05-09T14:11:57Z</time>
      </trkpt>
      <trkpt lat="43.64472" lon="5.70056">
        <ele>649.69995117188</ele>
        <time>2013-05-09T14:12:32Z</time>
      </trkpt>
      <trkpt lat="43.64515" lon="5.70024">
        <ele>641.40002441406</ele>
        <time>2013-05-09T14:13:06Z</time>
      </trkpt>
      <trkpt lat="43.645" lon="5.70051">
        <ele>635.80004882812</ele>
        <time>2013-05-09T14:13:31Z</time>
      </trkpt>
      <trkpt lat="43.64477" lon="5.70091">
        <ele>644.5</ele>
        <time>2013-05-09T14:14:06Z</time>
      </trkpt>
      <trkpt lat="43.64531" lon="5.70086">
        <ele>623.59997558594</ele>
        <time>2013-05-09T14:14:40Z</time>
      </trkpt>
      <trkpt lat="43.64566" lon="5.70074">
        <ele>622.09997558594</ele>
        <time>2013-05-09T14:15:08Z</time>
      </trkpt>
      <trkpt lat="43.64607" lon="5.70068">
        <ele>622.69995117188</ele>
        <time>2013-05-09T14:15:42Z</time>
      </trkpt>
      <trkpt lat="43.64642" lon="5.70112">
        <ele>616.80004882812</ele>
        <time>2013-05-09T14:16:16Z</time>
      </trkpt>
      <trkpt lat="43.64676" lon="5.70141">
        <ele>626.30004882812</ele>
        <time>2013-05-09T14:16:50Z</time>
      </trkpt>
      <trkpt lat="43.64705" lon="5.70167">
        <ele>627.5</ele>
        <time>2013-05-09T14:17:24Z</time>
      </trkpt>
      <trkpt lat="43.64758" lon="5.70211">
        <ele>620</ele>
        <time>2013-05-09T14:18:09Z</time>
      </trkpt>
      <trkpt lat="43.64777" lon="5.70229">
        <ele>612.59997558594</ele>
        <time>2013-05-09T14:18:54Z</time>
      </trkpt>
      <trkpt lat="43.64823" lon="5.70279">
        <ele>619.09997558594</ele>
        <time>2013-05-09T14:19:36Z</time>
      </trkpt>
      <trkpt lat="43.64851" lon="5.70301">
        <ele>652</ele>
        <time>2013-05-09T14:20:10Z</time>
      </trkpt>
      <trkpt lat="43.64903" lon="5.70333">
        <ele>604.30004882812</ele>
        <time>2013-05-09T14:20:44Z</time>
      </trkpt>
      <trkpt lat="43.64942" lon="5.70321">
        <ele>628.5</ele>
        <time>2013-05-09T14:21:18Z</time>
      </trkpt>
      <trkpt lat="43.6498" lon="5.70324">
        <ele>660.40002441406</ele>
        <time>2013-05-09T14:22:00Z</time>
      </trkpt>
      <trkpt lat="43.65031" lon="5.7037">
        <ele>604</ele>
        <time>2013-05-09T14:22:35Z</time>
      </trkpt>
      <trkpt lat="43.65043" lon="5.70386">
        <ele>582.19995117188</ele>
        <time>2013-05-09T14:23:10Z</time>
      </trkpt>
      <trkpt lat="43.6506" lon="5.7039">
        <ele>580</ele>
        <time>2013-05-09T14:23:45Z</time>
      </trkpt>
      <trkpt lat="43.65115" lon="5.70363">
        <ele>558.40002441406</ele>
        <time>2013-05-09T14:24:22Z</time>
      </trkpt>
      <trkpt lat="43.65145" lon="5.70293">
        <ele>552.19995117188</ele>
        <time>2013-05-09T14:24:57Z</time>
      </trkpt>
      <trkpt lat="43.65167" lon="5.70231">
        <ele>562.40002441406</ele>
        <time>2013-05-09T14:25:30Z</time>
      </trkpt>
      <trkpt lat="43.65196" lon="5.70203">
        <ele>557</ele>
        <time>2013-05-09T14:26:04Z</time>
      </trkpt>
      <trkpt lat="43.65247" lon="5.70204">
        <ele>547.19995117188</ele>
        <time>2013-05-09T14:26:40Z</time>
      </trkpt>
      <trkpt lat="43.65289" lon="5.70178">
        <ele>549.40002441406</ele>
        <time>2013-05-09T14:27:14Z</time>
      </trkpt>
      <trkpt lat="43.65327" lon="5.7014">
        <ele>547.30004882812</ele>
        <time>2013-05-09T14:27:48Z</time>
      </trkpt>
      <trkpt lat="43.65372" lon="5.70147">
        <ele>553.19995117188</ele>
        <time>2013-05-09T14:28:22Z</time>
      </trkpt>
      <trkpt lat="43.65415" lon="5.70121">
        <ele>540.59997558594</ele>
        <time>2013-05-09T14:28:56Z</time>
      </trkpt>
      <trkpt lat="43.65449" lon="5.70107">
        <ele>562.40002441406</ele>
        <time>2013-05-09T14:29:31Z</time>
      </trkpt>
      <trkpt lat="43.65496" lon="5.70116">
        <ele>559.40002441406</ele>
        <time>2013-05-09T14:30:06Z</time>
      </trkpt>
      <trkpt lat="43.65539" lon="5.70078">
        <ele>560</ele>
        <time>2013-05-09T14:30:41Z</time>
      </trkpt>
      <trkpt lat="43.65593" lon="5.70045">
        <ele>524.30004882812</ele>
        <time>2013-05-09T14:31:15Z</time>
      </trkpt>
      <trkpt lat="43.65623" lon="5.69984">
        <ele>526.69995117188</ele>
        <time>2013-05-09T14:31:50Z</time>
      </trkpt>
      <trkpt lat="43.65661" lon="5.69951">
        <ele>536</ele>
        <time>2013-05-09T14:32:24Z</time>
      </trkpt>
      <trkpt lat="43.65701" lon="5.69927">
        <ele>520.70001220703</ele>
        <time>2013-05-09T14:32:58Z</time>
      </trkpt>
      <trkpt lat="43.65731" lon="5.69869">
        <ele>518.70001220703</ele>
        <time>2013-05-09T14:33:33Z</time>
      </trkpt>
      <trkpt lat="43.65765" lon="5.69822">
        <ele>519.29998779297</ele>
        <time>2013-05-09T14:34:08Z</time>
      </trkpt>
      <trkpt lat="43.658" lon="5.69775">
        <ele>509.70001220703</ele>
        <time>2013-05-09T14:34:43Z</time>
      </trkpt>
      <trkpt lat="43.65838" lon="5.69724">
        <ele>515.29998779297</ele>
        <time>2013-05-09T14:35:17Z</time>
      </trkpt>
      <trkpt lat="43.65859" lon="5.69663">
        <ele>512.59997558594</ele>
        <time>2013-05-09T14:35:51Z</time>
      </trkpt>
      <trkpt lat="43.65875" lon="5.69604">
        <ele>506.09997558594</ele>
        <time>2013-05-09T14:36:26Z</time>
      </trkpt>
      <trkpt lat="43.65885" lon="5.69556">
        <ele>504.29998779297</ele>
        <time>2013-05-09T14:36:55Z</time>
      </trkpt>
      <trkpt lat="43.65888" lon="5.69511">
        <ele>503.79998779297</ele>
        <time>2013-05-09T14:37:18Z</time>
      </trkpt>
      <trkpt lat="43.65895" lon="5.69467">
        <ele>502.79998779297</ele>
        <time>2013-05-09T14:37:42Z</time>
      </trkpt>
      <trkpt lat="43.65912" lon="5.69424">
        <ele>503.59997558594</ele>
        <time>2013-05-09T14:38:05Z</time>
      </trkpt>
      <trkpt lat="43.65926" lon="5.69388">
        <ele>507.5</ele>
        <time>2013-05-09T14:38:28Z</time>
      </trkpt>
      <trkpt lat="43.65951" lon="5.69358">
        <ele>501.20001220703</ele>
        <time>2013-05-09T14:38:51Z</time>
      </trkpt>
      <trkpt lat="43.65952" lon="5.6932">
        <ele>495.79998779297</ele>
        <time>2013-05-09T14:39:14Z</time>
      </trkpt>
      <trkpt lat="43.65938" lon="5.69276">
        <ele>496.59997558594</ele>
        <time>2013-05-09T14:39:38Z</time>
      </trkpt>
      <trkpt lat="43.65933" lon="5.69231">
        <ele>494.09997558594</ele>
        <time>2013-05-09T14:40:05Z</time>
      </trkpt>
      <trkpt lat="43.65953" lon="5.69215">
        <ele>495.40002441406</ele>
        <time>2013-05-09T14:40:30Z</time>
      </trkpt>
      <trkpt lat="43.65947" lon="5.69196">
        <ele>494</ele>
        <time>2013-05-09T14:40:53Z</time>
      </trkpt>
      <trkpt lat="43.65975" lon="5.69147">
        <ele>501.09997558594</ele>
        <time>2013-05-09T14:41:27Z</time>
      </trkpt>
      <trkpt lat="43.66" lon="5.69096">
        <ele>491.09997558594</ele>
        <time>2013-05-09T14:41:52Z</time>
      </trkpt>
      <trkpt lat="43.66019" lon="5.69061">
        <ele>490.29998779297</ele>
        <time>2013-05-09T14:42:15Z</time>
      </trkpt>
      <trkpt lat="43.66042" lon="5.69027">
        <ele>488.59997558594</ele>
        <time>2013-05-09T14:42:38Z</time>
      </trkpt>
      <trkpt lat="43.66066" lon="5.68975">
        <ele>491.90002441406</ele>
        <time>2013-05-09T14:43:12Z</time>
      </trkpt>
      <trkpt lat="43.66121" lon="5.69015">
        <ele>490.29998779297</ele>
        <time>2013-05-09T14:43:47Z</time>
      </trkpt>
      <trkpt lat="43.66212" lon="5.6911">
        <ele>500.79998779297</ele>
        <time>2013-05-09T14:44:17Z</time>
      </trkpt>
      <trkpt lat="43.66242" lon="5.69083">
        <ele>485.70001220703</ele>
        <time>2013-05-09T14:44:51Z</time>
      </trkpt>
      <trkpt lat="43.66272" lon="5.69047">
        <ele>482.29998779297</ele>
        <time>2013-05-09T14:45:14Z</time>
      </trkpt>
      <trkpt lat="43.66291" lon="5.69025">
        <ele>490.29998779297</ele>
        <time>2013-05-09T14:45:44Z</time>
      </trkpt>
      <trkpt lat="43.66323" lon="5.68998">
        <ele>489.90002441406</ele>
        <time>2013-05-09T14:46:07Z</time>
      </trkpt>
      <trkpt lat="43.66354" lon="5.68949">
        <ele>484.59997558594</ele>
        <time>2013-05-09T14:46:35Z</time>
      </trkpt>
      <trkpt lat="43.66384" lon="5.68908">
        <ele>486.90002441406</ele>
        <time>2013-05-09T14:47:06Z</time>
      </trkpt>
      <trkpt lat="43.66409" lon="5.68867">
        <ele>480.5</ele>
        <time>2013-05-09T14:47:31Z</time>
      </trkpt>
      <trkpt lat="43.66465" lon="5.68911">
        <ele>475.20001220703</ele>
        <time>2013-05-09T14:48:06Z</time>
      </trkpt>
      <trkpt lat="43.6651" lon="5.68953">
        <ele>473.90002441406</ele>
        <time>2013-05-09T14:48:41Z</time>
      </trkpt>
      <trkpt lat="43.66536" lon="5.68905">
        <ele>476.90002441406</ele>
        <time>2013-05-09T14:49:16Z</time>
      </trkpt>
      <trkpt lat="43.66562" lon="5.6884">
        <ele>475.29998779297</ele>
        <time>2013-05-09T14:49:51Z</time>
      </trkpt>
      <trkpt lat="43.66582" lon="5.68776">
        <ele>472.20001220703</ele>
        <time>2013-05-09T14:50:26Z</time>
      </trkpt>
      <trkpt lat="43.66602" lon="5.68716">
        <ele>469</ele>
        <time>2013-05-09T14:51:01Z</time>
      </trkpt>
      <trkpt lat="43.66626" lon="5.68653">
        <ele>468.70001220703</ele>
        <time>2013-05-09T14:51:36Z</time>
      </trkpt>
      <trkpt lat="43.66653" lon="5.68588">
        <ele>471.40002441406</ele>
        <time>2013-05-09T14:52:11Z</time>
      </trkpt>
      <trkpt lat="43.66689" lon="5.68537">
        <ele>473.79998779297</ele>
        <time>2013-05-09T14:52:46Z</time>
      </trkpt>
      <trkpt lat="43.66729" lon="5.68488">
        <ele>466.79998779297</ele>
        <time>2013-05-09T14:53:21Z</time>
      </trkpt>
      <trkpt lat="43.66762" lon="5.68434">
        <ele>468.59997558594</ele>
        <time>2013-05-09T14:53:56Z</time>
      </trkpt>
      <trkpt lat="43.66799" lon="5.68415">
        <ele>468.59997558594</ele>
        <time>2013-05-09T14:54:31Z</time>
      </trkpt>
      <trkpt lat="43.66839" lon="5.68383">
        <ele>460.59997558594</ele>
        <time>2013-05-09T14:55:06Z</time>
      </trkpt>
      <trkpt lat="43.66863" lon="5.68314">
        <ele>463.70001220703</ele>
        <time>2013-05-09T14:55:41Z</time>
      </trkpt>
      <trkpt lat="43.66858" lon="5.68246">
        <ele>468</ele>
        <time>2013-05-09T14:56:16Z</time>
      </trkpt>
      <trkpt lat="43.66853" lon="5.68188">
        <ele>471.59997558594</ele>
        <time>2013-05-09T14:56:49Z</time>
      </trkpt>
      <trkpt lat="43.66857" lon="5.68153">
        <ele>474.40002441406</ele>
        <time>2013-05-09T14:57:23Z</time>
      </trkpt>
      <trkpt lat="43.66847" lon="5.68192">
        <ele>470.5</ele>
        <time>2013-05-09T14:57:57Z</time>
      </trkpt>
      <trkpt lat="43.6685" lon="5.68255">
        <ele>466.09997558594</ele>
        <time>2013-05-09T14:58:32Z</time>
      </trkpt>
      <trkpt lat="43.66883" lon="5.68307">
        <ele>464.70001220703</ele>
        <time>2013-05-09T14:59:07Z</time>
      </trkpt>
      <trkpt lat="43.66927" lon="5.68316">
        <ele>473</ele>
        <time>2013-05-09T14:59:41Z</time>
      </trkpt>
      <trkpt lat="43.66962" lon="5.68285">
        <ele>488.09997558594</ele>
        <time>2013-05-09T15:00:16Z</time>
      </trkpt>
      <trkpt lat="43.66998" lon="5.68253">
        <ele>491</ele>
        <time>2013-05-09T15:00:50Z</time>
      </trkpt>
      <trkpt lat="43.67021" lon="5.68198">
        <ele>506.20001220703</ele>
        <time>2013-05-09T15:01:25Z</time>
      </trkpt>
      <trkpt lat="43.67063" lon="5.68161">
        <ele>493.40002441406</ele>
        <time>2013-05-09T15:01:59Z</time>
      </trkpt>
      <trkpt lat="43.67106" lon="5.68133">
        <ele>496.79998779297</ele>
        <time>2013-05-09T15:02:33Z</time>
      </trkpt>
      <trkpt lat="43.67142" lon="5.68096">
        <ele>513.09997558594</ele>
        <time>2013-05-09T15:03:07Z</time>
      </trkpt>
      <trkpt lat="43.67183" lon="5.68068">
        <ele>520.79998779297</ele>
        <time>2013-05-09T15:03:42Z</time>
      </trkpt>
      <trkpt lat="43.67214" lon="5.68019">
        <ele>512.29998779297</ele>
        <time>2013-05-09T15:04:16Z</time>
      </trkpt>
      <trkpt lat="43.67248" lon="5.67956">
        <ele>489.59997558594</ele>
        <time>2013-05-09T15:04:50Z</time>
      </trkpt>
      <trkpt lat="43.67261" lon="5.67906">
        <ele>491.5</ele>
        <time>2013-05-09T15:05:24Z</time>
      </trkpt>
      <trkpt lat="43.67286" lon="5.67847">
        <ele>475.20001220703</ele>
        <time>2013-05-09T15:05:58Z</time>
      </trkpt>
      <trkpt lat="43.67321" lon="5.67856">
        <ele>495.40002441406</ele>
        <time>2013-05-09T15:06:32Z</time>
      </trkpt>
      <trkpt lat="43.67364" lon="5.67857">
        <ele>511.29998779297</ele>
        <time>2013-05-09T15:07:06Z</time>
      </trkpt>
      <trkpt lat="43.67415" lon="5.67882">
        <ele>503.20001220703</ele>
        <time>2013-05-09T15:07:39Z</time>
      </trkpt>
      <trkpt lat="43.67467" lon="5.67891">
        <ele>487.5</ele>
        <time>2013-05-09T15:08:14Z</time>
      </trkpt>
      <trkpt lat="43.67475" lon="5.67847">
        <ele>474.09997558594</ele>
        <time>2013-05-09T15:08:49Z</time>
      </trkpt>
      <trkpt lat="43.67446" lon="5.67801">
        <ele>473.5</ele>
        <time>2013-05-09T15:09:23Z</time>
      </trkpt>
      <trkpt lat="43.67453" lon="5.67791">
        <ele>489.09997558594</ele>
        <time>2013-05-09T15:10:00Z</time>
      </trkpt>
      <trkpt lat="43.67466" lon="5.67737">
        <ele>480.5</ele>
        <time>2013-05-09T15:10:34Z</time>
      </trkpt>
      <trkpt lat="43.67484" lon="5.67697">
        <ele>473.29998779297</ele>
        <time>2013-05-09T15:11:08Z</time>
      </trkpt>
      <trkpt lat="43.67495" lon="5.67666">
        <ele>471.79998779297</ele>
        <time>2013-05-09T15:11:43Z</time>
      </trkpt>
      <trkpt lat="43.67511" lon="5.67683">
        <ele>473.40002441406</ele>
        <time>2013-05-09T15:12:17Z</time>
      </trkpt>
      <trkpt lat="43.67551" lon="5.67705">
        <ele>476.59997558594</ele>
        <time>2013-05-09T15:12:51Z</time>
      </trkpt>
      <trkpt lat="43.67596" lon="5.67724">
        <ele>467.29998779297</ele>
        <time>2013-05-09T15:13:25Z</time>
      </trkpt>
      <trkpt lat="43.67618" lon="5.67749">
        <ele>472.40002441406</ele>
        <time>2013-05-09T15:14:00Z</time>
      </trkpt>
      <trkpt lat="43.67662" lon="5.67781">
        <ele>460.09997558594</ele>
        <time>2013-05-09T15:14:35Z</time>
      </trkpt>
      <trkpt lat="43.67686" lon="5.67786">
        <ele>460.40002441406</ele>
        <time>2013-05-09T15:15:09Z</time>
      </trkpt>
      <trkpt lat="43.67712" lon="5.67749">
        <ele>501.40002441406</ele>
        <time>2013-05-09T15:15:44Z</time>
      </trkpt>
      <trkpt lat="43.67721" lon="5.67701">
        <ele>485.29998779297</ele>
        <time>2013-05-09T15:16:19Z</time>
      </trkpt>
      <trkpt lat="43.67718" lon="5.67647">
        <ele>473.40002441406</ele>
        <time>2013-05-09T15:16:53Z</time>
      </trkpt>
      <trkpt lat="43.67712" lon="5.67595">
        <ele>456.70001220703</ele>
        <time>2013-05-09T15:17:28Z</time>
      </trkpt>
      <trkpt lat="43.67708" lon="5.67479">
        <ele>456.29998779297</ele>
        <time>2013-05-09T15:18:28Z</time>
      </trkpt>
      <trkpt lat="43.67704" lon="5.67424">
        <ele>466.40002441406</ele>
        <time>2013-05-09T15:19:03Z</time>
      </trkpt>
      <trkpt lat="43.67735" lon="5.67424">
        <ele>485.20001220703</ele>
        <time>2013-05-09T15:19:37Z</time>
      </trkpt>
      <trkpt lat="43.6777" lon="5.67453">
        <ele>497.79998779297</ele>
        <time>2013-05-09T15:20:12Z</time>
      </trkpt>
      <trkpt lat="43.67801" lon="5.67447">
        <ele>489.5</ele>
        <time>2013-05-09T15:21:55Z</time>
      </trkpt>
      <trkpt lat="43.67815" lon="5.67454">
        <ele>460.70001220703</ele>
        <time>2013-05-09T15:23:03Z</time>
      </trkpt>
    </trkseg>
  </trk>
  <trk>
    <name><![CDATA[Vauvenargues Rians 2013-05-11 09:42]]></name>
    <trkseg>
      <trkpt lat="43.55443" lon="5.61883">
        <ele>478</ele>
        <time>2013-05-11T07:45:00Z</time>
      </trkpt>
      <trkpt lat="43.55427" lon="5.61872">
        <ele>485.5</ele>
        <time>2013-05-11T07:45:33Z</time>
      </trkpt>
      <trkpt lat="43.5543" lon="5.61832">
        <ele>488.70001220703</ele>
        <time>2013-05-11T07:46:35Z</time>
      </trkpt>
      <trkpt lat="43.55446" lon="5.61781">
        <ele>482.70001220703</ele>
        <time>2013-05-11T07:47:09Z</time>
      </trkpt>
      <trkpt lat="43.55482" lon="5.61734">
        <ele>487.09997558594</ele>
        <time>2013-05-11T07:47:44Z</time>
      </trkpt>
      <trkpt lat="43.55487" lon="5.61684">
        <ele>475.29998779297</ele>
        <time>2013-05-11T07:48:17Z</time>
      </trkpt>
      <trkpt lat="43.55473" lon="5.61643">
        <ele>466.5</ele>
        <time>2013-05-11T07:48:49Z</time>
      </trkpt>
      <trkpt lat="43.55463" lon="5.61577">
        <ele>478.79998779297</ele>
        <time>2013-05-11T07:49:23Z</time>
      </trkpt>
      <trkpt lat="43.55445" lon="5.61536">
        <ele>466.90002441406</ele>
        <time>2013-05-11T07:49:51Z</time>
      </trkpt>
      <trkpt lat="43.55477" lon="5.61497">
        <ele>473.59997558594</ele>
        <time>2013-05-11T07:50:19Z</time>
      </trkpt>
      <trkpt lat="43.55499" lon="5.61474">
        <ele>485.20001220703</ele>
        <time>2013-05-11T07:50:44Z</time>
      </trkpt>
      <trkpt lat="43.5551" lon="5.61485">
        <ele>463.79998779297</ele>
        <time>2013-05-11T07:52:06Z</time>
      </trkpt>
      <trkpt lat="43.55524" lon="5.6147">
        <ele>494.09997558594</ele>
        <time>2013-05-11T07:52:41Z</time>
      </trkpt>
      <trkpt lat="43.55551" lon="5.61442">
        <ele>492.09997558594</ele>
        <time>2013-05-11T07:53:13Z</time>
      </trkpt>
      <trkpt lat="43.55574" lon="5.61483">
        <ele>519.59997558594</ele>
        <time>2013-05-11T07:53:45Z</time>
      </trkpt>
      <trkpt lat="43.55584" lon="5.61553">
        <ele>508.90002441406</ele>
        <time>2013-05-11T07:54:20Z</time>
      </trkpt>
      <trkpt lat="43.55586" lon="5.61624">
        <ele>495.70001220703</ele>
        <time>2013-05-11T07:54:54Z</time>
      </trkpt>
      <trkpt lat="43.55605" lon="5.61689">
        <ele>499.40002441406</ele>
        <time>2013-05-11T07:55:28Z</time>
      </trkpt>
      <trkpt lat="43.55621" lon="5.61755">
        <ele>511.90002441406</ele>
        <time>2013-05-11T07:56:03Z</time>
      </trkpt>
      <trkpt lat="43.55624" lon="5.618">
        <ele>515</ele>
        <time>2013-05-11T07:56:32Z</time>
      </trkpt>
      <trkpt lat="43.55662" lon="5.61867">
        <ele>530.19995117188</ele>
        <time>2013-05-11T07:57:07Z</time>
      </trkpt>
      <trkpt lat="43.55678" lon="5.61917">
        <ele>508</ele>
        <time>2013-05-11T07:57:33Z</time>
      </trkpt>
      <trkpt lat="43.55707" lon="5.61958">
        <ele>525.40002441406</ele>
        <time>2013-05-11T07:58:03Z</time>
      </trkpt>
      <trkpt lat="43.55724" lon="5.62018">
        <ele>505.59997558594</ele>
        <time>2013-05-11T07:58:38Z</time>
      </trkpt>
      <trkpt lat="43.55746" lon="5.62053">
        <ele>515.29998779297</ele>
        <time>2013-05-11T07:59:05Z</time>
      </trkpt>
      <trkpt lat="43.55773" lon="5.62107">
        <ele>497.29998779297</ele>
        <time>2013-05-11T07:59:39Z</time>
      </trkpt>
      <trkpt lat="43.55811" lon="5.62131">
        <ele>481.59997558594</ele>
        <time>2013-05-11T08:00:13Z</time>
      </trkpt>
      <trkpt lat="43.5585" lon="5.62124">
        <ele>476.5</ele>
        <time>2013-05-11T08:00:41Z</time>
      </trkpt>
      <trkpt lat="43.55897" lon="5.62129">
        <ele>528.19995117188</ele>
        <time>2013-05-11T08:01:15Z</time>
      </trkpt>
      <trkpt lat="43.5593" lon="5.62184">
        <ele>552.09997558594</ele>
        <time>2013-05-11T08:01:48Z</time>
      </trkpt>
      <trkpt lat="43.55928" lon="5.62241">
        <ele>511.40002441406</ele>
        <time>2013-05-11T08:02:14Z</time>
      </trkpt>
      <trkpt lat="43.55951" lon="5.62286">
        <ele>506.59997558594</ele>
        <time>2013-05-11T08:02:48Z</time>
      </trkpt>
      <trkpt lat="43.55978" lon="5.62301">
        <ele>499</ele>
        <time>2013-05-11T08:03:12Z</time>
      </trkpt>
      <trkpt lat="43.56022" lon="5.62292">
        <ele>509.90002441406</ele>
        <time>2013-05-11T08:03:46Z</time>
      </trkpt>
      <trkpt lat="43.56052" lon="5.62261">
        <ele>514.59997558594</ele>
        <time>2013-05-11T08:04:21Z</time>
      </trkpt>
      <trkpt lat="43.56067" lon="5.62326">
        <ele>515.5</ele>
        <time>2013-05-11T08:04:55Z</time>
      </trkpt>
      <trkpt lat="43.56097" lon="5.62376">
        <ele>515.40002441406</ele>
        <time>2013-05-11T08:05:28Z</time>
      </trkpt>
      <trkpt lat="43.56138" lon="5.62388">
        <ele>514.90002441406</ele>
        <time>2013-05-11T08:05:59Z</time>
      </trkpt>
      <trkpt lat="43.56188" lon="5.62398">
        <ele>527.09997558594</ele>
        <time>2013-05-11T08:06:33Z</time>
      </trkpt>
      <trkpt lat="43.56233" lon="5.6241">
        <ele>554.19995117188</ele>
        <time>2013-05-11T08:07:05Z</time>
      </trkpt>
      <trkpt lat="43.56249" lon="5.62385">
        <ele>536.59997558594</ele>
        <time>2013-05-11T08:07:39Z</time>
      </trkpt>
      <trkpt lat="43.56292" lon="5.62367">
        <ele>561</ele>
        <time>2013-05-11T08:08:14Z</time>
      </trkpt>
      <trkpt lat="43.56321" lon="5.62361">
        <ele>561.09997558594</ele>
        <time>2013-05-11T08:08:40Z</time>
      </trkpt>
      <trkpt lat="43.56346" lon="5.62355">
        <ele>580</ele>
        <time>2013-05-11T08:09:03Z</time>
      </trkpt>
      <trkpt lat="43.56383" lon="5.6236">
        <ele>583</ele>
        <time>2013-05-11T08:09:33Z</time>
      </trkpt>
      <trkpt lat="43.56411" lon="5.62368">
        <ele>604.30004882812</ele>
        <time>2013-05-11T08:09:57Z</time>
      </trkpt>
      <trkpt lat="43.56442" lon="5.62365">
        <ele>592.19995117188</ele>
        <time>2013-05-11T08:10:28Z</time>
      </trkpt>
      <trkpt lat="43.56474" lon="5.62371">
        <ele>609.69995117188</ele>
        <time>2013-05-11T08:10:56Z</time>
      </trkpt>
      <trkpt lat="43.56491" lon="5.62383">
        <ele>582.40002441406</ele>
        <time>2013-05-11T08:11:54Z</time>
      </trkpt>
      <trkpt lat="43.56521" lon="5.62394">
        <ele>580.90002441406</ele>
        <time>2013-05-11T08:12:28Z</time>
      </trkpt>
      <trkpt lat="43.56551" lon="5.62411">
        <ele>573.19995117188</ele>
        <time>2013-05-11T08:12:52Z</time>
      </trkpt>
      <trkpt lat="43.56586" lon="5.62423">
        <ele>567.19995117188</ele>
        <time>2013-05-11T08:13:17Z</time>
      </trkpt>
      <trkpt lat="43.56627" lon="5.62446">
        <ele>566.80004882812</ele>
        <time>2013-05-11T08:13:51Z</time>
      </trkpt>
      <trkpt lat="43.56669" lon="5.62456">
        <ele>571</ele>
        <time>2013-05-11T08:14:26Z</time>
      </trkpt>
      <trkpt lat="43.56701" lon="5.62497">
        <ele>588.69995117188</ele>
        <time>2013-05-11T08:14:59Z</time>
      </trkpt>
      <trkpt lat="43.5676" lon="5.62584">
        <ele>582.69995117188</ele>
        <time>2013-05-11T08:15:33Z</time>
      </trkpt>
      <trkpt lat="43.56793" lon="5.62627">
        <ele>587.90002441406</ele>
        <time>2013-05-11T08:16:09Z</time>
      </trkpt>
      <trkpt lat="43.56814" lon="5.62674">
        <ele>595.59997558594</ele>
        <time>2013-05-11T08:16:42Z</time>
      </trkpt>
      <trkpt lat="43.56836" lon="5.62668">
        <ele>591.30004882812</ele>
        <time>2013-05-11T08:17:17Z</time>
      </trkpt>
      <trkpt lat="43.56838" lon="5.62613">
        <ele>604.5</ele>
        <time>2013-05-11T08:17:52Z</time>
      </trkpt>
      <trkpt lat="43.56835" lon="5.62558">
        <ele>606</ele>
        <time>2013-05-11T08:18:26Z</time>
      </trkpt>
      <trkpt lat="43.56821" lon="5.62509">
        <ele>612.90002441406</ele>
        <time>2013-05-11T08:19:01Z</time>
      </trkpt>
      <trkpt lat="43.56855" lon="5.62483">
        <ele>622.09997558594</ele>
        <time>2013-05-11T08:19:37Z</time>
      </trkpt>
      <trkpt lat="43.56896" lon="5.62472">
        <ele>618</ele>
        <time>2013-05-11T08:20:12Z</time>
      </trkpt>
      <trkpt lat="43.56948" lon="5.62462">
        <ele>629.19995117188</ele>
        <time>2013-05-11T08:20:47Z</time>
      </trkpt>
      <trkpt lat="43.56987" lon="5.62488">
        <ele>634.19995117188</ele>
        <time>2013-05-11T08:21:21Z</time>
      </trkpt>
      <trkpt lat="43.57028" lon="5.62512">
        <ele>622.09997558594</ele>
        <time>2013-05-11T08:21:55Z</time>
      </trkpt>
      <trkpt lat="43.57066" lon="5.62557">
        <ele>623.80004882812</ele>
        <time>2013-05-11T08:22:29Z</time>
      </trkpt>
      <trkpt lat="43.57102" lon="5.62598">
        <ele>616.5</ele>
        <time>2013-05-11T08:23:04Z</time>
      </trkpt>
      <trkpt lat="43.57164" lon="5.62593">
        <ele>610.59997558594</ele>
        <time>2013-05-11T08:23:39Z</time>
      </trkpt>
      <trkpt lat="43.57222" lon="5.62566">
        <ele>611.59997558594</ele>
        <time>2013-05-11T08:24:15Z</time>
      </trkpt>
      <trkpt lat="43.57244" lon="5.62538">
        <ele>624.80004882812</ele>
        <time>2013-05-11T08:24:49Z</time>
      </trkpt>
      <trkpt lat="43.57283" lon="5.62477">
        <ele>629.69995117188</ele>
        <time>2013-05-11T08:25:26Z</time>
      </trkpt>
      <trkpt lat="43.57312" lon="5.62423">
        <ele>630.59997558594</ele>
        <time>2013-05-11T08:26:01Z</time>
      </trkpt>
      <trkpt lat="43.57333" lon="5.6245">
        <ele>627.5</ele>
        <time>2013-05-11T08:26:35Z</time>
      </trkpt>
      <trkpt lat="43.57349" lon="5.62529">
        <ele>624.80004882812</ele>
        <time>2013-05-11T08:27:10Z</time>
      </trkpt>
      <trkpt lat="43.5735" lon="5.62598">
        <ele>623.90002441406</ele>
        <time>2013-05-11T08:27:44Z</time>
      </trkpt>
      <trkpt lat="43.57344" lon="5.62665">
        <ele>625</ele>
        <time>2013-05-11T08:28:19Z</time>
      </trkpt>
      <trkpt lat="43.5734" lon="5.62711">
        <ele>617.19995117188</ele>
        <time>2013-05-11T08:28:54Z</time>
      </trkpt>
      <trkpt lat="43.57298" lon="5.62718">
        <ele>614.19995117188</ele>
        <time>2013-05-11T08:29:28Z</time>
      </trkpt>
      <trkpt lat="43.57259" lon="5.62759">
        <ele>619.40002441406</ele>
        <time>2013-05-11T08:30:02Z</time>
      </trkpt>
      <trkpt lat="43.57236" lon="5.62804">
        <ele>622.19995117188</ele>
        <time>2013-05-11T08:30:36Z</time>
      </trkpt>
      <trkpt lat="43.57222" lon="5.62863">
        <ele>617.19995117188</ele>
        <time>2013-05-11T08:31:10Z</time>
      </trkpt>
      <trkpt lat="43.57214" lon="5.6292">
        <ele>622.59997558594</ele>
        <time>2013-05-11T08:31:45Z</time>
      </trkpt>
      <trkpt lat="43.57204" lon="5.62975">
        <ele>624.40002441406</ele>
        <time>2013-05-11T08:32:19Z</time>
      </trkpt>
      <trkpt lat="43.57192" lon="5.63036">
        <ele>622.80004882812</ele>
        <time>2013-05-11T08:32:54Z</time>
      </trkpt>
      <trkpt lat="43.57188" lon="5.63092">
        <ele>627.30004882812</ele>
        <time>2013-05-11T08:33:28Z</time>
      </trkpt>
      <trkpt lat="43.5717" lon="5.63148">
        <ele>634.90002441406</ele>
        <time>2013-05-11T08:34:02Z</time>
      </trkpt>
      <trkpt lat="43.57154" lon="5.63346">
        <ele>636.5</ele>
        <time>2013-05-11T08:34:37Z</time>
      </trkpt>
      <trkpt lat="43.57181" lon="5.63609">
        <ele>653.09997558594</ele>
        <time>2013-05-11T08:35:12Z</time>
      </trkpt>
      <trkpt lat="43.57178" lon="5.63663">
        <ele>655.80004882812</ele>
        <time>2013-05-11T08:35:43Z</time>
      </trkpt>
      <trkpt lat="43.57156" lon="5.63719">
        <ele>656.5</ele>
        <time>2013-05-11T08:36:18Z</time>
      </trkpt>
      <trkpt lat="43.57157" lon="5.63828">
        <ele>656.09997558594</ele>
        <time>2013-05-11T08:36:53Z</time>
      </trkpt>
      <trkpt lat="43.57155" lon="5.63938">
        <ele>662</ele>
        <time>2013-05-11T08:37:28Z</time>
      </trkpt>
      <trkpt lat="43.57147" lon="5.64009">
        <ele>656.30004882812</ele>
        <time>2013-05-11T08:38:00Z</time>
      </trkpt>
      <trkpt lat="43.57135" lon="5.64075">
        <ele>655.19995117188</ele>
        <time>2013-05-11T08:38:35Z</time>
      </trkpt>
      <trkpt lat="43.57128" lon="5.64144">
        <ele>651.80004882812</ele>
        <time>2013-05-11T08:39:10Z</time>
      </trkpt>
      <trkpt lat="43.57121" lon="5.64153">
        <ele>653.40002441406</ele>
        <time>2013-05-11T08:40:10Z</time>
      </trkpt>
      <trkpt lat="43.57127" lon="5.64164">
        <ele>661.80004882812</ele>
        <time>2013-05-11T08:40:43Z</time>
      </trkpt>
      <trkpt lat="43.57124" lon="5.64181">
        <ele>651.69995117188</ele>
        <time>2013-05-11T08:41:53Z</time>
      </trkpt>
      <trkpt lat="43.57127" lon="5.64235">
        <ele>648.5</ele>
        <time>2013-05-11T08:42:21Z</time>
      </trkpt>
      <trkpt lat="43.57137" lon="5.64301">
        <ele>648.80004882812</ele>
        <time>2013-05-11T08:42:56Z</time>
      </trkpt>
      <trkpt lat="43.57133" lon="5.64369">
        <ele>646.09997558594</ele>
        <time>2013-05-11T08:43:31Z</time>
      </trkpt>
      <trkpt lat="43.57131" lon="5.64447">
        <ele>644.69995117188</ele>
        <time>2013-05-11T08:44:06Z</time>
      </trkpt>
      <trkpt lat="43.57117" lon="5.6451">
        <ele>641.19995117188</ele>
        <time>2013-05-11T08:44:40Z</time>
      </trkpt>
      <trkpt lat="43.57103" lon="5.64558">
        <ele>635.90002441406</ele>
        <time>2013-05-11T08:45:09Z</time>
      </trkpt>
      <trkpt lat="43.57102" lon="5.64598">
        <ele>632.59997558594</ele>
        <time>2013-05-11T08:45:44Z</time>
      </trkpt>
      <trkpt lat="43.57147" lon="5.64659">
        <ele>632.30004882812</ele>
        <time>2013-05-11T08:46:14Z</time>
      </trkpt>
      <trkpt lat="43.57148" lon="5.64717">
        <ele>632.19995117188</ele>
        <time>2013-05-11T08:46:46Z</time>
      </trkpt>
      <trkpt lat="43.57152" lon="5.64729">
        <ele>641.19995117188</ele>
        <time>2013-05-11T08:48:11Z</time>
      </trkpt>
      <trkpt lat="43.5715" lon="5.6478">
        <ele>632.90002441406</ele>
        <time>2013-05-11T08:48:46Z</time>
      </trkpt>
      <trkpt lat="43.57157" lon="5.64844">
        <ele>627.5</ele>
        <time>2013-05-11T08:49:20Z</time>
      </trkpt>
      <trkpt lat="43.57167" lon="5.64907">
        <ele>621.59997558594</ele>
        <time>2013-05-11T08:49:55Z</time>
      </trkpt>
      <trkpt lat="43.57168" lon="5.64969">
        <ele>621.40002441406</ele>
        <time>2013-05-11T08:50:30Z</time>
      </trkpt>
      <trkpt lat="43.57175" lon="5.6503">
        <ele>622.19995117188</ele>
        <time>2013-05-11T08:51:04Z</time>
      </trkpt>
      <trkpt lat="43.57182" lon="5.65086">
        <ele>613.90002441406</ele>
        <time>2013-05-11T08:51:39Z</time>
      </trkpt>
      <trkpt lat="43.57181" lon="5.65151">
        <ele>608.90002441406</ele>
        <time>2013-05-11T08:52:13Z</time>
      </trkpt>
      <trkpt lat="43.57187" lon="5.65218">
        <ele>610.30004882812</ele>
        <time>2013-05-11T08:52:48Z</time>
      </trkpt>
      <trkpt lat="43.57187" lon="5.65279">
        <ele>607.40002441406</ele>
        <time>2013-05-11T08:53:22Z</time>
      </trkpt>
      <trkpt lat="43.57191" lon="5.65328">
        <ele>600</ele>
        <time>2013-05-11T08:53:57Z</time>
      </trkpt>
      <trkpt lat="43.57178" lon="5.65396">
        <ele>597.69995117188</ele>
        <time>2013-05-11T08:54:31Z</time>
      </trkpt>
      <trkpt lat="43.57174" lon="5.65456">
        <ele>595.59997558594</ele>
        <time>2013-05-11T08:55:05Z</time>
      </trkpt>
      <trkpt lat="43.5716" lon="5.65511">
        <ele>590.59997558594</ele>
        <time>2013-05-11T08:55:39Z</time>
      </trkpt>
      <trkpt lat="43.57149" lon="5.65564">
        <ele>586.90002441406</ele>
        <time>2013-05-11T08:56:13Z</time>
      </trkpt>
      <trkpt lat="43.57114" lon="5.65608">
        <ele>588.40002441406</ele>
        <time>2013-05-11T08:56:48Z</time>
      </trkpt>
      <trkpt lat="43.57107" lon="5.65679">
        <ele>590.09997558594</ele>
        <time>2013-05-11T08:57:23Z</time>
      </trkpt>
      <trkpt lat="43.5711" lon="5.65746">
        <ele>586.69995117188</ele>
        <time>2013-05-11T08:57:58Z</time>
      </trkpt>
      <trkpt lat="43.57118" lon="5.65813">
        <ele>584.80004882812</ele>
        <time>2013-05-11T08:58:33Z</time>
      </trkpt>
      <trkpt lat="43.57108" lon="5.65892">
        <ele>589.09997558594</ele>
        <time>2013-05-11T08:59:06Z</time>
      </trkpt>
      <trkpt lat="43.57087" lon="5.65957">
        <ele>580.69995117188</ele>
        <time>2013-05-11T08:59:41Z</time>
      </trkpt>
      <trkpt lat="43.57069" lon="5.66025">
        <ele>579.69995117188</ele>
        <time>2013-05-11T09:00:16Z</time>
      </trkpt>
      <trkpt lat="43.57082" lon="5.66059">
        <ele>580</ele>
        <time>2013-05-11T09:00:50Z</time>
      </trkpt>
      <trkpt lat="43.57099" lon="5.66049">
        <ele>580.80004882812</ele>
        <time>2013-05-11T09:02:00Z</time>
      </trkpt>
      <trkpt lat="43.57155" lon="5.66058">
        <ele>577.40002441406</ele>
        <time>2013-05-11T09:02:35Z</time>
      </trkpt>
      <trkpt lat="43.57177" lon="5.66102">
        <ele>566.30004882812</ele>
        <time>2013-05-11T09:03:09Z</time>
      </trkpt>
      <trkpt lat="43.5719" lon="5.66172">
        <ele>576.09997558594</ele>
        <time>2013-05-11T09:03:44Z</time>
      </trkpt>
      <trkpt lat="43.5719" lon="5.66244">
        <ele>569.90002441406</ele>
        <time>2013-05-11T09:04:18Z</time>
      </trkpt>
      <trkpt lat="43.57195" lon="5.66329">
        <ele>562.40002441406</ele>
        <time>2013-05-11T09:04:53Z</time>
      </trkpt>
      <trkpt lat="43.57212" lon="5.66396">
        <ele>570.59997558594</ele>
        <time>2013-05-11T09:05:27Z</time>
      </trkpt>
      <trkpt lat="43.5722" lon="5.66448">
        <ele>565.5</ele>
        <time>2013-05-11T09:06:01Z</time>
      </trkpt>
      <trkpt lat="43.57235" lon="5.6651">
        <ele>560.80004882812</ele>
        <time>2013-05-11T09:06:35Z</time>
      </trkpt>
      <trkpt lat="43.57218" lon="5.66593">
        <ele>556.5</ele>
        <time>2013-05-11T09:07:10Z</time>
      </trkpt>
      <trkpt lat="43.57216" lon="5.6667">
        <ele>562.09997558594</ele>
        <time>2013-05-11T09:07:44Z</time>
      </trkpt>
      <trkpt lat="43.57233" lon="5.66776">
        <ele>559.90002441406</ele>
        <time>2013-05-11T09:08:19Z</time>
      </trkpt>
      <trkpt lat="43.5725" lon="5.66839">
        <ele>559.90002441406</ele>
        <time>2013-05-11T09:08:54Z</time>
      </trkpt>
      <trkpt lat="43.57251" lon="5.66913">
        <ele>559.19995117188</ele>
        <time>2013-05-11T09:09:29Z</time>
      </trkpt>
      <trkpt lat="43.5728" lon="5.67015">
        <ele>565.80004882812</ele>
        <time>2013-05-11T09:10:03Z</time>
      </trkpt>
      <trkpt lat="43.57315" lon="5.67046">
        <ele>563.59997558594</ele>
        <time>2013-05-11T09:10:37Z</time>
      </trkpt>
      <trkpt lat="43.57334" lon="5.67089">
        <ele>562.40002441406</ele>
        <time>2013-05-11T09:11:06Z</time>
      </trkpt>
      <trkpt lat="43.57348" lon="5.67125">
        <ele>569.5</ele>
        <time>2013-05-11T09:11:29Z</time>
      </trkpt>
      <trkpt lat="43.57369" lon="5.67173">
        <ele>571.69995117188</ele>
        <time>2013-05-11T09:12:02Z</time>
      </trkpt>
      <trkpt lat="43.57369" lon="5.67218">
        <ele>569.59997558594</ele>
        <time>2013-05-11T09:12:28Z</time>
      </trkpt>
      <trkpt lat="43.57365" lon="5.6728">
        <ele>565.5</ele>
        <time>2013-05-11T09:13:03Z</time>
      </trkpt>
      <trkpt lat="43.57391" lon="5.67327">
        <ele>560</ele>
        <time>2013-05-11T09:13:37Z</time>
      </trkpt>
      <trkpt lat="43.57417" lon="5.67371">
        <ele>555.80004882812</ele>
        <time>2013-05-11T09:14:06Z</time>
      </trkpt>
      <trkpt lat="43.57435" lon="5.67415">
        <ele>557.40002441406</ele>
        <time>2013-05-11T09:14:33Z</time>
      </trkpt>
      <trkpt lat="43.57446" lon="5.67459">
        <ele>554.40002441406</ele>
        <time>2013-05-11T09:14:59Z</time>
      </trkpt>
      <trkpt lat="43.57453" lon="5.67518">
        <ele>549.19995117188</ele>
        <time>2013-05-11T09:15:32Z</time>
      </trkpt>
      <trkpt lat="43.57458" lon="5.67569">
        <ele>549.40002441406</ele>
        <time>2013-05-11T09:16:01Z</time>
      </trkpt>
      <trkpt lat="43.57458" lon="5.67608">
        <ele>546.30004882812</ele>
        <time>2013-05-11T09:16:28Z</time>
      </trkpt>
      <trkpt lat="43.57456" lon="5.67647">
        <ele>546.40002441406</ele>
        <time>2013-05-11T09:17:03Z</time>
      </trkpt>
      <trkpt lat="43.57456" lon="5.6771">
        <ele>539.59997558594</ele>
        <time>2013-05-11T09:17:37Z</time>
      </trkpt>
      <trkpt lat="43.5746" lon="5.67761">
        <ele>535.69995117188</ele>
        <time>2013-05-11T09:18:08Z</time>
      </trkpt>
      <trkpt lat="43.57461" lon="5.67815">
        <ele>532.59997558594</ele>
        <time>2013-05-11T09:18:34Z</time>
      </trkpt>
      <trkpt lat="43.57469" lon="5.67858">
        <ele>530.69995117188</ele>
        <time>2013-05-11T09:18:57Z</time>
      </trkpt>
      <trkpt lat="43.57472" lon="5.67901">
        <ele>526.40002441406</ele>
        <time>2013-05-11T09:19:20Z</time>
      </trkpt>
      <trkpt lat="43.5748" lon="5.67941">
        <ele>527.19995117188</ele>
        <time>2013-05-11T09:19:43Z</time>
      </trkpt>
      <trkpt lat="43.57523" lon="5.67969">
        <ele>527</ele>
        <time>2013-05-11T09:20:18Z</time>
      </trkpt>
      <trkpt lat="43.57549" lon="5.68004">
        <ele>521.59997558594</ele>
        <time>2013-05-11T09:20:45Z</time>
      </trkpt>
      <trkpt lat="43.57563" lon="5.68048">
        <ele>518</ele>
        <time>2013-05-11T09:21:12Z</time>
      </trkpt>
      <trkpt lat="43.57583" lon="5.68098">
        <ele>513.40002441406</ele>
        <time>2013-05-11T09:21:46Z</time>
      </trkpt>
      <trkpt lat="43.57619" lon="5.68125">
        <ele>517</ele>
        <time>2013-05-11T09:22:21Z</time>
      </trkpt>
      <trkpt lat="43.57652" lon="5.68173">
        <ele>509</ele>
        <time>2013-05-11T09:22:55Z</time>
      </trkpt>
      <trkpt lat="43.5766" lon="5.68244">
        <ele>508.70001220703</ele>
        <time>2013-05-11T09:23:30Z</time>
      </trkpt>
      <trkpt lat="43.57706" lon="5.68294">
        <ele>516.20001220703</ele>
        <time>2013-05-11T09:24:05Z</time>
      </trkpt>
      <trkpt lat="43.57739" lon="5.68369">
        <ele>508.70001220703</ele>
        <time>2013-05-11T09:24:40Z</time>
      </trkpt>
      <trkpt lat="43.57804" lon="5.68539">
        <ele>506</ele>
        <time>2013-05-11T09:25:14Z</time>
      </trkpt>
      <trkpt lat="43.57841" lon="5.68673">
        <ele>503.79998779297</ele>
        <time>2013-05-11T09:25:37Z</time>
      </trkpt>
      <trkpt lat="43.57856" lon="5.68753">
        <ele>503.70001220703</ele>
        <time>2013-05-11T09:26:11Z</time>
      </trkpt>
      <trkpt lat="43.57877" lon="5.68818">
        <ele>507</ele>
        <time>2013-05-11T09:26:46Z</time>
      </trkpt>
      <trkpt lat="43.579" lon="5.68887">
        <ele>503.40002441406</ele>
        <time>2013-05-11T09:27:21Z</time>
      </trkpt>
      <trkpt lat="43.57916" lon="5.68958">
        <ele>501.70001220703</ele>
        <time>2013-05-11T09:27:56Z</time>
      </trkpt>
      <trkpt lat="43.57922" lon="5.69032">
        <ele>495.90002441406</ele>
        <time>2013-05-11T09:28:30Z</time>
      </trkpt>
      <trkpt lat="43.57918" lon="5.69116">
        <ele>494.20001220703</ele>
        <time>2013-05-11T09:29:05Z</time>
      </trkpt>
      <trkpt lat="43.57914" lon="5.69186">
        <ele>492.79998779297</ele>
        <time>2013-05-11T09:29:40Z</time>
      </trkpt>
      <trkpt lat="43.57913" lon="5.69271">
        <ele>498.09997558594</ele>
        <time>2013-05-11T09:30:15Z</time>
      </trkpt>
      <trkpt lat="43.57931" lon="5.69356">
        <ele>492.29998779297</ele>
        <time>2013-05-11T09:30:49Z</time>
      </trkpt>
      <trkpt lat="43.57936" lon="5.6943">
        <ele>491.29998779297</ele>
        <time>2013-05-11T09:31:23Z</time>
      </trkpt>
      <trkpt lat="43.57947" lon="5.69507">
        <ele>495.5</ele>
        <time>2013-05-11T09:31:57Z</time>
      </trkpt>
      <trkpt lat="43.57968" lon="5.6958">
        <ele>487.79998779297</ele>
        <time>2013-05-11T09:32:32Z</time>
      </trkpt>
      <trkpt lat="43.57976" lon="5.69677">
        <ele>485</ele>
        <time>2013-05-11T09:33:04Z</time>
      </trkpt>
      <trkpt lat="43.5799" lon="5.69748">
        <ele>484.79998779297</ele>
        <time>2013-05-11T09:33:39Z</time>
      </trkpt>
      <trkpt lat="43.58003" lon="5.69816">
        <ele>481.20001220703</ele>
        <time>2013-05-11T09:34:14Z</time>
      </trkpt>
      <trkpt lat="43.58012" lon="5.69888">
        <ele>481.29998779297</ele>
        <time>2013-05-11T09:34:48Z</time>
      </trkpt>
      <trkpt lat="43.58037" lon="5.69959">
        <ele>482.90002441406</ele>
        <time>2013-05-11T09:35:22Z</time>
      </trkpt>
      <trkpt lat="43.58054" lon="5.70029">
        <ele>473.20001220703</ele>
        <time>2013-05-11T09:35:57Z</time>
      </trkpt>
      <trkpt lat="43.58091" lon="5.70202">
        <ele>477.09997558594</ele>
        <time>2013-05-11T09:36:32Z</time>
      </trkpt>
      <trkpt lat="43.5811" lon="5.70292">
        <ele>477.59997558594</ele>
        <time>2013-05-11T09:37:07Z</time>
      </trkpt>
      <trkpt lat="43.58121" lon="5.70353">
        <ele>478.29998779297</ele>
        <time>2013-05-11T09:37:41Z</time>
      </trkpt>
      <trkpt lat="43.58131" lon="5.70415">
        <ele>472.59997558594</ele>
        <time>2013-05-11T09:38:15Z</time>
      </trkpt>
      <trkpt lat="43.58154" lon="5.70493">
        <ele>480</ele>
        <time>2013-05-11T09:38:51Z</time>
      </trkpt>
      <trkpt lat="43.58184" lon="5.7056">
        <ele>475.79998779297</ele>
        <time>2013-05-11T09:39:26Z</time>
      </trkpt>
      <trkpt lat="43.58219" lon="5.70619">
        <ele>474.79998779297</ele>
        <time>2013-05-11T09:40:00Z</time>
      </trkpt>
      <trkpt lat="43.58239" lon="5.70681">
        <ele>469.40002441406</ele>
        <time>2013-05-11T09:40:34Z</time>
      </trkpt>
      <trkpt lat="43.58235" lon="5.70737">
        <ele>465.79998779297</ele>
        <time>2013-05-11T09:41:04Z</time>
      </trkpt>
      <trkpt lat="43.58225" lon="5.70808">
        <ele>465.20001220703</ele>
        <time>2013-05-11T09:41:39Z</time>
      </trkpt>
      <trkpt lat="43.58199" lon="5.7087">
        <ele>467.29998779297</ele>
        <time>2013-05-11T09:42:08Z</time>
      </trkpt>
      <trkpt lat="43.58195" lon="5.7097">
        <ele>461</ele>
        <time>2013-05-11T09:42:41Z</time>
      </trkpt>
      <trkpt lat="43.58179" lon="5.71026">
        <ele>461.29998779297</ele>
        <time>2013-05-11T09:43:09Z</time>
      </trkpt>
      <trkpt lat="43.58159" lon="5.71088">
        <ele>458</ele>
        <time>2013-05-11T09:43:44Z</time>
      </trkpt>
      <trkpt lat="43.58137" lon="5.71137">
        <ele>458.5</ele>
        <time>2013-05-11T09:44:10Z</time>
      </trkpt>
      <trkpt lat="43.5812" lon="5.71209">
        <ele>468.09997558594</ele>
        <time>2013-05-11T09:44:36Z</time>
      </trkpt>
      <trkpt lat="43.58106" lon="5.71276">
        <ele>448.90002441406</ele>
        <time>2013-05-11T09:45:07Z</time>
      </trkpt>
      <trkpt lat="43.58085" lon="5.71334">
        <ele>455.29998779297</ele>
        <time>2013-05-11T09:45:42Z</time>
      </trkpt>
      <trkpt lat="43.58124" lon="5.71374">
        <ele>460.29998779297</ele>
        <time>2013-05-11T09:46:16Z</time>
      </trkpt>
      <trkpt lat="43.5815" lon="5.71428">
        <ele>445.5</ele>
        <time>2013-05-11T09:46:50Z</time>
      </trkpt>
      <trkpt lat="43.58177" lon="5.71487">
        <ele>442</ele>
        <time>2013-05-11T09:47:25Z</time>
      </trkpt>
      <trkpt lat="43.58194" lon="5.71551">
        <ele>451.20001220703</ele>
        <time>2013-05-11T09:47:52Z</time>
      </trkpt>
      <trkpt lat="43.58212" lon="5.71621">
        <ele>439.70001220703</ele>
        <time>2013-05-11T09:48:27Z</time>
      </trkpt>
      <trkpt lat="43.58208" lon="5.71696">
        <ele>446.09997558594</ele>
        <time>2013-05-11T09:49:02Z</time>
      </trkpt>
      <trkpt lat="43.58198" lon="5.71766">
        <ele>443.40002441406</ele>
        <time>2013-05-11T09:49:35Z</time>
      </trkpt>
      <trkpt lat="43.58195" lon="5.71839">
        <ele>442.09997558594</ele>
        <time>2013-05-11T09:50:08Z</time>
      </trkpt>
      <trkpt lat="43.58209" lon="5.71891">
        <ele>435.59997558594</ele>
        <time>2013-05-11T09:50:37Z</time>
      </trkpt>
      <trkpt lat="43.58223" lon="5.71948">
        <ele>438.90002441406</ele>
        <time>2013-05-11T09:51:04Z</time>
      </trkpt>
      <trkpt lat="43.58228" lon="5.71936">
        <ele>428.90002441406</ele>
        <time>2013-05-11T09:51:29Z</time>
      </trkpt>
      <trkpt lat="43.58203" lon="5.71923">
        <ele>440.5</ele>
        <time>2013-05-11T09:51:52Z</time>
      </trkpt>
      <trkpt lat="43.58215" lon="5.71917">
        <ele>459.09997558594</ele>
        <time>2013-05-11T09:52:24Z</time>
      </trkpt>
      <trkpt lat="43.58212" lon="5.71897">
        <ele>440.5</ele>
        <time>2013-05-11T09:52:51Z</time>
      </trkpt>
      <trkpt lat="43.58197" lon="5.71906">
        <ele>436.70001220703</ele>
        <time>2013-05-11T09:53:16Z</time>
      </trkpt>
      <trkpt lat="43.58195" lon="5.71936">
        <ele>435.5</ele>
        <time>2013-05-11T09:53:42Z</time>
      </trkpt>
      <trkpt lat="43.58186" lon="5.71953">
        <ele>438.20001220703</ele>
        <time>2013-05-11T09:54:07Z</time>
      </trkpt>
      <trkpt lat="43.58173" lon="5.71978">
        <ele>444.90002441406</ele>
        <time>2013-05-11T09:54:32Z</time>
      </trkpt>
      <trkpt lat="43.58196" lon="5.71944">
        <ele>447.20001220703</ele>
        <time>2013-05-11T09:55:31Z</time>
      </trkpt>
      <trkpt lat="43.58202" lon="5.71914">
        <ele>449.09997558594</ele>
        <time>2013-05-11T09:56:06Z</time>
      </trkpt>
      <trkpt lat="43.58215" lon="5.71909">
        <ele>452.5</ele>
        <time>2013-05-11T09:57:57Z</time>
      </trkpt>
      <trkpt lat="43.58226" lon="5.71954">
        <ele>435.59997558594</ele>
        <time>2013-05-11T09:58:58Z</time>
      </trkpt>
      <trkpt lat="43.58245" lon="5.71993">
        <ele>428.40002441406</ele>
        <time>2013-05-11T09:59:23Z</time>
      </trkpt>
      <trkpt lat="43.58266" lon="5.7206">
        <ele>431.79998779297</ele>
        <time>2013-05-11T09:59:58Z</time>
      </trkpt>
      <trkpt lat="43.5829" lon="5.72126">
        <ele>430.09997558594</ele>
        <time>2013-05-11T10:00:33Z</time>
      </trkpt>
      <trkpt lat="43.58291" lon="5.72182">
        <ele>426.59997558594</ele>
        <time>2013-05-11T10:01:02Z</time>
      </trkpt>
      <trkpt lat="43.58297" lon="5.72229">
        <ele>420.79998779297</ele>
        <time>2013-05-11T10:01:26Z</time>
      </trkpt>
      <trkpt lat="43.58305" lon="5.72279">
        <ele>415.09997558594</ele>
        <time>2013-05-11T10:01:49Z</time>
      </trkpt>
      <trkpt lat="43.58307" lon="5.72318">
        <ele>403.90002441406</ele>
        <time>2013-05-11T10:02:12Z</time>
      </trkpt>
      <trkpt lat="43.58306" lon="5.72358">
        <ele>407.20001220703</ele>
        <time>2013-05-11T10:02:36Z</time>
      </trkpt>
      <trkpt lat="43.58329" lon="5.72402">
        <ele>402.09997558594</ele>
        <time>2013-05-11T10:02:59Z</time>
      </trkpt>
      <trkpt lat="43.58354" lon="5.72457">
        <ele>413.90002441406</ele>
        <time>2013-05-11T10:03:24Z</time>
      </trkpt>
      <trkpt lat="43.58357" lon="5.72486">
        <ele>447.59997558594</ele>
        <time>2013-05-11T10:03:59Z</time>
      </trkpt>
      <trkpt lat="43.5838" lon="5.72514">
        <ele>441.40002441406</ele>
        <time>2013-05-11T10:04:24Z</time>
      </trkpt>
      <trkpt lat="43.5841" lon="5.72535">
        <ele>425.29998779297</ele>
        <time>2013-05-11T10:04:50Z</time>
      </trkpt>
      <trkpt lat="43.58423" lon="5.7263">
        <ele>423.90002441406</ele>
        <time>2013-05-11T10:05:33Z</time>
      </trkpt>
      <trkpt lat="43.58439" lon="5.72683">
        <ele>436.29998779297</ele>
        <time>2013-05-11T10:05:57Z</time>
      </trkpt>
      <trkpt lat="43.58425" lon="5.72706">
        <ele>424.29998779297</ele>
        <time>2013-05-11T10:06:22Z</time>
      </trkpt>
      <trkpt lat="43.58434" lon="5.72756">
        <ele>411</ele>
        <time>2013-05-11T10:06:52Z</time>
      </trkpt>
      <trkpt lat="43.58445" lon="5.72811">
        <ele>423.20001220703</ele>
        <time>2013-05-11T10:07:19Z</time>
      </trkpt>
      <trkpt lat="43.58442" lon="5.72865">
        <ele>436.59997558594</ele>
        <time>2013-05-11T10:07:46Z</time>
      </trkpt>
      <trkpt lat="43.5842" lon="5.72905">
        <ele>434</ele>
        <time>2013-05-11T10:08:12Z</time>
      </trkpt>
      <trkpt lat="43.58364" lon="5.72907">
        <ele>442.59997558594</ele>
        <time>2013-05-11T10:08:39Z</time>
      </trkpt>
      <trkpt lat="43.58308" lon="5.72892">
        <ele>467.40002441406</ele>
        <time>2013-05-11T10:09:07Z</time>
      </trkpt>
      <trkpt lat="43.58284" lon="5.7287">
        <ele>457.79998779297</ele>
        <time>2013-05-11T10:09:38Z</time>
      </trkpt>
      <trkpt lat="43.58243" lon="5.72848">
        <ele>455.09997558594</ele>
        <time>2013-05-11T10:10:07Z</time>
      </trkpt>
      <trkpt lat="43.58197" lon="5.72871">
        <ele>448.79998779297</ele>
        <time>2013-05-11T10:10:33Z</time>
      </trkpt>
      <trkpt lat="43.58164" lon="5.72904">
        <ele>445.90002441406</ele>
        <time>2013-05-11T10:10:59Z</time>
      </trkpt>
      <trkpt lat="43.58148" lon="5.72929">
        <ele>423.70001220703</ele>
        <time>2013-05-11T10:11:24Z</time>
      </trkpt>
      <trkpt lat="43.58145" lon="5.72948">
        <ele>433.70001220703</ele>
        <time>2013-05-11T10:11:59Z</time>
      </trkpt>
      <trkpt lat="43.5815" lon="5.72932">
        <ele>394</ele>
        <time>2013-05-11T10:12:33Z</time>
      </trkpt>
      <trkpt lat="43.5815" lon="5.72946">
        <ele>428.20001220703</ele>
        <time>2013-05-11T10:13:23Z</time>
      </trkpt>
      <trkpt lat="43.58145" lon="5.72968">
        <ele>435.70001220703</ele>
        <time>2013-05-11T10:14:23Z</time>
      </trkpt>
      <trkpt lat="43.58138" lon="5.7295">
        <ele>429.5</ele>
        <time>2013-05-11T11:21:04Z</time>
      </trkpt>
      <trkpt lat="43.5811" lon="5.72993">
        <ele>420.5</ele>
        <time>2013-05-11T11:21:38Z</time>
      </trkpt>
      <trkpt lat="43.58155" lon="5.72923">
        <ele>425.09997558594</ele>
        <time>2013-05-11T11:22:12Z</time>
      </trkpt>
      <trkpt lat="43.58188" lon="5.72889">
        <ele>431.70001220703</ele>
        <time>2013-05-11T11:22:47Z</time>
      </trkpt>
      <trkpt lat="43.5823" lon="5.72855">
        <ele>430.79998779297</ele>
        <time>2013-05-11T11:23:22Z</time>
      </trkpt>
      <trkpt lat="43.58268" lon="5.72863">
        <ele>423.5</ele>
        <time>2013-05-11T11:23:56Z</time>
      </trkpt>
      <trkpt lat="43.58321" lon="5.72872">
        <ele>431.90002441406</ele>
        <time>2013-05-11T11:24:31Z</time>
      </trkpt>
      <trkpt lat="43.58357" lon="5.72892">
        <ele>428</ele>
        <time>2013-05-11T11:25:03Z</time>
      </trkpt>
      <trkpt lat="43.58394" lon="5.72906">
        <ele>430.40002441406</ele>
        <time>2013-05-11T11:25:32Z</time>
      </trkpt>
      <trkpt lat="43.58427" lon="5.72902">
        <ele>430.09997558594</ele>
        <time>2013-05-11T11:25:58Z</time>
      </trkpt>
      <trkpt lat="43.58466" lon="5.72885">
        <ele>431</ele>
        <time>2013-05-11T11:26:33Z</time>
      </trkpt>
      <trkpt lat="43.58486" lon="5.7295">
        <ele>430.20001220703</ele>
        <time>2013-05-11T11:27:09Z</time>
      </trkpt>
      <trkpt lat="43.58512" lon="5.72999">
        <ele>427.29998779297</ele>
        <time>2013-05-11T11:27:43Z</time>
      </trkpt>
      <trkpt lat="43.58542" lon="5.73043">
        <ele>439.90002441406</ele>
        <time>2013-05-11T11:28:20Z</time>
      </trkpt>
      <trkpt lat="43.58567" lon="5.73089">
        <ele>428.59997558594</ele>
        <time>2013-05-11T11:28:54Z</time>
      </trkpt>
      <trkpt lat="43.58573" lon="5.7315">
        <ele>444</ele>
        <time>2013-05-11T11:29:34Z</time>
      </trkpt>
      <trkpt lat="43.58566" lon="5.73201">
        <ele>450.20001220703</ele>
        <time>2013-05-11T11:30:09Z</time>
      </trkpt>
      <trkpt lat="43.58594" lon="5.73251">
        <ele>435.5</ele>
        <time>2013-05-11T11:30:47Z</time>
      </trkpt>
      <trkpt lat="43.58617" lon="5.73309">
        <ele>439.70001220703</ele>
        <time>2013-05-11T11:31:22Z</time>
      </trkpt>
      <trkpt lat="43.58636" lon="5.73379">
        <ele>454.40002441406</ele>
        <time>2013-05-11T11:31:57Z</time>
      </trkpt>
      <trkpt lat="43.58641" lon="5.73448">
        <ele>453.90002441406</ele>
        <time>2013-05-11T11:32:42Z</time>
      </trkpt>
      <trkpt lat="43.58681" lon="5.73499">
        <ele>446.79998779297</ele>
        <time>2013-05-11T11:33:26Z</time>
      </trkpt>
      <trkpt lat="43.58707" lon="5.73587">
        <ele>483.79998779297</ele>
        <time>2013-05-11T11:34:20Z</time>
      </trkpt>
      <trkpt lat="43.58747" lon="5.7362">
        <ele>468.09997558594</ele>
        <time>2013-05-11T11:34:54Z</time>
      </trkpt>
      <trkpt lat="43.58783" lon="5.73669">
        <ele>471.70001220703</ele>
        <time>2013-05-11T11:35:34Z</time>
      </trkpt>
      <trkpt lat="43.58819" lon="5.73699">
        <ele>474.29998779297</ele>
        <time>2013-05-11T11:36:09Z</time>
      </trkpt>
      <trkpt lat="43.58849" lon="5.73736">
        <ele>480.59997558594</ele>
        <time>2013-05-11T11:36:43Z</time>
      </trkpt>
      <trkpt lat="43.58873" lon="5.73794">
        <ele>487.5</ele>
        <time>2013-05-11T11:37:27Z</time>
      </trkpt>
      <trkpt lat="43.58878" lon="5.73845">
        <ele>498.20001220703</ele>
        <time>2013-05-11T11:38:01Z</time>
      </trkpt>
      <trkpt lat="43.5885" lon="5.73878">
        <ele>496.90002441406</ele>
        <time>2013-05-11T11:38:35Z</time>
      </trkpt>
      <trkpt lat="43.58842" lon="5.73834">
        <ele>494.40002441406</ele>
        <time>2013-05-11T11:39:15Z</time>
      </trkpt>
      <trkpt lat="43.58806" lon="5.73797">
        <ele>504.5</ele>
        <time>2013-05-11T11:39:48Z</time>
      </trkpt>
      <trkpt lat="43.58771" lon="5.73779">
        <ele>496.70001220703</ele>
        <time>2013-05-11T11:40:19Z</time>
      </trkpt>
      <trkpt lat="43.58732" lon="5.73801">
        <ele>490</ele>
        <time>2013-05-11T11:40:52Z</time>
      </trkpt>
      <trkpt lat="43.58766" lon="5.73837">
        <ele>517.79998779297</ele>
        <time>2013-05-11T11:42:02Z</time>
      </trkpt>
      <trkpt lat="43.58769" lon="5.73893">
        <ele>524.5</ele>
        <time>2013-05-11T11:42:38Z</time>
      </trkpt>
      <trkpt lat="43.58768" lon="5.73952">
        <ele>525</ele>
        <time>2013-05-11T11:43:12Z</time>
      </trkpt>
      <trkpt lat="43.58783" lon="5.74011">
        <ele>522.70001220703</ele>
        <time>2013-05-11T11:43:47Z</time>
      </trkpt>
      <trkpt lat="43.58787" lon="5.7406">
        <ele>527.40002441406</ele>
        <time>2013-05-11T11:44:22Z</time>
      </trkpt>
      <trkpt lat="43.5878" lon="5.74124">
        <ele>529.59997558594</ele>
        <time>2013-05-11T11:44:55Z</time>
      </trkpt>
      <trkpt lat="43.58813" lon="5.74151">
        <ele>526.59997558594</ele>
        <time>2013-05-11T11:45:29Z</time>
      </trkpt>
      <trkpt lat="43.58859" lon="5.74156">
        <ele>527.30004882812</ele>
        <time>2013-05-11T11:46:04Z</time>
      </trkpt>
      <trkpt lat="43.58908" lon="5.74158">
        <ele>533.09997558594</ele>
        <time>2013-05-11T11:46:39Z</time>
      </trkpt>
      <trkpt lat="43.58951" lon="5.7414">
        <ele>535.59997558594</ele>
        <time>2013-05-11T11:47:13Z</time>
      </trkpt>
      <trkpt lat="43.58989" lon="5.7411">
        <ele>533.90002441406</ele>
        <time>2013-05-11T11:47:48Z</time>
      </trkpt>
      <trkpt lat="43.59042" lon="5.74101">
        <ele>529.40002441406</ele>
        <time>2013-05-11T11:48:23Z</time>
      </trkpt>
      <trkpt lat="43.59083" lon="5.74111">
        <ele>530.80004882812</ele>
        <time>2013-05-11T11:48:58Z</time>
      </trkpt>
      <trkpt lat="43.59093" lon="5.74122">
        <ele>530.59997558594</ele>
        <time>2013-05-11T11:49:32Z</time>
      </trkpt>
      <trkpt lat="43.59127" lon="5.74139">
        <ele>524.59997558594</ele>
        <time>2013-05-11T11:50:07Z</time>
      </trkpt>
      <trkpt lat="43.59173" lon="5.74158">
        <ele>522.40002441406</ele>
        <time>2013-05-11T11:50:42Z</time>
      </trkpt>
      <trkpt lat="43.59192" lon="5.74244">
        <ele>524.69995117188</ele>
        <time>2013-05-11T11:51:17Z</time>
      </trkpt>
      <trkpt lat="43.59221" lon="5.74272">
        <ele>516.29998779297</ele>
        <time>2013-05-11T11:51:51Z</time>
      </trkpt>
      <trkpt lat="43.59249" lon="5.74321">
        <ele>524.09997558594</ele>
        <time>2013-05-11T11:52:26Z</time>
      </trkpt>
      <trkpt lat="43.59282" lon="5.74356">
        <ele>517.70001220703</ele>
        <time>2013-05-11T11:53:00Z</time>
      </trkpt>
      <trkpt lat="43.59289" lon="5.74374">
        <ele>530.09997558594</ele>
        <time>2013-05-11T11:53:34Z</time>
      </trkpt>
      <trkpt lat="43.59338" lon="5.74384">
        <ele>514.59997558594</ele>
        <time>2013-05-11T11:54:44Z</time>
      </trkpt>
      <trkpt lat="43.59356" lon="5.74412">
        <ele>516.90002441406</ele>
        <time>2013-05-11T11:55:18Z</time>
      </trkpt>
      <trkpt lat="43.59361" lon="5.74433">
        <ele>514.29998779297</ele>
        <time>2013-05-11T11:55:53Z</time>
      </trkpt>
      <trkpt lat="43.59355" lon="5.74468">
        <ele>515.70001220703</ele>
        <time>2013-05-11T11:56:27Z</time>
      </trkpt>
      <trkpt lat="43.59373" lon="5.74516">
        <ele>508.70001220703</ele>
        <time>2013-05-11T11:57:01Z</time>
      </trkpt>
      <trkpt lat="43.59396" lon="5.74552">
        <ele>497.59997558594</ele>
        <time>2013-05-11T11:57:35Z</time>
      </trkpt>
      <trkpt lat="43.59425" lon="5.74579">
        <ele>488.59997558594</ele>
        <time>2013-05-11T11:58:09Z</time>
      </trkpt>
      <trkpt lat="43.59444" lon="5.74617">
        <ele>484.20001220703</ele>
        <time>2013-05-11T11:58:43Z</time>
      </trkpt>
      <trkpt lat="43.59466" lon="5.7463">
        <ele>478.29998779297</ele>
        <time>2013-05-11T11:59:17Z</time>
      </trkpt>
      <trkpt lat="43.59492" lon="5.74681">
        <ele>474.29998779297</ele>
        <time>2013-05-11T11:59:51Z</time>
      </trkpt>
      <trkpt lat="43.59529" lon="5.7472">
        <ele>469.59997558594</ele>
        <time>2013-05-11T12:00:26Z</time>
      </trkpt>
      <trkpt lat="43.59555" lon="5.74765">
        <ele>466.70001220703</ele>
        <time>2013-05-11T12:01:00Z</time>
      </trkpt>
      <trkpt lat="43.59567" lon="5.7479">
        <ele>468.20001220703</ele>
        <time>2013-05-11T12:01:35Z</time>
      </trkpt>
      <trkpt lat="43.59602" lon="5.7481">
        <ele>460.09997558594</ele>
        <time>2013-05-11T12:02:09Z</time>
      </trkpt>
      <trkpt lat="43.59644" lon="5.74823">
        <ele>462.09997558594</ele>
        <time>2013-05-11T12:02:43Z</time>
      </trkpt>
      <trkpt lat="43.59695" lon="5.74815">
        <ele>457.29998779297</ele>
        <time>2013-05-11T12:03:17Z</time>
      </trkpt>
      <trkpt lat="43.5974" lon="5.74818">
        <ele>454.90002441406</ele>
        <time>2013-05-11T12:03:52Z</time>
      </trkpt>
      <trkpt lat="43.59782" lon="5.74828">
        <ele>446.09997558594</ele>
        <time>2013-05-11T12:04:25Z</time>
      </trkpt>
      <trkpt lat="43.59826" lon="5.74854">
        <ele>442</ele>
        <time>2013-05-11T12:05:00Z</time>
      </trkpt>
      <trkpt lat="43.59878" lon="5.7488">
        <ele>443.09997558594</ele>
        <time>2013-05-11T12:05:34Z</time>
      </trkpt>
      <trkpt lat="43.59922" lon="5.74905">
        <ele>441.79998779297</ele>
        <time>2013-05-11T12:06:09Z</time>
      </trkpt>
      <trkpt lat="43.59975" lon="5.74931">
        <ele>440.09997558594</ele>
        <time>2013-05-11T12:06:44Z</time>
      </trkpt>
      <trkpt lat="43.60021" lon="5.74948">
        <ele>452</ele>
        <time>2013-05-11T12:07:19Z</time>
      </trkpt>
      <trkpt lat="43.60068" lon="5.7494">
        <ele>451</ele>
        <time>2013-05-11T12:07:54Z</time>
      </trkpt>
      <trkpt lat="43.60128" lon="5.74967">
        <ele>443.90002441406</ele>
        <time>2013-05-11T12:08:29Z</time>
      </trkpt>
      <trkpt lat="43.60167" lon="5.74981">
        <ele>441.59997558594</ele>
        <time>2013-05-11T12:09:00Z</time>
      </trkpt>
      <trkpt lat="43.60189" lon="5.74987">
        <ele>440.09997558594</ele>
        <time>2013-05-11T12:09:28Z</time>
      </trkpt>
      <trkpt lat="43.60234" lon="5.75">
        <ele>442.5</ele>
        <time>2013-05-11T12:10:03Z</time>
      </trkpt>
      <trkpt lat="43.60257" lon="5.7501">
        <ele>439.40002441406</ele>
        <time>2013-05-11T12:10:33Z</time>
      </trkpt>
      <trkpt lat="43.60262" lon="5.75045">
        <ele>441.70001220703</ele>
        <time>2013-05-11T12:12:08Z</time>
      </trkpt>
      <trkpt lat="43.60283" lon="5.75086">
        <ele>443.90002441406</ele>
        <time>2013-05-11T12:12:36Z</time>
      </trkpt>
      <trkpt lat="43.60311" lon="5.75128">
        <ele>434</ele>
        <time>2013-05-11T12:13:11Z</time>
      </trkpt>
      <trkpt lat="43.60353" lon="5.75156">
        <ele>437.40002441406</ele>
        <time>2013-05-11T12:13:45Z</time>
      </trkpt>
      <trkpt lat="43.60385" lon="5.75204">
        <ele>437.40002441406</ele>
        <time>2013-05-11T12:14:20Z</time>
      </trkpt>
      <trkpt lat="43.60414" lon="5.75259">
        <ele>437.09997558594</ele>
        <time>2013-05-11T12:14:55Z</time>
      </trkpt>
      <trkpt lat="43.60444" lon="5.7531">
        <ele>434.59997558594</ele>
        <time>2013-05-11T12:15:30Z</time>
      </trkpt>
      <trkpt lat="43.60485" lon="5.75348">
        <ele>436.20001220703</ele>
        <time>2013-05-11T12:16:05Z</time>
      </trkpt>
      <trkpt lat="43.60533" lon="5.75389">
        <ele>451.70001220703</ele>
        <time>2013-05-11T12:16:40Z</time>
      </trkpt>
      <trkpt lat="43.60565" lon="5.75419">
        <ele>439.90002441406</ele>
        <time>2013-05-11T12:17:09Z</time>
      </trkpt>
      <trkpt lat="43.60585" lon="5.7544">
        <ele>450.90002441406</ele>
        <time>2013-05-11T12:17:44Z</time>
      </trkpt>
      <trkpt lat="43.60609" lon="5.75472">
        <ele>427.70001220703</ele>
        <time>2013-05-11T12:18:52Z</time>
      </trkpt>
      <trkpt lat="43.60604" lon="5.75484">
        <ele>433.5</ele>
        <time>2013-05-11T12:20:35Z</time>
      </trkpt>
      <trkpt lat="43.6058" lon="5.75541">
        <ele>431.79998779297</ele>
        <time>2013-05-11T12:21:56Z</time>
      </trkpt>
      <trkpt lat="43.60581" lon="5.75593">
        <ele>445.59997558594</ele>
        <time>2013-05-11T12:22:24Z</time>
      </trkpt>
      <trkpt lat="43.60553" lon="5.75641">
        <ele>436.90002441406</ele>
        <time>2013-05-11T12:22:58Z</time>
      </trkpt>
      <trkpt lat="43.60546" lon="5.75703">
        <ele>441.40002441406</ele>
        <time>2013-05-11T12:23:34Z</time>
      </trkpt>
      <trkpt lat="43.60547" lon="5.75766">
        <ele>446.5</ele>
        <time>2013-05-11T12:24:08Z</time>
      </trkpt>
      <trkpt lat="43.60521" lon="5.75812">
        <ele>441.70001220703</ele>
        <time>2013-05-11T12:24:43Z</time>
      </trkpt>
      <trkpt lat="43.60509" lon="5.7587">
        <ele>447.5</ele>
        <time>2013-05-11T12:25:13Z</time>
      </trkpt>
      <trkpt lat="43.60514" lon="5.75928">
        <ele>447</ele>
        <time>2013-05-11T12:25:47Z</time>
      </trkpt>
      <trkpt lat="43.60515" lon="5.75987">
        <ele>436</ele>
        <time>2013-05-11T12:26:20Z</time>
      </trkpt>
      <trkpt lat="43.60517" lon="5.76039">
        <ele>431.5</ele>
        <time>2013-05-11T12:26:49Z</time>
      </trkpt>
      <trkpt lat="43.60524" lon="5.761">
        <ele>429</ele>
        <time>2013-05-11T12:27:23Z</time>
      </trkpt>
      <trkpt lat="43.60563" lon="5.76138">
        <ele>429</ele>
        <time>2013-05-11T12:27:58Z</time>
      </trkpt>
      <trkpt lat="43.60587" lon="5.76168">
        <ele>424.90002441406</ele>
        <time>2013-05-11T12:28:21Z</time>
      </trkpt>
      <trkpt lat="43.60616" lon="5.76196">
        <ele>422</ele>
        <time>2013-05-11T12:28:49Z</time>
      </trkpt>
      <trkpt lat="43.60652" lon="5.76236">
        <ele>422.70001220703</ele>
        <time>2013-05-11T12:29:24Z</time>
      </trkpt>
      <trkpt lat="43.60673" lon="5.7628">
        <ele>420.09997558594</ele>
        <time>2013-05-11T12:29:52Z</time>
      </trkpt>
      <trkpt lat="43.60688" lon="5.76322">
        <ele>414.20001220703</ele>
        <time>2013-05-11T12:30:19Z</time>
      </trkpt>
      <trkpt lat="43.60709" lon="5.76385">
        <ele>412.70001220703</ele>
        <time>2013-05-11T12:30:54Z</time>
      </trkpt>
      <trkpt lat="43.60727" lon="5.76423">
        <ele>410.40002441406</ele>
        <time>2013-05-11T12:31:17Z</time>
      </trkpt>
      <trkpt lat="43.60747" lon="5.7646">
        <ele>415.59997558594</ele>
        <time>2013-05-11T12:31:40Z</time>
      </trkpt>
      <trkpt lat="43.60765" lon="5.765">
        <ele>418.20001220703</ele>
        <time>2013-05-11T12:32:05Z</time>
      </trkpt>
      <trkpt lat="43.60786" lon="5.7656">
        <ele>420.29998779297</ele>
        <time>2013-05-11T12:32:36Z</time>
      </trkpt>
      <trkpt lat="43.60814" lon="5.76611">
        <ele>427.29998779297</ele>
        <time>2013-05-11T12:33:11Z</time>
      </trkpt>
      <trkpt lat="43.60811" lon="5.76674">
        <ele>432.40002441406</ele>
        <time>2013-05-11T12:33:46Z</time>
      </trkpt>
      <trkpt lat="43.60808" lon="5.76733">
        <ele>434.5</ele>
        <time>2013-05-11T12:34:21Z</time>
      </trkpt>
      <trkpt lat="43.60808" lon="5.76795">
        <ele>440.40002441406</ele>
        <time>2013-05-11T12:34:51Z</time>
      </trkpt>
      <trkpt lat="43.60793" lon="5.76852">
        <ele>438.90002441406</ele>
        <time>2013-05-11T12:35:25Z</time>
      </trkpt>
      <trkpt lat="43.60787" lon="5.76897">
        <ele>439.09997558594</ele>
        <time>2013-05-11T12:36:00Z</time>
      </trkpt>
      <trkpt lat="43.60787" lon="5.7694">
        <ele>433.70001220703</ele>
        <time>2013-05-11T12:36:24Z</time>
      </trkpt>
      <trkpt lat="43.60785" lon="5.76987">
        <ele>429.09997558594</ele>
        <time>2013-05-11T12:36:52Z</time>
      </trkpt>
      <trkpt lat="43.60786" lon="5.77032">
        <ele>425.5</ele>
        <time>2013-05-11T12:37:18Z</time>
      </trkpt>
      <trkpt lat="43.6079" lon="5.77083">
        <ele>421.40002441406</ele>
        <time>2013-05-11T12:37:46Z</time>
      </trkpt>
      <trkpt lat="43.60799" lon="5.77126">
        <ele>413</ele>
        <time>2013-05-11T12:38:16Z</time>
      </trkpt>
      <trkpt lat="43.60817" lon="5.77187">
        <ele>411.90002441406</ele>
        <time>2013-05-11T12:38:51Z</time>
      </trkpt>
      <trkpt lat="43.60827" lon="5.7725">
        <ele>406.40002441406</ele>
        <time>2013-05-11T12:39:25Z</time>
      </trkpt>
      <trkpt lat="43.60842" lon="5.77316">
        <ele>415.20001220703</ele>
        <time>2013-05-11T12:40:00Z</time>
      </trkpt>
      <trkpt lat="43.6087" lon="5.77388">
        <ele>416.20001220703</ele>
        <time>2013-05-11T12:40:54Z</time>
      </trkpt>
      <trkpt lat="43.609" lon="5.77434">
        <ele>409.90002441406</ele>
        <time>2013-05-11T12:41:28Z</time>
      </trkpt>
      <trkpt lat="43.60929" lon="5.77479">
        <ele>405.90002441406</ele>
        <time>2013-05-11T12:42:03Z</time>
      </trkpt>
      <trkpt lat="43.60962" lon="5.77533">
        <ele>410.59997558594</ele>
        <time>2013-05-11T12:42:38Z</time>
      </trkpt>
      <trkpt lat="43.60997" lon="5.77571">
        <ele>412.70001220703</ele>
        <time>2013-05-11T12:43:12Z</time>
      </trkpt>
      <trkpt lat="43.61033" lon="5.77609">
        <ele>404.79998779297</ele>
        <time>2013-05-11T12:43:47Z</time>
      </trkpt>
      <trkpt lat="43.61061" lon="5.77649">
        <ele>404.40002441406</ele>
        <time>2013-05-11T12:44:21Z</time>
      </trkpt>
      <trkpt lat="43.61096" lon="5.77695">
        <ele>402.5</ele>
        <time>2013-05-11T12:44:56Z</time>
      </trkpt>
      <trkpt lat="43.61134" lon="5.77737">
        <ele>401.90002441406</ele>
        <time>2013-05-11T12:45:30Z</time>
      </trkpt>
      <trkpt lat="43.61167" lon="5.77767">
        <ele>397.09997558594</ele>
        <time>2013-05-11T12:46:04Z</time>
      </trkpt>
      <trkpt lat="43.61197" lon="5.77817">
        <ele>392.70001220703</ele>
        <time>2013-05-11T12:47:13Z</time>
      </trkpt>
      <trkpt lat="43.6123" lon="5.77863">
        <ele>399.29998779297</ele>
        <time>2013-05-11T12:47:47Z</time>
      </trkpt>
      <trkpt lat="43.61246" lon="5.77878">
        <ele>402.40002441406</ele>
        <time>2013-05-11T12:48:20Z</time>
      </trkpt>
      <trkpt lat="43.61269" lon="5.77893">
        <ele>409.90002441406</ele>
        <time>2013-05-11T12:48:54Z</time>
      </trkpt>
      <trkpt lat="43.61316" lon="5.77903">
        <ele>405.40002441406</ele>
        <time>2013-05-11T12:49:28Z</time>
      </trkpt>
      <trkpt lat="43.61357" lon="5.77912">
        <ele>400.79998779297</ele>
        <time>2013-05-11T12:50:05Z</time>
      </trkpt>
      <trkpt lat="43.61398" lon="5.77884">
        <ele>406.29998779297</ele>
        <time>2013-05-11T12:50:32Z</time>
      </trkpt>
      <trkpt lat="43.61461" lon="5.77857">
        <ele>399</ele>
        <time>2013-05-11T12:51:11Z</time>
      </trkpt>
      <trkpt lat="43.61515" lon="5.77841">
        <ele>393.20001220703</ele>
        <time>2013-05-11T12:51:39Z</time>
      </trkpt>
      <trkpt lat="43.61579" lon="5.7781">
        <ele>394.70001220703</ele>
        <time>2013-05-11T12:52:04Z</time>
      </trkpt>
      <trkpt lat="43.61585" lon="5.77779">
        <ele>398.29998779297</ele>
        <time>2013-05-11T12:52:32Z</time>
      </trkpt>
      <trkpt lat="43.61605" lon="5.77749">
        <ele>422.59997558594</ele>
        <time>2013-05-11T12:52:59Z</time>
      </trkpt>
      <trkpt lat="43.61627" lon="5.77698">
        <ele>402.29998779297</ele>
        <time>2013-05-11T12:53:25Z</time>
      </trkpt>
      <trkpt lat="43.61655" lon="5.77667">
        <ele>407.5</ele>
        <time>2013-05-11T12:53:54Z</time>
      </trkpt>
      <trkpt lat="43.61687" lon="5.77647">
        <ele>422</ele>
        <time>2013-05-11T12:54:25Z</time>
      </trkpt>
      <trkpt lat="43.61722" lon="5.77652">
        <ele>432.5</ele>
        <time>2013-05-11T12:54:51Z</time>
      </trkpt>
      <trkpt lat="43.61766" lon="5.77653">
        <ele>436.5</ele>
        <time>2013-05-11T12:55:28Z</time>
      </trkpt>
      <trkpt lat="43.61796" lon="5.77654">
        <ele>431.79998779297</ele>
        <time>2013-05-11T12:55:57Z</time>
      </trkpt>
      <trkpt lat="43.61832" lon="5.77665">
        <ele>455.79998779297</ele>
        <time>2013-05-11T12:56:23Z</time>
      </trkpt>
      <trkpt lat="43.6186" lon="5.77686">
        <ele>455.90002441406</ele>
        <time>2013-05-11T12:56:50Z</time>
      </trkpt>
      <trkpt lat="43.61883" lon="5.77684">
        <ele>466.40002441406</ele>
        <time>2013-05-11T12:57:18Z</time>
      </trkpt>
      <trkpt lat="43.61915" lon="5.77715">
        <ele>466.40002441406</ele>
        <time>2013-05-11T12:57:57Z</time>
      </trkpt>
      <trkpt lat="43.61945" lon="5.77737">
        <ele>458.79998779297</ele>
        <time>2013-05-11T12:58:30Z</time>
      </trkpt>
      <trkpt lat="43.61995" lon="5.77733">
        <ele>453.79998779297</ele>
        <time>2013-05-11T12:59:04Z</time>
      </trkpt>
      <trkpt lat="43.6208" lon="5.77736">
        <ele>473.09997558594</ele>
        <time>2013-05-11T12:59:32Z</time>
      </trkpt>
      <trkpt lat="43.62118" lon="5.77758">
        <ele>461.90002441406</ele>
        <time>2013-05-11T12:59:59Z</time>
      </trkpt>
      <trkpt lat="43.62172" lon="5.77695">
        <ele>460.79998779297</ele>
        <time>2013-05-11T13:00:28Z</time>
      </trkpt>
      <trkpt lat="43.62203" lon="5.77709">
        <ele>455.09997558594</ele>
        <time>2013-05-11T13:00:55Z</time>
      </trkpt>
      <trkpt lat="43.62219" lon="5.77754">
        <ele>455.79998779297</ele>
        <time>2013-05-11T13:01:21Z</time>
      </trkpt>
      <trkpt lat="43.6223" lon="5.77805">
        <ele>463</ele>
        <time>2013-05-11T13:01:47Z</time>
      </trkpt>
      <trkpt lat="43.62235" lon="5.7779">
        <ele>466.70001220703</ele>
        <time>2013-05-11T13:02:24Z</time>
      </trkpt>
      <trkpt lat="43.62258" lon="5.77807">
        <ele>469.29998779297</ele>
        <time>2013-05-11T13:02:57Z</time>
      </trkpt>
      <trkpt lat="43.62263" lon="5.7785">
        <ele>454.29998779297</ele>
        <time>2013-05-11T13:03:27Z</time>
      </trkpt>
      <trkpt lat="43.62263" lon="5.77899">
        <ele>439.5</ele>
        <time>2013-05-11T13:03:53Z</time>
      </trkpt>
      <trkpt lat="43.62317" lon="5.77978">
        <ele>424.59997558594</ele>
        <time>2013-05-11T13:04:23Z</time>
      </trkpt>
      <trkpt lat="43.62352" lon="5.78">
        <ele>417.40002441406</ele>
        <time>2013-05-11T13:04:55Z</time>
      </trkpt>
      <trkpt lat="43.62395" lon="5.78002">
        <ele>416.59997558594</ele>
        <time>2013-05-11T13:05:29Z</time>
      </trkpt>
      <trkpt lat="43.62446" lon="5.78016">
        <ele>421.59997558594</ele>
        <time>2013-05-11T13:06:08Z</time>
      </trkpt>
      <trkpt lat="43.62494" lon="5.78018">
        <ele>430.90002441406</ele>
        <time>2013-05-11T13:06:49Z</time>
      </trkpt>
      <trkpt lat="43.62559" lon="5.78009">
        <ele>426.20001220703</ele>
        <time>2013-05-11T13:07:34Z</time>
      </trkpt>
      <trkpt lat="43.62603" lon="5.78013">
        <ele>421.5</ele>
        <time>2013-05-11T13:08:09Z</time>
      </trkpt>
      <trkpt lat="43.6263" lon="5.78034">
        <ele>411.70001220703</ele>
        <time>2013-05-11T13:08:43Z</time>
      </trkpt>
      <trkpt lat="43.6267" lon="5.78021">
        <ele>411.90002441406</ele>
        <time>2013-05-11T13:09:17Z</time>
      </trkpt>
      <trkpt lat="43.62705" lon="5.78031">
        <ele>413.29998779297</ele>
        <time>2013-05-11T13:09:47Z</time>
      </trkpt>
      <trkpt lat="43.6274" lon="5.78023">
        <ele>407</ele>
        <time>2013-05-11T13:10:21Z</time>
      </trkpt>
      <trkpt lat="43.62779" lon="5.77981">
        <ele>390.20001220703</ele>
        <time>2013-05-11T13:11:01Z</time>
      </trkpt>
      <trkpt lat="43.62825" lon="5.77967">
        <ele>391.09997558594</ele>
        <time>2013-05-11T13:11:34Z</time>
      </trkpt>
      <trkpt lat="43.62847" lon="5.77986">
        <ele>383.59997558594</ele>
        <time>2013-05-11T13:11:56Z</time>
      </trkpt>
      <trkpt lat="43.6285" lon="5.78035">
        <ele>373.59997558594</ele>
        <time>2013-05-11T13:12:31Z</time>
      </trkpt>
      <trkpt lat="43.62882" lon="5.78091">
        <ele>382.79998779297</ele>
        <time>2013-05-11T13:12:59Z</time>
      </trkpt>
      <trkpt lat="43.62886" lon="5.78139">
        <ele>381.59997558594</ele>
        <time>2013-05-11T13:13:25Z</time>
      </trkpt>
      <trkpt lat="43.62918" lon="5.78177">
        <ele>379.40002441406</ele>
        <time>2013-05-11T13:13:46Z</time>
      </trkpt>
      <trkpt lat="43.6295" lon="5.78279">
        <ele>382.79998779297</ele>
        <time>2013-05-11T13:14:08Z</time>
      </trkpt>
      <trkpt lat="43.62964" lon="5.78361">
        <ele>394.59997558594</ele>
        <time>2013-05-11T13:14:31Z</time>
      </trkpt>
      <trkpt lat="43.62991" lon="5.78422">
        <ele>388.29998779297</ele>
        <time>2013-05-11T13:14:58Z</time>
      </trkpt>
      <trkpt lat="43.63013" lon="5.78475">
        <ele>387.09997558594</ele>
        <time>2013-05-11T13:15:26Z</time>
      </trkpt>
      <trkpt lat="43.63036" lon="5.7855">
        <ele>372</ele>
        <time>2013-05-11T13:16:00Z</time>
      </trkpt>
      <trkpt lat="43.63026" lon="5.78569">
        <ele>387.90002441406</ele>
        <time>2013-05-11T13:16:34Z</time>
      </trkpt>
      <trkpt lat="43.63034" lon="5.78548">
        <ele>389.5</ele>
        <time>2013-05-11T13:17:11Z</time>
      </trkpt>
      <trkpt lat="43.63046" lon="5.78558">
        <ele>368.09997558594</ele>
        <time>2013-05-11T13:17:46Z</time>
      </trkpt>
      <trkpt lat="43.63072" lon="5.78616">
        <ele>364</ele>
        <time>2013-05-11T13:18:14Z</time>
      </trkpt>
      <trkpt lat="43.63173" lon="5.78678">
        <ele>369.5</ele>
        <time>2013-05-11T13:18:48Z</time>
      </trkpt>
      <trkpt lat="43.63208" lon="5.78757">
        <ele>437.90002441406</ele>
        <time>2013-05-11T13:19:17Z</time>
      </trkpt>
      <trkpt lat="43.63215" lon="5.78807">
        <ele>404.09997558594</ele>
        <time>2013-05-11T13:19:52Z</time>
      </trkpt>
      <trkpt lat="43.6322" lon="5.78825">
        <ele>389.90002441406</ele>
        <time>2013-05-11T13:20:15Z</time>
      </trkpt>
      <trkpt lat="43.63262" lon="5.78869">
        <ele>365.5</ele>
        <time>2013-05-11T13:20:52Z</time>
      </trkpt>
      <trkpt lat="43.63292" lon="5.78935">
        <ele>379.29998779297</ele>
        <time>2013-05-11T13:21:29Z</time>
      </trkpt>
      <trkpt lat="43.63293" lon="5.78985">
        <ele>362.29998779297</ele>
        <time>2013-05-11T13:21:53Z</time>
      </trkpt>
      <trkpt lat="43.63286" lon="5.78995">
        <ele>372.59997558594</ele>
        <time>2013-05-11T13:22:27Z</time>
      </trkpt>
      <trkpt lat="43.63309" lon="5.78996">
        <ele>410.59997558594</ele>
        <time>2013-05-11T13:23:02Z</time>
      </trkpt>
      <trkpt lat="43.63299" lon="5.79009">
        <ele>379.40002441406</ele>
        <time>2013-05-11T13:23:36Z</time>
      </trkpt>
      <trkpt lat="43.6333" lon="5.79067">
        <ele>388.5</ele>
        <time>2013-05-11T13:24:11Z</time>
      </trkpt>
      <trkpt lat="43.63361" lon="5.79095">
        <ele>378.5</ele>
        <time>2013-05-11T13:24:46Z</time>
      </trkpt>
      <trkpt lat="43.63365" lon="5.79141">
        <ele>385.59997558594</ele>
        <time>2013-05-11T13:25:21Z</time>
      </trkpt>
    </trkseg>
  </trk>
</gpx>